Date StartTime U_cm/s V_cm/s W_cm/s Ustd_cm/s Vstd_cm/s Wstd_cm/s Uvar_(cm/s)^2 Vvar_(cm/s)^2 Wvar_(cm/s)^2 KE_(m/s)^2 TurbulentKE_(m/s)^2 HorizWindSpeed_cm/s FrictionSpeec_cm/s DragCoef SpeedOfSound_m/s SonicTemperature_C Pressure_mb 
11/26/2013  00:00:00     -109.421      -44.246        3.775       33.197       27.167       18.206     1102.062      738.025      331.455        0.806        0.109      118.029       16.923        0.021      332.333        0.926      869.927
11/26/2013  00:01:00     -117.004      -46.426       -3.842       26.401       21.888       16.114      697.017      479.077      259.667        0.865        0.072      125.878       16.212        0.017      332.303        0.878      869.938
11/26/2013  00:02:00     -119.022      -28.122       -6.584       26.310       25.969       14.483      692.233      674.385      209.757        0.829        0.079      122.299       16.849        0.019      332.269        0.822      869.931
11/26/2013  00:03:00     -110.890      -22.538       -2.199       33.054       18.469       14.518     1092.545      341.090      210.770        0.723        0.082      113.158       15.215        0.018      332.296        0.867      869.913
11/26/2013  00:04:00     -109.001      -24.870       -6.534       23.020       19.458       14.243      529.930      378.619      202.861        0.683        0.056      111.802       14.081        0.016      332.264        0.814      869.899
11/26/2013  00:05:00     -103.787      -37.808       -3.072       19.507       17.991       16.471      380.534      323.663      271.300        0.659        0.049      110.459       13.207        0.014      332.254        0.799      869.893
11/26/2013  00:06:00     -119.663      -40.515      -11.421       18.082       12.023       13.619      326.954      144.548      185.472        0.837        0.033      126.335        9.565        0.006      332.247        0.786      869.880
11/26/2013  00:07:00     -128.917      -34.687      -17.440       17.052       14.531       10.882      290.786      211.154      118.420        0.937        0.031      133.502        8.015        0.004      332.205        0.718      869.856
11/26/2013  00:08:00     -112.857      -54.446      -12.447       25.762       25.294       19.870      663.667      639.787      394.811        0.878        0.085      125.304       18.435        0.022      332.162        0.645      869.833
11/26/2013  00:09:00      -69.084      -53.250       -5.225       38.243       34.691       21.628     1462.534     1203.463      467.771        0.538        0.157       87.225       14.980        0.029      332.126        0.586      869.831
11/26/2013  00:10:00      -92.299      -57.886      -12.215       45.376       27.215       23.960     2058.957      740.641      574.069        0.770        0.169      108.949       25.952        0.057      332.087        0.521      869.835
11/26/2013  00:11:00     -132.729      -58.072      -21.571       17.069       22.842       14.414      291.335      521.751      207.772        1.124        0.051      144.877        8.143        0.003      332.008        0.391      869.839
11/26/2013  00:12:00     -111.781      -29.930      -17.101       12.392       17.220       11.690      153.565      296.544      136.655        0.713        0.029      115.718        7.429        0.004      331.961        0.311      869.837
11/26/2013  00:13:00     -105.427      -30.300      -17.534       24.237       18.062       13.839      587.443      326.242      191.508        0.672        0.055      109.694       10.045        0.008      331.994        0.367      869.819
11/26/2013  00:14:00      -90.493      -26.561      -12.511       27.409       19.516       15.680      751.276      380.865      245.867        0.521        0.069       94.311       12.265        0.017      332.014        0.401      869.809
11/26/2013  00:15:00      -90.950      -23.344      -18.376       19.402       13.943       14.122      376.429      194.402      199.420        0.496        0.039       93.898        8.764        0.009      332.006        0.389      869.803
11/26/2013  00:16:00      -82.237      -45.505      -15.772       23.511       20.947       16.542      552.761      438.774      273.623        0.517        0.063       93.987       10.610        0.013      331.974        0.334      869.810
11/26/2013  00:17:00      -47.508       -7.192        1.461       30.034       28.517       21.443      902.047      813.245      459.782        0.224        0.109       48.049       20.197        0.177      332.061        0.479      869.820
11/26/2013  00:18:00      -90.858      -60.060      -10.080       31.963       27.620       22.934     1021.604      762.890      525.984        0.714        0.116      108.914       12.151        0.012      332.032        0.432      869.830
11/26/2013  00:19:00     -124.054      -61.396       -3.860       36.385       35.726       19.202     1323.832     1276.365      368.724        1.107        0.148      138.415       13.085        0.009      331.991        0.363      869.829
11/26/2013  00:20:00      -99.889      -70.879        1.738       43.162       27.265       21.085     1862.982      743.381      444.564        0.903        0.153      122.481       22.533        0.034      332.090        0.527      869.836
11/26/2013  00:21:00      -77.452      -52.903        4.028       43.930       24.017       20.895     1929.833      576.801      436.615        0.588        0.147       93.795       22.583        0.058      332.130        0.593      869.834
11/26/2013  00:22:00     -100.145      -65.008       -1.309       42.870       32.267       19.425     1837.803     1041.150      377.331        0.876        0.163      119.394       18.070        0.023      332.171        0.660      869.842
11/26/2013  00:23:00      -81.342      -64.376       -1.684       38.247       47.558       19.871     1462.855     2261.771      394.841        0.744        0.206      103.734       18.686        0.032      332.138        0.605      869.852
11/26/2013  00:24:00     -120.575      -59.905       -2.202       36.153       24.575       20.831     1307.011      603.912      433.936        1.024        0.117      134.636       20.919        0.024      332.063        0.483      869.851
11/26/2013  00:25:00     -109.417      -33.293       -9.391       15.108       23.000       12.038      228.265      529.021      144.916        0.704        0.045      114.370        4.199        0.001      332.055        0.470      869.833
11/26/2013  00:26:00     -107.948      -22.084      -12.989       21.506       18.461       15.647      462.514      340.798      244.839        0.668        0.052      110.184       13.669        0.015      332.070        0.495      869.817
11/26/2013  00:27:00     -106.546      -29.633      -12.072       13.850       11.924       11.021      191.814      142.185      121.468        0.642        0.023      110.590        9.264        0.007      332.089        0.523      869.804
11/26/2013  00:28:00     -112.394      -29.342      -13.111       10.121       14.719        9.206      102.438      216.642       84.754        0.703        0.020      116.161        5.979        0.003      332.075        0.501      869.792
11/26/2013  00:29:00     -120.747      -41.964       -8.837       20.314       14.285       16.571      412.640      204.072      274.601        0.865        0.045      127.831       15.048        0.014      332.045        0.452      869.789
11/26/2013  00:30:00     -134.725      -55.102      -18.096       12.115       13.804        7.832      146.782      190.539       61.344        1.096        0.020      145.557        3.376        0.001      332.091        0.528      869.790
11/26/2013  00:31:00     -145.330      -69.618      -11.165       13.164       19.318       11.077      173.298      373.170      122.699        1.338        0.033      161.144        7.387        0.002      332.062        0.479      869.794
11/26/2013  00:32:00     -144.877      -40.484      -12.689       14.446       18.461       11.384      208.697      340.810      129.599        1.173        0.034      150.427        7.726        0.003      332.008        0.391      869.807
11/26/2013  00:33:00     -106.026      -47.608       -7.648       19.631       26.386       16.746      385.385      696.201      280.427        0.746        0.068      116.224       11.754        0.010      332.015        0.403      869.792
11/26/2013  00:34:00     -111.536      -46.744       -7.196       21.081       17.919       12.736      444.403      321.096      162.198        0.780        0.046      120.935        9.811        0.007      332.054        0.467      869.780
11/26/2013  00:35:00     -121.588      -38.894       -1.975       25.295       19.512       14.162      639.841      380.724      200.571        0.876        0.061      127.657       13.516        0.011      332.065        0.486      869.773
11/26/2013  00:36:00     -124.152      -29.217       -2.913       26.096       15.954       15.634      681.023      254.525      244.431        0.873        0.059      127.544       13.885        0.012      332.001        0.379      869.772
11/26/2013  00:37:00     -145.409      -27.189       -9.329       22.858       19.850       13.278      522.476      394.019      176.299        1.153        0.055      147.929        9.558        0.004      331.994        0.370      869.785
11/26/2013  00:38:00     -145.046      -50.468       -7.742       23.006       24.228       16.982      529.279      586.999      288.405        1.252        0.070      153.576       12.918        0.007      331.994        0.369      869.804
11/26/2013  00:39:00     -158.009      -59.549       -0.523       33.476       25.295       24.180     1120.652      639.849      584.685        1.543        0.117      168.857       22.787        0.018      331.963        0.318      869.808
11/26/2013  00:40:00     -146.147      -69.909       -3.327       47.367       28.546       21.520     2243.639      814.864      463.095        1.489        0.176      162.007       24.141        0.022      331.946        0.288      869.803
11/26/2013  00:41:00     -135.361      -50.192       -1.929       25.161       27.712       16.156      633.074      767.976      261.021        1.125        0.083      144.367       10.848        0.006      331.973        0.334      869.792
11/26/2013  00:42:00     -122.715      -75.637       -0.993       26.829       35.330       18.177      719.799     1248.214      330.389        1.154        0.115      144.152       13.082        0.008      332.050        0.460      869.780
11/26/2013  00:43:00     -158.946      -46.204       -7.809       21.335       20.263       15.910      455.178      410.584      253.141        1.429        0.056      165.525       10.261        0.004      332.024        0.417      869.778
11/26/2013  00:44:00     -139.136      -48.159      -10.201       22.970       23.772       13.251      527.606      565.092      175.584        1.152        0.063      147.235       11.472        0.006      331.993        0.367      869.776
11/26/2013  00:45:00     -110.709      -13.499       -0.023       38.553       23.967       20.893     1486.305      574.436      436.514        0.747        0.125      111.529       19.538        0.031      331.938        0.276      869.764
11/26/2013  00:46:00     -130.138      -24.511       -4.154       21.550       22.156       14.138      464.386      490.866      199.876        0.935        0.058      132.426       12.531        0.009      332.008        0.392      869.753
11/26/2013  00:47:00     -123.904      -39.595       -3.758       22.814       20.652       14.373      520.463      426.516      206.587        0.904        0.058      130.077       11.281        0.008      331.991        0.363      869.750
11/26/2013  00:48:00     -113.340      -39.227       -2.577       23.518       22.464       16.484      553.088      504.620      271.729        0.786        0.066      119.937       12.369        0.011      331.987        0.356      869.753
11/26/2013  00:49:00     -155.727      -69.546       -5.054       26.262       32.103       17.080      689.680     1030.610      291.736        1.556        0.101      170.551       11.281        0.004      331.989        0.360      869.747
11/26/2013  00:50:00     -107.046      -55.794      -10.961       35.334       25.894       21.781     1248.515      670.481      474.414        0.854        0.120      120.714       13.524        0.013      331.939        0.278      869.739
11/26/2013  00:51:00     -128.102      -35.991      -14.328       20.765       21.121       13.011      431.179      446.082      169.275        0.948        0.052      133.062        9.165        0.005      331.852        0.135      869.734
11/26/2013  00:52:00     -131.601      -21.306      -13.099       41.101       32.877       20.796     1689.313     1080.920      432.471        1.057        0.160      133.315       20.865        0.024      331.845        0.122      869.723
11/26/2013  00:53:00     -116.918       -4.458       -7.761       45.232       37.264       29.293     2045.947     1388.613      858.082        0.902        0.215      117.003       24.038        0.042      331.809        0.065      869.708
11/26/2013  00:54:00     -140.225       42.252       -6.071       48.697       35.610       29.088     2371.426     1268.085      846.130        1.298        0.224      146.452       23.105        0.025      331.872        0.165      869.694
11/26/2013  00:55:00      -77.311       20.216       -4.549       46.790       45.461       31.967     2189.337     2066.719     1021.872        0.584        0.264       79.910       25.398        0.101      331.852        0.135      869.677
11/26/2013  00:56:00      -30.879       -2.199       -8.199       22.571       25.242       19.745      509.444      637.160      389.869        0.128        0.077       30.957       13.920        0.202      331.862        0.150      869.661
11/26/2013  00:57:00      -90.485        5.743      -19.108       27.576       30.011       18.373      760.451      900.675      337.553        0.529        0.100       90.667       16.558        0.033      331.869        0.162      869.648
11/26/2013  00:58:00      -57.523      -16.144      -13.833       32.620       27.789       22.749     1064.055      772.201      517.506        0.306        0.118       59.745       18.381        0.095      331.926        0.255      869.647
11/26/2013  00:59:00      -35.593      -17.634       -5.788       14.952       12.670       17.421      223.570      160.531      303.497        0.115        0.034       39.722        5.513        0.019      332.177        0.670      869.655
11/26/2013  01:00:00      -51.226      -26.971       -3.141       16.649       10.549       12.743      277.177      111.288      162.396        0.196        0.028       57.892        7.303        0.016      332.296        0.867      869.661
11/26/2013  01:01:00      -47.316      -24.337       -6.291       17.414       12.673        8.833      303.235      160.612       78.022        0.171        0.027       53.208        6.693        0.016      332.011        0.397      869.662
11/26/2013  01:02:00      -46.212       -9.896       -6.769       11.039        9.783        6.294      121.858       95.697       39.612        0.127        0.013       47.260        3.129        0.004      331.853        0.137      869.651
11/26/2013  01:03:00      -28.174       -5.702       -0.830        8.728        8.882        4.910       76.171       78.895       24.112        0.050        0.009       28.746        2.456        0.007      331.858        0.145      869.630
11/26/2013  01:04:00       -4.717       -6.395       -1.324        5.123        9.237        3.715       26.246       85.331       13.802        0.010        0.006        7.946        2.578        0.105      331.898        0.209      869.617
11/26/2013  01:05:00        0.680       -6.767        5.092        3.805        5.920        4.606       14.476       35.048       21.219        0.007        0.004        6.801        1.840        0.073      332.010        0.395      869.616
11/26/2013  01:06:00       -0.326       -7.196        4.211        6.427       10.513        8.065       41.306      110.527       65.051        0.014        0.011        7.203        6.237        0.750      332.048        0.457      869.608
11/26/2013  01:07:00      -19.393      -20.999       -0.588       26.513       10.042        9.331      702.950      100.847       87.063        0.085        0.045       28.584        3.645        0.016      331.982        0.348      869.607
11/26/2013  01:08:00      -68.978      -35.641       -6.276       18.183       12.972       10.119      330.639      168.283      102.401        0.333        0.030       77.641        3.788        0.002      331.812        0.069      869.614
11/26/2013  01:09:00      -97.185      -47.946       -1.581       33.345       19.161       12.732     1111.862      367.142      162.093        0.669        0.082      108.368       11.038        0.010      331.761       -0.015      869.635
11/26/2013  01:10:00     -101.756      -64.018       -1.570       32.654       25.561       20.184     1066.303      653.355      407.412        0.829        0.106      120.218       16.916        0.020      331.770       -0.000      869.669
11/26/2013  01:11:00      -76.230      -45.005       12.313       44.191       30.268       21.632     1952.812      916.182      467.945        0.566        0.167       88.524       24.155        0.074      331.894        0.203      869.684
11/26/2013  01:12:00      -92.962      -62.171       -4.380       32.097       32.789       20.671     1030.230     1075.108      427.280        0.753        0.127      111.836       18.654        0.028      331.960        0.312      869.688
11/26/2013  01:13:00      -87.296      -65.879       -6.318       43.909       30.548       24.203     1927.965      933.188      585.798        0.772        0.172      109.365       19.967        0.033      332.025        0.420      869.678
11/26/2013  01:14:00      -84.703      -35.309        4.400       44.114       27.569       18.948     1946.066      760.026      359.027        0.575        0.153       91.767       22.387        0.060      331.917        0.241      869.660
11/26/2013  01:15:00      -80.631      -25.237        1.191       34.642       22.869       19.676     1200.078      522.991      387.145        0.462        0.106       84.488       18.242        0.047      331.858        0.144      869.642
11/26/2013  01:16:00      -55.337      -13.939        2.953       22.239       22.114       11.598      494.584      489.027      134.514        0.219        0.056       57.066        8.441        0.022      331.923        0.251      869.626
11/26/2013  01:17:00      -73.955      -13.767      -10.893       10.931       12.291        8.874      119.491      151.065       78.748        0.306        0.017       75.226        4.477        0.004      331.921        0.247      869.618
11/26/2013  01:18:00      -75.394      -17.948       -5.603       16.976       10.653        9.219      288.174      113.491       84.996        0.326        0.024       77.501        8.697        0.013      331.995        0.370      869.604
11/26/2013  01:19:00      -79.450      -15.098      -10.330       10.587       11.648        9.044      112.079      135.667       81.787        0.349        0.016       80.872        6.663        0.007      332.052        0.464      869.596
11/26/2013  01:20:00      -61.457      -10.040       -9.827        9.703        9.723        6.859       94.151       94.533       47.043        0.211        0.012       62.272        5.544        0.008      332.029        0.428      869.586
11/26/2013  01:21:00      -57.649      -12.926      -10.847        8.410        8.222        7.745       70.734       67.595       59.984        0.190        0.010       59.080        4.746        0.006      332.053        0.468      869.579
11/26/2013  01:22:00      -44.190      -13.401       -9.140        6.416        8.651        6.232       41.169       74.843       38.840        0.119        0.008       46.177        3.019        0.004      332.133        0.597      869.579
11/26/2013  01:23:00      -46.993      -17.203       -3.450        9.328        8.411        5.597       87.014       70.743       31.329        0.135        0.009       50.043        3.231        0.004      332.109        0.560      869.594
11/26/2013  01:24:00       -4.513      -23.456       -2.344       13.256        9.350        8.468      175.719       87.415       71.704        0.046        0.017       23.886        5.210        0.048      332.092        0.532      869.608
11/26/2013  01:25:00       -0.915      -26.282       -5.453        9.316        8.760        7.783       86.786       76.741       60.574        0.047        0.011       26.298        5.957        0.051      332.108        0.557      869.613
11/26/2013  01:26:00      -11.331       -2.530        4.111        6.375        7.929        6.020       40.643       62.871       36.241        0.015        0.007       11.610        5.470        0.222      332.046        0.456      869.617
11/26/2013  01:27:00       -2.085      -16.624       -4.460        8.215        7.861        9.526       67.492       61.792       90.746        0.026        0.011       16.754        4.248        0.064      332.008        0.394      869.635
11/26/2013  01:28:00       -5.720      -15.944       -5.467        7.112        8.272        8.461       50.586       68.424       71.596        0.025        0.010       16.939        2.798        0.027      331.976        0.339      869.650
11/26/2013  01:29:00      -10.158      -18.850       -4.308       11.726        6.876        5.568      137.496       47.284       31.003        0.035        0.011       21.412        4.333        0.041      332.049        0.459      869.663
11/26/2013  01:30:00      -28.302      -16.286      -11.126       10.890        9.629        6.018      118.598       92.726       36.221        0.072        0.012       32.654        4.006        0.015      332.007        0.388      869.660
11/26/2013  01:31:00       -5.734      -13.901       -0.181        9.187       14.105        9.257       84.399      198.958       85.699        0.030        0.018       15.037       10.368        0.475      331.907        0.224      869.668
11/26/2013  01:32:00      -39.990      -22.567       -2.122       16.478        8.846        6.477      271.522       78.251       41.952        0.125        0.020       45.918        6.328        0.019      331.869        0.161      869.668
11/26/2013  01:33:00      -63.847      -17.644       -4.223       11.851        9.439        7.275      140.435       89.087       52.928        0.234        0.014       66.240        6.253        0.009      331.848        0.128      869.668
11/26/2013  01:34:00      -80.955      -18.848      -11.195        7.570       12.686        7.982       57.307      160.939       63.712        0.366        0.014       83.120        3.693        0.002      331.833        0.103      869.675
11/26/2013  01:35:00      -77.418      -34.267      -12.163       15.534       15.541        8.249      241.299      241.538       68.039        0.393        0.028       84.662        4.630        0.003      331.795        0.039      869.679
11/26/2013  01:36:00      -95.646      -32.355       -7.702       12.162       13.121       10.014      147.903      172.156      100.285        0.534        0.021      100.971        3.996        0.002      331.747       -0.039      869.688
11/26/2013  01:37:00      -74.356      -15.340       -1.185       24.459       18.368       14.431      598.245      337.399      208.243        0.345        0.057       75.921       13.534        0.032      331.676       -0.155      869.685
11/26/2013  01:38:00      -85.951      -13.951       -6.180       31.891       19.726       13.674     1017.025      389.099      186.972        0.461        0.080       87.076       15.245        0.031      331.659       -0.183      869.676
11/26/2013  01:39:00     -109.440      -10.711       -5.435       27.162       18.373       16.895      737.749      337.585      285.429        0.674        0.068      109.963       16.570        0.023      331.591       -0.295      869.666
11/26/2013  01:40:00     -101.070      -30.629        4.740       33.125       27.123       19.337     1097.295      735.648      373.932        0.669        0.110      105.610       18.870        0.032      331.588       -0.300      869.656
11/26/2013  01:41:00     -137.173      -49.202       -8.067       22.468       29.110       14.093      504.816      847.415      198.612        1.143        0.078      145.730       11.522        0.006      331.633       -0.225      869.644
11/26/2013  01:42:00     -130.574      -19.945      -14.706       26.758       20.659       18.882      716.008      426.811      356.533        0.958        0.075      132.088       15.148        0.013      331.585       -0.305      869.637
11/26/2013  01:43:00     -122.819      -38.739       -6.805       24.380       23.472       15.358      594.361      550.952      235.876        0.901        0.069      128.783       13.612        0.011      331.496       -0.452      869.644
11/26/2013  01:44:00     -106.592      -33.069       -8.825       20.984       19.824       14.582      440.313      393.000      212.648        0.679        0.052      111.603        7.304        0.004      331.480       -0.477      869.652
11/26/2013  01:45:00      -58.843       -6.513        1.188       30.269       31.336       16.022      916.191      981.929      256.720        0.283        0.108       59.202       14.278        0.058      331.449       -0.530      869.667
11/26/2013  01:46:00      -88.442       -1.624       -5.384       23.387       29.639       17.955      546.956      878.447      322.368        0.480        0.087       88.457        9.204        0.011      331.555       -0.356      869.666
11/26/2013  01:47:00      -60.613       -8.110       -6.991       19.577       20.193       14.448      383.276      407.755      208.743        0.239        0.050       61.153       10.506        0.030      331.522       -0.410      869.660
11/26/2013  01:48:00      -64.096      -19.537       -7.385       26.153       25.657       13.376      683.956      658.302      178.929        0.303        0.076       67.007       12.152        0.033      331.587       -0.302      869.671
11/26/2013  01:49:00      -49.622      -35.137      -10.479       28.540       17.071       12.520      814.546      291.422      156.750        0.253        0.063       60.803        6.272        0.011      331.615       -0.255      869.693
11/26/2013  01:50:00      -49.941      -37.667       -7.432       30.426       22.239       14.772      925.715      494.561      218.224        0.280        0.082       62.553       12.681        0.041      331.559       -0.348      869.705
11/26/2013  01:51:00      -93.625      -33.603       -5.713       22.749       23.027       13.306      517.511      530.221      177.041        0.558        0.061       99.472        6.790        0.005      331.520       -0.412      869.720
11/26/2013  01:52:00      -78.776      -34.775       -6.620       18.598       20.058       13.094      345.901      402.305      171.450        0.419        0.046       86.110        8.038        0.009      331.525       -0.404      869.721
11/26/2013  01:53:00      -59.570       -8.953       -5.571       22.243       17.602       11.672      494.769      309.819      136.232        0.230        0.047       60.239       10.024        0.028      331.527       -0.400      869.717
11/26/2013  01:54:00      -38.597      -13.505       -8.664       12.622       13.950        9.139      159.313      194.589       83.516        0.109        0.022       40.891        7.460        0.033      331.542       -0.376      869.713
11/26/2013  01:55:00      -46.839      -13.757       -7.926       14.084       10.713        6.279      198.365      114.766       39.420        0.140        0.018       48.817        4.907        0.010      331.645       -0.207      869.718
11/26/2013  01:56:00      -46.223      -16.290       -4.658        8.068       10.518        6.004       65.096      110.637       36.048        0.132        0.011       49.009        1.684        0.001      331.811        0.066      869.724
11/26/2013  01:57:00      -50.456      -22.342       -9.575        7.475       12.403        6.962       55.868      153.825       48.476        0.170        0.013       55.182        5.942        0.012      331.697       -0.118      869.735
11/26/2013  01:58:00      -55.463      -15.921      -13.217       18.281       13.901        8.332      334.179      193.226       69.415        0.205        0.030       57.703        9.094        0.025      331.622       -0.244      869.750
11/26/2013  01:59:00      -71.201       -7.135      -14.089       13.045        9.362        7.470      170.180       87.652       55.808        0.282        0.016       71.557        3.542        0.002      331.685       -0.140      869.756
11/26/2013  02:00:00      -66.772      -16.179      -10.275       16.160       13.443       11.129      261.131      180.701      123.853        0.270        0.028       68.704        8.089        0.014      331.628       -0.233      869.744
11/26/2013  02:01:00      -69.605      -18.793      -18.124        7.328        9.108        8.197       53.701       82.962       67.194        0.287        0.010       72.097        1.759        0.001      331.647       -0.204      869.720
11/26/2013  02:02:00      -83.249      -25.990      -16.680       16.398       21.483       10.009      268.903      461.525      100.179        0.436        0.042       87.212       11.623        0.018      331.638       -0.217      869.701
11/26/2013  02:03:00     -113.580       -6.808      -21.303       13.273       10.592       11.224      176.185      112.192      125.980        0.691        0.021      113.784        3.908        0.001      331.537       -0.385      869.683
11/26/2013  02:04:00     -120.650       -3.358      -22.338       13.315       13.487       10.061      177.276      181.896      101.233        0.776        0.023      120.697        5.996        0.002      331.481       -0.478      869.674
11/26/2013  02:05:00     -105.439        2.148      -15.845       25.231       19.575       14.211      636.593      383.175      201.950        0.630        0.061      105.461        9.192        0.008      331.507       -0.435      869.666
11/26/2013  02:06:00      -90.008       -8.711      -21.689       18.648       17.111       13.460      347.746      292.786      181.177        0.473        0.041       90.429        9.311        0.011      331.449       -0.530      869.662
11/26/2013  02:07:00      -79.717      -19.621      -18.012       23.643       16.483       12.152      558.971      271.681      147.674        0.402        0.049       82.096        9.649        0.014      331.443       -0.539      869.666
11/26/2013  02:08:00      -95.546      -25.257      -15.478       16.501       19.636       14.829      272.298      385.586      219.899        0.544        0.044       98.828        7.503        0.006      331.433       -0.557      869.665
11/26/2013  02:09:00      -80.730      -47.312      -14.484       23.562       29.933       17.246      555.176      896.013      297.432        0.536        0.087       93.572       13.492        0.021      331.425       -0.569      869.667
11/26/2013  02:10:00      -84.372      -24.842       -1.448       46.063       27.276       25.608     2121.833      743.979      655.782        0.563        0.176       87.953       27.353        0.097      331.395       -0.618      869.653
11/26/2013  02:11:00     -101.634      -23.042      -15.937       46.465       23.043       15.194     2159.031      530.973      230.848        0.702        0.146      104.213       13.427        0.017      331.444       -0.538      869.649
11/26/2013  02:12:00      -65.692      -29.118       -7.509       36.337       27.968       21.886     1320.405      782.223      479.003        0.390        0.129       71.856       14.597        0.041      331.396       -0.617      869.654
11/26/2013  02:13:00      -99.446      -14.901      -12.234       32.182       16.116       15.401     1035.686      259.725      237.194        0.590        0.077      100.556       11.077        0.012      331.391       -0.625      869.662
11/26/2013  02:14:00      -94.220      -48.518      -17.760       22.164       28.300       14.007      491.227      800.878      196.186        0.652        0.074      105.979       13.638        0.017      331.388       -0.630      869.666
11/26/2013  02:15:00      -68.197      -44.680      -13.754       36.331       31.232       19.933     1319.924      975.428      397.324        0.476        0.135       81.530       23.820        0.085      331.433       -0.556      869.673
11/26/2013  02:16:00      -99.593      -59.520      -11.320       31.711       28.560       22.342     1005.587      815.693      499.186        0.795        0.116      116.024       20.805        0.032      331.444       -0.537      869.682
11/26/2013  02:17:00      -96.177      -51.361       -3.963       26.673       20.267       17.848      711.435      410.770      318.564        0.667        0.072      109.032       15.637        0.021      331.476       -0.487      869.682
11/26/2013  02:18:00      -25.000      -32.426       11.355       30.607       22.434       19.533      936.762      503.283      381.526        0.181        0.091       40.945       17.262        0.178      331.508       -0.432      869.685
11/26/2013  02:19:00      -79.267      -44.081       -0.292       38.266       20.933       18.394     1464.276      438.204      338.339        0.523        0.112       90.699       17.850        0.039      331.475       -0.486      869.687
11/26/2013  02:20:00      -77.062      -43.506       -1.224       26.960       27.414       14.523      726.853      751.553      210.926        0.476        0.084       88.495       12.128        0.019      331.442       -0.540      869.700
11/26/2013  02:21:00     -100.530      -52.030       -6.878       20.201       15.415       10.177      408.068      237.615      103.576        0.680        0.037      113.196        8.795        0.006      331.458       -0.515      869.710
11/26/2013  02:22:00      -90.389      -39.679       -8.360       17.631       19.947       13.340      310.858      397.872      177.951        0.535        0.044       98.715        9.823        0.010      331.475       -0.487      869.700
11/26/2013  02:23:00      -94.232      -18.724       -9.283       17.306       18.367       13.289      299.513      337.349      176.598        0.506        0.041       96.074       12.362        0.017      331.426       -0.567      869.689
11/26/2013  02:24:00     -105.254      -28.997       -4.831       17.716       16.642       10.641      313.873      276.961      113.230        0.632        0.035      109.175        9.408        0.007      331.394       -0.620      869.675
11/26/2013  02:25:00      -90.824      -49.670       -9.451       15.312       15.246       11.363      234.458      232.433      129.116        0.570        0.030      103.519        7.504        0.005      331.393       -0.621      869.675
11/26/2013  02:26:00      -92.843      -32.357      -12.482       14.841       18.298       11.931      220.259      334.800      142.351        0.526        0.035       98.320        7.386        0.006      331.370       -0.658      869.676
11/26/2013  02:27:00      -74.026      -21.953       -0.107       35.795       25.005       16.433     1281.313      625.262      270.037        0.407        0.109       77.213       18.490        0.057      331.423       -0.572      869.666
11/26/2013  02:28:00      -82.137       -3.876        2.216       36.726       33.507       20.914     1348.770     1122.689      437.408        0.484        0.145       82.228       20.911        0.065      331.450       -0.527      869.652
11/26/2013  02:29:00      -83.814        4.783       -7.324       47.170       33.512       21.225     2225.048     1123.038      450.520        0.545        0.190       83.950       19.485        0.054      331.475       -0.488      869.650
11/26/2013  02:30:00      -99.391      -12.387       -8.666       46.688       42.340       18.954     2179.743     1792.640      359.242        0.722        0.217      100.160       22.296        0.050      331.525       -0.403      869.640
11/26/2013  02:31:00     -108.499      -13.508       -8.432       41.667       32.570       21.383     1736.167     1060.781      457.246        0.764        0.163      109.337       20.392        0.035      331.461       -0.510      869.631
11/26/2013  02:32:00      -89.461      -49.349       -4.325       41.846       29.411       19.546     1751.102      864.994      382.044        0.673        0.150      102.169       12.539        0.015      331.442       -0.541      869.636
11/26/2013  02:33:00     -115.409      -66.807        0.273       28.437       24.959       17.553      808.683      622.944      308.097        0.976        0.087      133.350        6.931        0.003      331.431       -0.560      869.630
11/26/2013  02:34:00      -83.191      -44.795        5.917       38.092       23.980       22.046     1450.972      575.032      486.014        0.574        0.126       94.485       22.635        0.057      331.409       -0.595      869.633
11/26/2013  02:35:00      -92.257      -42.566       -8.686       27.504       24.770       13.152      756.451      613.536      172.976        0.597        0.077      101.603        7.945        0.006      331.479       -0.480      869.634
11/26/2013  02:36:00     -118.382      -33.916       -6.903       25.144       22.298       18.619      632.239      497.187      346.678        0.834        0.074      123.145       13.656        0.012      331.447       -0.531      869.622
11/26/2013  02:37:00     -115.034      -35.025       -6.266       30.546       19.045       18.237      933.063      362.721      332.576        0.806        0.081      120.248       16.953        0.020      331.437       -0.547      869.597
11/26/2013  02:38:00     -107.926      -41.934       -4.974       38.219       25.775       17.055     1460.711      664.342      290.885        0.792        0.121      115.786       17.104        0.022      331.489       -0.462      869.578
11/26/2013  02:39:00     -102.550      -33.327      -10.401       29.715       29.287       15.856      882.972      857.741      251.424        0.686        0.100      107.829       11.693        0.012      331.520       -0.411      869.565
11/26/2013  02:40:00      -73.251      -35.821       -0.916       28.612       19.243       16.178      818.674      370.307      261.723        0.405        0.073       81.541       17.520        0.046      331.521       -0.411      869.572
11/26/2013  02:41:00      -44.254      -34.438        3.172       25.185       18.072       18.152      634.279      326.605      329.487        0.222        0.065       56.075       16.612        0.088      331.562       -0.342      869.566
11/26/2013  02:42:00      -18.069      -19.463        4.889       19.295       11.173       11.366      372.285      124.841      129.179        0.068        0.031       26.558        5.835        0.048      331.576       -0.320      869.556
11/26/2013  02:43:00      -41.888      -12.415      -10.637       15.097       10.684        5.586      227.906      114.147       31.204        0.120        0.019       43.689        4.135        0.009      331.614       -0.256      869.529
11/26/2013  02:44:00      -39.277        1.049       -2.993       23.684       13.348        9.279      560.909      178.177       86.108        0.119        0.041       39.291        9.426        0.058      331.990        0.362      869.508
11/26/2013  02:45:00      -38.595      -11.696       -7.601       10.364       11.054       14.198      107.411      122.189      201.589        0.106        0.022       40.328        6.230        0.024      331.906        0.223      869.494
11/26/2013  02:46:00      -40.819      -32.855      -11.679       11.306       11.681        9.651      127.836      136.439       93.149        0.162        0.018       52.399        5.925        0.013      331.718       -0.086      869.492
11/26/2013  02:47:00      -58.988      -30.274       -7.291       17.198       13.482       12.858      295.759      181.758      165.333        0.255        0.032       66.303        9.328        0.020      331.668       -0.167      869.479
11/26/2013  02:48:00      -69.151      -24.764      -15.839       11.013       16.085        9.254      121.277      258.717       85.644        0.306        0.023       73.452        7.780        0.011      331.676       -0.155      869.471
11/26/2013  02:49:00      -63.330      -26.259       -5.909       10.140       13.103       12.775      102.813      171.701      163.203        0.259        0.022       68.558        9.330        0.019      331.568       -0.334      869.466
11/26/2013  02:50:00      -94.307      -29.873      -12.552       11.336       15.497       10.069      128.497      240.151      101.379        0.521        0.024       98.925        7.682        0.006      331.590       -0.298      869.460
11/26/2013  02:51:00      -99.995      -45.059       -9.965       14.790       11.322        7.888      218.737      128.193       62.218        0.627        0.020      109.678        5.906        0.003      331.610       -0.263      869.464
11/26/2013  02:52:00     -130.730      -57.731      -14.148       17.054       19.147       14.094      290.824      366.591      198.633        1.074        0.043      142.910        9.122        0.004      331.621       -0.244      869.471
11/26/2013  02:53:00     -127.189      -30.271      -12.808       15.018       22.750        7.931      225.551      517.555       62.903        0.903        0.040      130.742        5.985        0.002      331.595       -0.289      869.479
11/26/2013  02:54:00     -100.537      -34.581      -10.378       15.388       14.003       10.482      236.796      196.075      109.879        0.598        0.027      106.318        5.278        0.002      331.573       -0.325      869.489
11/26/2013  02:55:00      -91.826      -28.476       -9.412       13.963       13.615        8.626      194.974      185.357       74.413        0.489        0.023       96.140        6.829        0.005      331.537       -0.384      869.484
11/26/2013  02:56:00      -99.834      -33.163      -10.280       16.172       12.225       12.193      261.528      149.453      148.668        0.587        0.028      105.198        9.752        0.009      331.548       -0.367      869.470
11/26/2013  02:57:00     -108.643      -25.492      -13.605       14.769       14.626       11.320      218.114      213.926      128.132        0.660        0.028      111.594        6.741        0.004      331.561       -0.345      869.456
11/26/2013  02:58:00      -97.493      -22.965       -3.000       28.542       14.928       12.773      814.665      222.835      163.162        0.562        0.060      100.161       15.042        0.023      331.526       -0.403      869.454
11/26/2013  02:59:00      -53.099      -25.651        0.710       19.668       15.973       11.521      386.817      255.151      132.738        0.213        0.039       58.970        7.678        0.017      331.557       -0.352      869.454
11/26/2013  03:00:00      -80.069      -14.727       -4.419       29.375       22.168       17.211      862.911      491.420      296.228        0.415        0.083       81.412       16.389        0.041      331.524       -0.405      869.452
11/26/2013  03:01:00     -102.959      -11.232      -10.449       23.018       12.991       11.423      529.819      168.779      130.485        0.583        0.041      103.570       11.740        0.013      331.521       -0.411      869.459
11/26/2013  03:02:00     -119.002      -14.561      -14.950       16.307       11.937       10.393      265.912      142.498      108.024        0.756        0.026      119.890        7.249        0.004      331.547       -0.368      869.461
11/26/2013  03:03:00      -92.014       -9.705       -1.942       27.169       16.157       16.086      738.147      261.054      258.773        0.491        0.063       92.525       14.756        0.025      331.449       -0.529      869.478
11/26/2013  03:04:00      -81.388      -26.385        1.775       25.952       18.081       13.648      673.521      326.908      186.267        0.425        0.059       85.558       14.111        0.027      331.440       -0.543      869.498
11/26/2013  03:05:00     -110.861      -35.720       -4.280       34.790       18.721       14.940     1210.355      350.487      223.202        0.768        0.089      116.473       17.774        0.023      331.492       -0.458      869.515
11/26/2013  03:06:00     -121.480      -32.771       -5.930       31.274       23.501       16.103      978.066      552.302      259.300        0.883        0.089      125.823       12.332        0.010      331.411       -0.591      869.523
11/26/2013  03:07:00     -124.462      -41.228       -9.823       32.217       26.285       14.425     1037.959      690.909      208.076        0.961        0.097      131.113       10.396        0.006      331.451       -0.526      869.527
11/26/2013  03:08:00     -129.942      -33.440      -10.448       28.094       17.417       18.072      789.249      303.336      326.586        0.977        0.071      134.176       17.625        0.017      331.437       -0.550      869.521
11/26/2013  03:09:00     -139.620      -22.684      -19.221       27.157       22.109       15.101      737.528      488.824      228.026        1.092        0.073      141.450       12.444        0.008      331.377       -0.647      869.516
11/26/2013  03:10:00     -119.010      -44.571      -10.002       31.352       24.822       18.767      982.924      616.147      352.197        0.910        0.098      127.083       12.253        0.009      331.368       -0.663      869.508
11/26/2013  03:11:00     -114.365      -33.970      -14.151       14.637       15.487       10.522      214.244      239.845      110.711        0.750        0.028      119.304        5.581        0.002      331.367       -0.664      869.505
11/26/2013  03:12:00     -128.037      -18.030      -20.782        7.153        9.963        5.882       51.172       99.260       34.598        0.867        0.009      129.301        3.121        0.001      331.384       -0.635      869.488
11/26/2013  03:13:00     -104.028      -37.137      -15.480        9.930       13.753       11.120       98.601      189.145      123.659        0.643        0.021      110.458        3.092        0.001      331.351       -0.690      869.491
11/26/2013  03:14:00     -113.560      -41.819      -14.205       15.312       15.665       10.668      234.471      245.378      113.800        0.772        0.030      121.015        7.634        0.004      331.357       -0.679      869.490
11/26/2013  03:15:00      -75.085      -43.333      -18.586       25.184       19.395       18.716      634.216      376.163      350.274        0.461        0.068       86.692       13.318        0.024      331.372       -0.655      869.493
11/26/2013  03:16:00      -80.684      -40.427       -9.760       14.530       16.959       10.408      211.133      287.607      108.317        0.442        0.030       90.246        7.545        0.007      331.339       -0.709      869.495
11/26/2013  03:17:00      -77.690      -20.940      -10.035       20.148       23.753       12.598      405.961      564.197      158.721        0.385        0.056       80.462        6.924        0.007      331.362       -0.673      869.493
11/26/2013  03:18:00     -106.333       -8.231      -17.839       19.543       11.179        8.798      381.927      124.966       77.407        0.614        0.029      106.651        9.204        0.007      331.383       -0.637      869.484
11/26/2013  03:19:00      -96.201       -9.880      -16.392       18.194       12.380       12.245      331.008      153.267      149.933        0.513        0.032       96.707        9.005        0.009      331.320       -0.740      869.472
11/26/2013  03:20:00      -49.140       -1.754       -5.593       12.038        9.493       11.549      144.922       90.113      133.372        0.141        0.018       49.171        6.720        0.019      331.263       -0.833      869.466
11/26/2013  03:21:00       -1.508        0.889        4.034       16.267        7.746        8.545      264.617       60.003       73.018        0.021        0.020        1.751       10.630       36.866      331.514       -0.422      869.464
11/26/2013  03:22:00        4.051       32.152       -2.251        5.245       10.297        4.684       27.511      106.038       21.939        0.061        0.008       32.406        2.122        0.004      331.882        0.184      869.466
11/26/2013  03:23:00      -26.083      -23.303       -2.150       12.052       27.623       10.824      145.256      763.042      117.149        0.113        0.051       34.977        5.216        0.022      331.618       -0.251      869.467
11/26/2013  03:24:00      -55.389      -24.767       -2.970       17.653        9.032       11.144      311.643       81.579      124.196        0.210        0.026       60.674        4.441        0.005      331.252       -0.851      869.459
11/26/2013  03:25:00      -76.421      -29.700      -14.134       10.031       11.294        8.917      100.626      127.565       79.505        0.361        0.015       81.989        7.308        0.008      331.227       -0.892      869.452
11/26/2013  03:26:00      -76.061      -26.033       -8.487       13.713       14.472       10.354      188.050      209.438      107.207        0.352        0.025       80.393        4.673        0.003      331.229       -0.891      869.444
11/26/2013  03:27:00      -72.035      -26.170      -10.928       19.730       12.980       12.870      389.257      168.468      165.628        0.336        0.036       76.641        8.939        0.014      331.233       -0.884      869.448
11/26/2013  03:28:00      -47.905      -35.698       -9.121       19.413       15.928       13.655      376.850      253.703      186.471        0.223        0.041       59.744        5.466        0.008      331.203       -0.934      869.443
11/26/2013  03:29:00      -64.063      -37.966      -11.155       19.256       15.435       10.038      370.811      238.253      100.765        0.319        0.035       74.468        7.049        0.009      331.158       -1.009      869.437
11/26/2013  03:30:00      -86.428      -35.232      -17.086       15.005       11.663        8.801      225.146      136.031       77.454        0.472        0.022       93.333        7.349        0.006      331.176       -0.977      869.421
11/26/2013  03:31:00      -96.023      -15.712      -14.231       10.309       11.568       10.203      106.283      133.817      104.095        0.501        0.017       97.300        4.056        0.002      331.158       -1.006      869.392
11/26/2013  03:32:00      -86.728      -10.188      -13.886       15.195       15.425       11.393      230.894      237.931      129.807        0.421        0.030       87.325        8.364        0.009      331.180       -0.969      869.379
11/26/2013  03:33:00      -82.359      -14.173      -13.332        8.482       12.771        8.563       71.952      163.110       73.329        0.373        0.015       83.569        5.539        0.004      331.217       -0.911      869.375
11/26/2013  03:34:00      -97.463      -44.868      -11.178       11.667        9.193        6.182      136.129       84.507       38.215        0.595        0.013      107.295        4.904        0.002      331.291       -0.787      869.368
11/26/2013  03:35:00      -91.491      -18.949       -6.168       25.681       19.929       14.518      659.490      397.166      210.765        0.502        0.063       93.433       13.832        0.022      331.270       -0.821      869.369
11/26/2013  03:36:00      -99.208      -28.304       -8.918       17.960       15.038       10.867      322.575      226.137      118.089        0.569        0.033      103.166        6.741        0.004      331.281       -0.804      869.378
11/26/2013  03:37:00      -95.014      -27.880       -8.858       16.723        9.387        9.632      279.668       88.123       92.771        0.517        0.023       99.020        9.248        0.009      331.286       -0.796      869.376
11/26/2013  03:38:00      -91.348      -31.672       -4.379       14.741       14.294       11.583      217.299      204.310      134.174        0.496        0.028       96.683        8.724        0.008      331.215       -0.912      869.371
11/26/2013  03:39:00      -80.618      -40.918       -4.698       15.789       18.147        8.544      249.291      329.306       73.002        0.442        0.033       90.407        6.220        0.005      331.279       -0.808      869.365
11/26/2013  03:40:00      -61.717      -22.861       -6.091       12.742       13.509        9.462      162.357      182.502       89.527        0.240        0.022       65.816        8.561        0.017      331.321       -0.739      869.356
11/26/2013  03:41:00      -48.168      -19.519       -3.585       12.985        8.859        9.996      168.615       78.483       99.919        0.153        0.017       51.973        8.640        0.028      331.324       -0.735      869.344
11/26/2013  03:42:00      -58.354      -15.754       -8.113        7.132        7.591        6.270       50.868       57.618       39.317        0.193        0.007       60.443        2.219        0.001      331.434       -0.554      869.335
11/26/2013  03:43:00      -51.063      -31.353       -9.857        9.514       10.551        6.976       90.507      111.315       48.658        0.197        0.013       59.920        4.973        0.007      331.376       -0.649      869.334
11/26/2013  03:44:00      -53.198      -30.115       -6.644       12.450        8.357        7.895      154.991       69.847       62.338        0.203        0.014       61.131        4.582        0.006      331.396       -0.617      869.341
11/26/2013  03:45:00      -57.483      -34.341       -4.235       15.857       12.297        8.451      251.430      151.221       71.412        0.249        0.024       66.959        5.401        0.007      331.346       -0.697      869.353
11/26/2013  03:46:00      -68.278      -24.125       -7.427       12.571       10.469        7.554      158.042      109.602       57.055        0.281        0.016       72.415        5.455        0.006      331.327       -0.729      869.369
11/26/2013  03:47:00      -87.432      -31.957       -7.828       12.487        9.899        6.648      155.926       97.983       44.195        0.451        0.015       93.089        4.016        0.002      331.313       -0.753      869.386
11/26/2013  03:48:00     -103.686      -28.724      -10.618       12.788       14.342        9.481      163.523      205.705       89.897        0.607        0.023      107.591        5.485        0.003      331.283       -0.802      869.398
11/26/2013  03:49:00      -98.172      -22.768       -1.913       24.353       15.329       12.856      593.065      234.978      165.276        0.558        0.050      100.778       10.372        0.011      331.265       -0.830      869.415
11/26/2013  03:50:00     -104.621      -29.717       -6.193       31.301       22.691       14.316      979.733      514.869      204.943        0.678        0.085      108.760       14.947        0.019      331.273       -0.817      869.416
11/26/2013  03:51:00     -108.832      -15.800      -10.675       19.661       14.718       11.559      386.567      216.613      133.612        0.647        0.037      109.973        9.518        0.007      331.193       -0.950      869.412
11/26/2013  03:52:00      -99.139      -28.106       -3.276       24.985       15.809       10.400      624.237      249.935      108.163        0.581        0.049      103.047       13.284        0.017      331.232       -0.885      869.408
11/26/2013  03:53:00     -111.618      -16.326      -14.472       14.186       16.018       10.552      201.236      256.575      111.338        0.675        0.028      112.806        7.264        0.004      331.220       -0.905      869.385
11/26/2013  03:54:00     -113.743      -17.194       -9.998       18.590       15.606       15.022      345.585      243.561      225.648        0.707        0.041      115.035       12.011        0.011      331.155       -1.012      869.367
11/26/2013  03:55:00      -85.271      -20.861       -0.951       34.652       26.096       23.466     1200.732      681.026      550.658        0.507        0.122       87.785       23.489        0.072      331.098       -1.105      869.362
11/26/2013  03:56:00      -93.773      -36.049       -7.605       21.560       24.769       14.088      464.818      613.486      198.461        0.571        0.064      100.463       10.350        0.011      331.072       -1.149      869.367
11/26/2013  03:57:00     -120.250      -24.837      -13.088       31.862       24.995       17.757     1015.203      624.731      315.299        0.860        0.098      122.788       14.554        0.014      331.064       -1.163      869.378
11/26/2013  03:58:00     -109.845      -19.195      -10.082       22.615       18.116       14.434      511.440      328.179      208.340        0.679        0.052      111.509       12.435        0.012      331.043       -1.197      869.384
11/26/2013  03:59:00      -80.695      -21.900       -6.184       23.301       14.166       12.620      542.943      200.681      159.267        0.397        0.045       83.614       12.850        0.024      331.090       -1.119      869.377
11/26/2013  04:00:00     -106.910      -18.575      -15.900       10.595        8.325        8.286      112.247       69.299       68.663        0.614        0.013      108.512        6.147        0.003      331.148       -1.023      869.377
11/26/2013  04:01:00      -99.596      -27.783      -14.409        9.994       15.098       10.502       99.889      227.954      110.284        0.567        0.022      103.399        5.709        0.003      331.158       -1.008      869.362
11/26/2013  04:02:00      -93.069      -10.449      -11.869       12.881       14.567       10.195      165.917      212.187      103.931        0.470        0.024       93.654        7.215        0.006      331.128       -1.055      869.344
11/26/2013  04:03:00      -77.608       -6.586      -13.215       17.409       10.133        9.806      303.084      102.677       96.158        0.337        0.025       77.887        5.014        0.004      331.088       -1.123      869.329
11/26/2013  04:04:00      -76.359      -13.982       -7.817       23.058       12.659       11.074      531.650      160.263      122.634        0.345        0.041       77.629       10.628        0.019      331.052       -1.185      869.322
11/26/2013  04:05:00      -87.288      -25.026       -9.716       10.876        9.411        7.253      118.286       88.568       52.613        0.430        0.013       90.804        4.213        0.002      331.080       -1.136      869.323
11/26/2013  04:06:00      -76.811      -16.808       -7.892       11.688       10.722        8.741      136.600      114.964       76.413        0.329        0.016       78.628        5.554        0.005      331.068       -1.156      869.329
11/26/2013  04:07:00      -88.474       -5.239      -15.653       10.516        9.572        7.252      110.596       91.619       52.588        0.418        0.013       88.629        3.755        0.002      331.036       -1.208      869.334
11/26/2013  04:08:00      -79.486       -6.373       -7.211        9.198        8.227        7.911       84.597       67.680       62.586        0.331        0.011       79.741        4.428        0.003      330.968       -1.320      869.329
11/26/2013  04:09:00      -58.932       -1.896       -7.429       14.647        8.604        9.942      214.546       74.033       98.846        0.196        0.019       58.963        7.294        0.015      330.954       -1.341      869.331
11/26/2013  04:10:00      -47.560      -15.031       -5.405       13.241       10.154        8.526      175.336      103.097       72.685        0.143        0.018       49.879        6.912        0.019      330.992       -1.283      869.325
11/26/2013  04:11:00       -4.006      -10.428        1.079       17.512       17.139        9.650      306.677      293.746       93.124        0.041        0.035       11.171       11.009        0.971      331.116       -1.077      869.319
11/26/2013  04:12:00       33.051       36.829       19.292       11.763       10.218        9.804      138.360      104.409       96.111        0.158        0.017       49.484        5.763        0.014      331.172       -0.983      869.327
11/26/2013  04:13:00       23.581       16.452       13.024        6.751        5.839        7.620       45.579       34.091       58.069        0.057        0.007       28.753        4.191        0.021      331.133       -1.050      869.330
11/26/2013  04:14:00        7.750        5.228        8.184        7.186        8.078        7.145       51.645       65.253       51.056        0.016        0.008        9.348        2.731        0.085      331.196       -0.944      869.332
11/26/2013  04:15:00        6.226       -5.425        5.955        5.570        6.158        4.767       31.030       37.917       22.720        0.010        0.005        8.258        1.969        0.057      331.233       -0.883      869.335
11/26/2013  04:16:00       17.239        4.822        6.343        8.826        9.886        9.119       77.895       97.730       83.152        0.031        0.013       17.901        5.993        0.112      331.259       -0.840      869.329
11/26/2013  04:17:00       32.642       12.759        9.533        8.617        9.297        9.060       74.259       86.431       82.085        0.078        0.012       35.047        4.518        0.017      331.244       -0.866      869.317
11/26/2013  04:18:00       20.423       -3.568        0.630        9.146       10.203        7.181       83.649      104.111       51.562        0.033        0.012       20.732        4.912        0.056      331.251       -0.853      869.315
11/26/2013  04:19:00        4.618       -0.502        6.817        6.998        4.889        4.209       48.970       23.902       17.716        0.008        0.005        4.645        3.686        0.630      331.206       -0.929      869.304
11/26/2013  04:20:00       15.824        1.101        6.959        8.496        9.246       10.188       72.185       85.492      103.785        0.028        0.013       15.862        6.534        0.170      331.304       -0.765      869.301
11/26/2013  04:21:00       33.682       10.366       16.603       19.559       12.874       13.377      382.568      165.752      178.947        0.112        0.036       35.241       13.947        0.157      331.291       -0.788      869.300
11/26/2013  04:22:00        3.124       -1.744       11.134        9.333       14.687       10.103       87.114      215.698      102.061        0.027        0.020        3.578        7.479        4.369      331.256       -0.845      869.304
11/26/2013  04:23:00      -17.693      -28.830        1.303       14.597       10.754        7.921      213.079      115.650       62.748        0.077        0.020       33.826        4.388        0.017      331.278       -0.809      869.319
11/26/2013  04:24:00      -48.586       -6.414       -9.850        8.864        6.183        4.884       78.566       38.233       23.849        0.132        0.007       49.008        2.725        0.003      331.018       -1.238      869.327
11/26/2013  04:25:00      -42.404       -2.528       -6.541        8.086        8.402        7.266       65.384       70.590       52.795        0.102        0.009       42.479        6.155        0.021      331.004       -1.261      869.320
11/26/2013  04:26:00      -42.218        1.941       -9.681        8.387        6.673        6.024       70.337       44.534       36.283        0.102        0.008       42.262        5.802        0.019      331.147       -1.025      869.321
11/26/2013  04:27:00      -33.923       -2.260       -8.073        7.311        6.647        7.085       53.446       44.184       50.195        0.068        0.007       33.998        3.622        0.011      331.184       -0.963      869.320
11/26/2013  04:28:00      -48.317        4.304       -7.139       10.380        4.849        5.314      107.752       23.512       28.240        0.128        0.008       48.508        1.973        0.002      331.167       -0.993      869.317
11/26/2013  04:29:00      -48.260        0.693       -6.170        5.333        4.119        4.802       28.438       16.963       23.062        0.122        0.003       48.265        1.366        0.001      331.221       -0.903      869.311
11/26/2013  04:30:00      -52.547        1.080       -4.966        5.597        5.778        3.268       31.330       33.382       10.681        0.143        0.004       52.558        2.146        0.002      331.268       -0.827      869.304
11/26/2013  04:31:00      -31.563       10.903       -5.573        5.824        4.849        4.282       33.923       23.511       18.338        0.061        0.004       33.393        2.909        0.008      331.233       -0.884      869.302
11/26/2013  04:32:00      -19.406        2.297       -1.685        4.547        4.234        2.642       20.679       17.929        6.979        0.022        0.002       19.542        1.465        0.006      331.249       -0.858      869.291
11/26/2013  04:33:00       -5.254       -1.747        4.054        9.645        4.785        5.836       93.027       22.900       34.055        0.010        0.007        5.537        6.561        1.404      331.182       -0.969      869.277
11/26/2013  04:34:00       17.986       13.534        0.897       11.116       13.804        7.808      123.573      190.557       60.969        0.044        0.019       22.509        7.823        0.121      331.257       -0.844      869.257
11/26/2013  04:35:00        9.742        6.435        2.095       10.090        9.774        8.832      101.799       95.526       78.010        0.021        0.014       11.676        5.102        0.191      331.203       -0.934      869.246
11/26/2013  04:36:00        3.163       -2.018        0.575        5.073        5.485        3.933       25.738       30.090       15.469        0.004        0.004        3.751        3.611        0.926      331.193       -0.950      869.237
11/26/2013  04:37:00      -18.904       -2.185       -1.683       21.963        8.374        6.292      482.374       70.122       39.588        0.048        0.030       19.030        9.533        0.251      331.149       -1.023      869.239
11/26/2013  04:38:00      -45.048        2.229       -5.744       15.595       11.180       10.898      243.193      124.992      118.764        0.128        0.024       45.104        6.817        0.023      330.862       -1.491      869.238
11/26/2013  04:39:00      -67.232        6.370      -13.098       14.526        8.939        7.941      210.996       79.901       63.066        0.254        0.018       67.533        3.902        0.003      330.863       -1.492      869.229
11/26/2013  04:40:00      -75.656        4.832      -13.077       16.699       13.717        9.168      278.862      188.148       84.053        0.323        0.028       75.810        5.231        0.005      330.802       -1.593      869.215
11/26/2013  04:41:00      -72.542      -13.880      -10.840       17.546       10.087        8.103      307.856      101.755       65.658        0.302        0.024       73.858        8.028        0.012      330.801       -1.594      869.208
11/26/2013  04:42:00     -103.229       -6.701      -14.922       20.705       10.513       10.863      428.679      110.517      118.015        0.579        0.033      103.446        9.214        0.008      330.660       -1.824      869.221
11/26/2013  04:43:00      -93.662       -9.335      -13.419       23.198       17.401       16.279      538.149      302.788      264.992        0.507        0.055       94.126       14.448        0.024      330.634       -1.868      869.207
11/26/2013  04:44:00      -83.086       -4.806       -5.914       30.188       22.428       15.957      911.323      503.001      254.625        0.431        0.083       83.224       16.054        0.037      330.668       -1.811      869.209
11/26/2013  04:45:00      -74.346       -0.008       -9.900       19.796       19.101       11.313      391.893      364.853      127.975        0.325        0.044       74.346        8.374        0.013      330.699       -1.760      869.220
11/26/2013  04:46:00      -54.682      -12.669      -17.511       12.231       11.128        9.048      149.586      123.822       81.871        0.191        0.018       56.130        3.620        0.004      330.801       -1.593      869.226
11/26/2013  04:47:00      -33.974      -31.913      -14.434       11.820       10.646       10.008      139.719      113.336      100.169        0.137        0.018       46.611        5.456        0.014      330.923       -1.395      869.226
11/26/2013  04:48:00      -15.543      -13.262       -7.650       10.659        4.915       10.034      113.618       24.158      100.679        0.036        0.012       20.431        8.890        0.189      331.028       -1.222      869.232
11/26/2013  04:49:00      -24.089      -11.311       -8.052       15.585       11.030       10.259      242.880      121.651      105.237        0.062        0.023       26.612        5.252        0.039      331.116       -1.077      869.233
11/26/2013  04:50:00      -47.450      -20.812       -6.879        9.648        9.836        7.411       93.080       96.746       54.922        0.149        0.012       51.813        3.647        0.005      330.956       -1.338      869.245
11/26/2013  04:51:00      -59.359      -14.331       -8.359        8.905       10.334        5.615       79.304      106.781       31.524        0.201        0.011       61.064        3.621        0.004      330.826       -1.553      869.255
11/26/2013  04:52:00      -54.878        6.634       -9.746       14.348       10.615       10.367      205.866      112.685      107.469        0.179        0.021       55.277        7.237        0.017      330.842       -1.527      869.259
11/26/2013  04:53:00      -10.804        8.582       -1.923       11.315        7.570        6.237      128.039       57.303       38.902        0.021        0.011       13.798        3.799        0.076      331.179       -0.972      869.246
11/26/2013  04:54:00       -6.775       53.731       -8.264       10.762       13.006        5.950      115.819      169.165       35.404        0.166        0.016       54.156        4.512        0.007      331.297       -0.779      869.220
11/26/2013  04:55:00      -13.672       63.494      -16.591       24.252       33.842       10.486      588.175     1145.261      109.952        0.317        0.092       64.949        9.294        0.020      331.194       -0.947      869.211
11/26/2013  04:56:00      -50.033      -20.334       -9.667       12.274       12.058        6.971      150.647      145.386       48.596        0.168        0.017       54.007        2.131        0.002      330.931       -1.382      869.217
11/26/2013  04:57:00      -75.769      -24.162      -16.730       12.338       12.977        9.388      152.217      168.392       88.137        0.351        0.020       79.528        7.799        0.010      330.733       -1.704      869.228
11/26/2013  04:58:00      -87.218       -3.726      -18.099       18.203       15.260       14.563      331.344      232.870      212.070        0.436        0.039       87.298       11.516        0.017      330.612       -1.902      869.219
11/26/2013  04:59:00      -71.089       -6.824      -14.285       21.956       10.649       12.039      482.084      113.402      144.946        0.302        0.037       71.416       11.184        0.025      330.683       -1.787      869.188
11/26/2013  05:00:00      -46.023       -5.665       -4.760       13.110       10.591       10.615      171.862      112.178      112.678        0.128        0.020       46.371        9.696        0.044      330.824       -1.556      869.161
11/26/2013  05:01:00       -7.681       -5.209        3.935       11.393        8.184        9.807      129.808       66.972       96.174        0.020        0.015        9.281        4.581        0.244      330.954       -1.342      869.157
11/26/2013  05:02:00      -24.170      -11.405       -7.377       11.448        7.390        7.717      131.064       54.612       59.550        0.051        0.012       26.726        5.682        0.045      330.944       -1.357      869.154
11/26/2013  05:03:00      -50.831      -18.064      -12.147       15.404       13.864        7.850      237.289      192.209       61.620        0.177        0.025       53.945        8.198        0.023      330.787       -1.618      869.144
11/26/2013  05:04:00      -81.688      -29.482      -12.196       15.366       11.030        8.090      236.110      121.659       65.448        0.406        0.021       86.845        2.288        0.001      330.700       -1.758      869.147
11/26/2013  05:05:00      -71.112      -19.863       -8.570       12.006       15.882        9.834      144.133      252.227       96.705        0.301        0.025       73.834        7.539        0.010      330.653       -1.836      869.149
11/26/2013  05:06:00      -48.273       -4.251       -7.957       15.560        8.236        6.146      242.120       67.830       37.778        0.138        0.017       48.460        6.458        0.018      330.831       -1.543      869.153
11/26/2013  05:07:00      -13.210       12.648       -4.204       13.676       10.142        7.816      187.045      102.870       61.097        0.035        0.018       18.289        6.840        0.140      331.305       -0.766      869.146
11/26/2013  05:08:00       -7.927       30.145      -14.984       22.532       29.266        7.768      507.672      856.500       60.346        0.131        0.071       31.170       12.013        0.149      331.413       -0.588      869.149
11/26/2013  05:09:00      -62.667      -21.901       -8.380       10.486        6.499        5.484      109.956       42.234       30.069        0.233        0.009       66.383        1.976        0.001      330.858       -1.500      869.148
11/26/2013  05:10:00     -103.139       -9.493      -17.445       15.082       10.753        9.930      227.464      115.632       98.608        0.574        0.022      103.575        1.516        0.000      330.693       -1.770      869.137
11/26/2013  05:11:00      -66.873      -16.921      -11.287       16.903       15.696       12.133      285.712      246.371      147.201        0.278        0.034       68.981        9.812        0.020      330.670       -1.809      869.122
11/26/2013  05:12:00      -57.596      -14.286       -9.403       10.510       10.301        6.250      110.453      106.116       39.060        0.193        0.013       59.342        4.960        0.007      330.745       -1.685      869.109
11/26/2013  05:13:00      -41.407      -24.972      -12.644       11.810       14.268       10.014      139.478      203.569      100.270        0.147        0.022       48.355        6.654        0.019      330.788       -1.616      869.093
11/26/2013  05:14:00      -49.881      -16.392       -4.919       14.490       15.472       11.740      209.955      239.369      137.836        0.168        0.029       52.505       10.307        0.039      330.782       -1.627      869.088
11/26/2013  05:15:00      -51.096      -23.728       -2.633       14.247       16.644       15.152      202.983      277.026      229.569        0.195        0.035       56.337        9.061        0.026      330.711       -1.741      869.091
11/26/2013  05:16:00      -86.463       -8.290      -13.680       11.534       10.117        9.557      133.031      102.351       91.340        0.403        0.016       86.860        6.260        0.005      330.724       -1.720      869.086
11/26/2013  05:17:00      -91.495      -10.954      -13.777       11.214       11.633        9.181      125.750      135.318       84.284        0.451        0.017       92.148        5.225        0.003      330.671       -1.806      869.086
11/26/2013  05:18:00     -114.025      -23.146      -19.018       17.697       13.613       11.643      313.187      185.325      135.565        0.727        0.032      116.351        7.002        0.004      330.608       -1.909      869.092
11/26/2013  05:19:00     -121.167      -12.533      -15.182       16.345       16.609       15.478      267.162      275.854      239.580        0.793        0.039      121.813       10.888        0.008      330.532       -2.036      869.090
11/26/2013  05:20:00      -86.839      -30.168      -14.820       18.928       14.345       12.389      358.276      205.780      153.479        0.469        0.036       91.930       10.708        0.014      330.562       -1.985      869.088
11/26/2013  05:21:00     -106.545      -17.950      -19.533       14.845       13.226       11.308      220.375      174.938      127.872        0.629        0.026      108.046        7.311        0.005      330.601       -1.922      869.085
11/26/2013  05:22:00     -110.201      -31.831      -22.705       17.233       18.561       14.200      296.969      344.527      201.641        0.726        0.042      114.706        8.203        0.005      330.616       -1.896      869.099
11/26/2013  05:23:00      -95.890      -47.077      -16.702       20.893       19.597       13.681      436.537      384.059      187.183        0.635        0.050      106.823       10.665        0.010      330.581       -1.954      869.108
11/26/2013  05:24:00      -55.699      -24.379       -8.242       23.540       20.105       13.669      554.120      404.205      186.848        0.245        0.057       60.800       11.801        0.038      330.570       -1.973      869.105
11/26/2013  05:25:00      -45.583      -28.484       -4.112       24.933       14.756       11.680      621.675      217.731      136.425        0.194        0.049       53.751        8.323        0.024      330.762       -1.659      869.095
11/26/2013  05:26:00      -97.999       -2.551      -13.060       11.896       14.358        8.227      141.526      206.141       67.685        0.510        0.021       98.032        5.254        0.003      330.822       -1.559      869.091
11/26/2013  05:27:00      -89.202      -23.712       -9.361       17.618       12.701       10.965      310.394      161.314      120.224        0.460        0.030       92.300        7.511        0.007      330.751       -1.678      869.097
11/26/2013  05:28:00      -91.300      -27.838       -9.544       15.665       15.690       13.897      245.403      246.165      193.125        0.494        0.034       95.449       11.546        0.015      330.792       -1.609      869.115
11/26/2013  05:29:00     -103.370      -25.735      -11.901       18.858       20.996       14.841      355.629      440.851      220.241        0.625        0.051      106.526        8.623        0.007      330.691       -1.773      869.105
11/26/2013  05:30:00      -76.050      -29.030      -13.042       25.753       21.041       14.764      663.211      442.709      217.986        0.406        0.066       81.403       14.969        0.034      330.695       -1.767      869.091
11/26/2013  05:31:00      -80.536      -29.579      -11.677       18.501       20.270       14.529      342.287      410.856      211.089        0.423        0.048       85.796        6.243        0.005      330.689       -1.776      869.091
11/26/2013  05:32:00     -110.255      -40.072      -12.541       19.683       24.329       15.245      387.417      591.881      232.421        0.757        0.061      117.311        7.036        0.004      330.628       -1.878      869.118
11/26/2013  05:33:00     -103.410      -25.139       -4.559       38.550       19.596       21.366     1486.095      383.984      456.495        0.684        0.116      106.422       22.684        0.045      330.579       -1.957      869.133
11/26/2013  05:34:00      -91.074      -33.809       -2.476       37.201       26.892       18.072     1383.926      723.181      326.596        0.594        0.122       97.147       18.939        0.038      330.581       -1.955      869.141
11/26/2013  05:35:00      -61.929      -22.423        6.270       27.465       24.922       19.953      754.337      621.121      398.115        0.308        0.089       65.863       16.037        0.059      330.663       -1.821      869.152
11/26/2013  05:36:00      -91.857      -43.539       -5.271       27.239       29.032       15.618      741.968      842.884      243.931        0.609        0.091      101.653       10.970        0.012      330.658       -1.828      869.154
11/26/2013  05:37:00     -121.094      -20.817      -19.119       22.769       15.235       12.938      518.435      232.118      167.380        0.819        0.046      122.870        9.867        0.006      330.697       -1.764      869.157
11/26/2013  05:38:00      -76.090       -6.689       -0.507       37.815       19.709       20.709     1429.965      388.447      428.852        0.404        0.112       76.383       22.605        0.088      330.692       -1.772      869.153
11/26/2013  05:39:00      -98.884      -19.703       -3.040       25.472       19.196       17.608      648.840      368.470      310.056        0.575        0.066      100.828       10.624        0.011      330.709       -1.744      869.139
11/26/2013  05:40:00     -120.136      -43.941       -3.316       26.742       25.402       16.612      715.137      645.249      275.962        0.901        0.082      127.920       13.588        0.011      330.723       -1.723      869.128
11/26/2013  05:41:00     -130.193      -56.733       -6.889       32.648       25.421       22.068     1065.924      646.215      487.015        1.121        0.110      142.017       20.748        0.021      330.582       -1.953      869.124
11/26/2013  05:42:00      -65.000       -7.396       -1.022       39.621       35.808       21.684     1569.820     1282.187      470.210        0.380        0.166       65.419       21.104        0.104      330.562       -1.985      869.121
11/26/2013  05:43:00     -113.619        8.952        0.119       43.816       55.962       30.410     1919.830     3131.731      924.772        0.948        0.299      113.971       25.888        0.052      330.681       -1.791      869.108
11/26/2013  05:44:00     -138.503      -16.726      -10.982       44.795       39.462       25.648     2006.616     1557.262      657.804        1.190        0.211      139.510       24.916        0.032      330.677       -1.798      869.103
11/26/2013  05:45:00      -95.034      -17.375       -3.818       48.363       43.503       25.087     2338.953     1892.506      629.358        0.710        0.243       96.609       16.754        0.030      330.610       -1.907      869.104
11/26/2013  05:46:00     -157.522       -2.067      -21.294       25.106       33.224       16.560      630.290     1103.809      274.239        1.364        0.100      157.536       15.205        0.009      330.615       -1.898      869.110
11/26/2013  05:47:00     -150.761       14.540      -15.618       39.211       29.996       20.798     1537.490      899.755      432.551        1.303        0.143      151.460       16.910        0.012      330.588       -1.942      869.116
11/26/2013  05:48:00     -158.781       17.288      -14.899       28.345       22.871       18.608      803.448      523.088      346.254        1.370        0.084      159.719       12.607        0.006      330.606       -1.914      869.113
11/26/2013  05:49:00     -150.311        9.724      -14.609       27.896       27.934       15.960      778.197      780.335      254.720        1.236        0.091      150.625       11.556        0.006      330.625       -1.881      869.111
11/26/2013  05:50:00     -104.423      -13.577       -8.202       51.135       32.337       17.285     2614.754     1045.667      298.767        0.756        0.198      105.302       17.029        0.026      330.570       -1.972      869.102
11/26/2013  05:51:00     -112.152        1.699      -15.092       28.226       23.744       19.768      796.731      563.780      390.763        0.728        0.088      112.165       13.541        0.015      330.546       -2.012      869.108
11/26/2013  05:52:00     -106.840        1.103       -8.362       49.363       31.509       26.252     2436.691      992.790      689.190        0.780        0.206      106.846       24.556        0.053      330.490       -2.103      869.130
11/26/2013  05:53:00      -73.186      -12.409        1.593       33.784       36.966       20.724     1141.344     1366.487      429.494        0.422        0.147       74.231       18.039        0.059      330.465       -2.144      869.147
11/26/2013  05:54:00      -85.234      -16.594       -4.337       27.958       26.520       15.728      781.650      703.334      247.382        0.465        0.087       86.834       12.694        0.021      330.471       -2.134      869.145
11/26/2013  05:55:00      -92.066        4.785       -5.514       42.436       21.965       19.005     1800.855      482.456      361.194        0.559        0.132       92.190       22.572        0.060      330.528       -2.042      869.135
11/26/2013  05:56:00     -113.198       -6.506      -14.151       29.935       24.801       16.034      896.119      615.080      257.089        0.741        0.088      113.385       14.936        0.017      330.607       -1.912      869.115
11/26/2013  05:57:00     -108.401      -23.260       -8.622       28.916       28.284       20.112      836.146      800.009      404.490        0.720        0.102      110.869       14.692        0.018      330.631       -1.872      869.104
11/26/2013  05:58:00     -112.420      -19.400      -14.255       26.821       30.224       17.077      719.374      913.492      291.638        0.757        0.096      114.082       10.874        0.009      330.580       -1.956      869.092
11/26/2013  05:59:00      -78.524       -5.569      -12.584       44.825       31.382       22.345     2009.318      984.809      499.311        0.492        0.175       78.721       23.081        0.086      330.529       -2.041      869.090
11/26/2013  06:00:00      -86.214      -33.336       -6.583       21.500       28.461       18.211      462.248      810.008      331.655        0.510        0.080       92.434       14.668        0.025      330.579       -1.957      869.086
11/26/2013  06:01:00      -73.036      -14.198      -17.178       19.669       24.991       16.440      386.877      624.544      270.269        0.356        0.064       74.403       10.523        0.020      330.579       -1.959      869.087
11/26/2013  06:02:00     -115.109      -14.634      -12.965       41.000       35.089       22.421     1680.978     1231.258      502.679        0.852        0.171      116.036       20.269        0.031      330.661       -1.824      869.096
11/26/2013  06:03:00     -119.749        9.445      -10.465       41.759       36.227       21.023     1743.830     1312.382      441.970        0.902        0.175      120.121       16.537        0.019      330.663       -1.818      869.087
11/26/2013  06:04:00     -118.297       -4.468       -7.180       44.138       32.536       23.146     1948.168     1058.587      535.754        0.880        0.177      118.382       22.794        0.037      330.608       -1.909      869.076
11/26/2013  06:05:00      -87.281      -17.909       -4.528       40.092       39.771       27.388     1607.375     1581.714      750.075        0.595        0.197       89.100       28.359        0.101      330.525       -2.049      869.069
11/26/2013  06:06:00     -126.142       -7.015       -9.508       41.381       28.159       18.979     1712.401      792.935      360.184        0.946        0.143      126.337       17.650        0.020      330.455       -2.160      869.051
11/26/2013  06:07:00      -63.076       -8.448       -5.765       33.038       26.376       22.541     1091.512      695.693      508.075        0.319        0.115       63.639       19.582        0.095      330.500       -2.087      869.037
11/26/2013  06:08:00      -88.036      -32.620       -8.503       20.128       25.428       14.582      405.125      646.596      212.630        0.508        0.063       93.885       12.061        0.017      330.674       -1.802      869.034
11/26/2013  06:09:00      -78.671      -53.639       -5.060       31.555       24.334       14.356      995.738      592.144      206.090        0.544        0.090       95.217       13.933        0.021      330.595       -1.933      869.044
11/26/2013  06:10:00      -89.593      -48.944       -4.502       27.419       26.448       18.372      751.807      699.509      337.526        0.612        0.089      102.090       12.818        0.016      330.514       -2.065      869.041
11/26/2013  06:11:00      -72.739      -42.592      -10.212       20.907       21.336       11.169      437.086      455.235      124.745        0.411        0.051       84.291        6.769        0.006      330.484       -2.114      869.033
11/26/2013  06:12:00      -43.613      -28.379       -3.356       16.542       15.625       12.947      273.646      244.144      167.618        0.170        0.034       52.034       10.949        0.044      330.492       -2.102      869.035
11/26/2013  06:13:00      -51.750      -26.971      -13.785        9.530       14.127       10.391       90.824      199.560      107.973        0.200        0.020       58.357        4.931        0.007      330.615       -1.898      869.043
11/26/2013  06:14:00      -52.096      -28.489      -14.509       11.940       11.909        8.305      142.562      141.827       68.973        0.204        0.018       59.377        6.573        0.012      330.681       -1.790      869.053
11/26/2013  06:15:00      -53.992      -32.712        0.516       18.208       12.925       10.088      331.549      167.044      101.776        0.229        0.030       63.129       10.670        0.029      330.791       -1.609      869.051
11/26/2013  06:16:00       -5.801        0.411        7.978        8.795        7.878        8.549       77.354       62.062       73.088        0.015        0.011        5.815        5.929        1.039      330.670       -1.808      869.043
11/26/2013  06:17:00       -7.137       -4.208       -3.784        7.018        5.555        4.790       49.247       30.854       22.942        0.009        0.005        8.285        2.649        0.102      330.884       -1.457      869.041
11/26/2013  06:18:00      -14.565      -10.340       -1.343        8.480        9.181        6.253       71.918       84.298       39.097        0.026        0.010       17.862        5.728        0.103      330.855       -1.505      869.054
11/26/2013  06:19:00       -0.052        6.042        3.392        9.748        8.792        6.700       95.028       77.305       44.896        0.013        0.011        6.042        5.261        0.758      330.793       -1.605      869.068
11/26/2013  06:20:00       15.395       15.396        3.375        6.896        5.259        5.492       47.561       27.657       30.166        0.030        0.005       21.773        3.480        0.026      330.867       -1.488      869.069
11/26/2013  06:21:00       32.154       20.132        5.235        7.987        8.543        5.632       63.792       72.985       31.724        0.082        0.008       37.937        2.743        0.005      330.938       -1.368      869.062
11/26/2013  06:22:00       25.418        4.674        2.174        9.870        7.982        6.499       97.421       63.712       42.232        0.044        0.010       25.844        4.516        0.031      330.804       -1.589      869.055
11/26/2013  06:23:00       28.556       -3.042        7.294       18.551        8.811        8.486      344.136       77.637       72.004        0.069        0.025       28.718        5.689        0.039      330.878       -1.467      869.060
11/26/2013  06:24:00       20.761       11.483        5.502       16.307        7.838        7.621      265.931       61.438       58.084        0.049        0.019       23.725        8.206        0.120      330.803       -1.589      869.050
11/26/2013  06:25:00       15.516        3.379        0.927        8.215        8.838        7.293       67.492       78.113       53.193        0.023        0.010       15.880        5.599        0.124      330.858       -1.500      869.051
11/26/2013  06:26:00      -23.910       -8.871       -3.033       18.459        7.615        6.537      340.723       57.995       42.733        0.055        0.022       25.503        7.806        0.094      330.776       -1.633      869.055
11/26/2013  06:27:00      -69.958      -11.766       -9.118       16.168       11.292        8.688      261.394      127.504       75.480        0.279        0.023       70.940        7.166        0.010      330.553       -2.000      869.068
11/26/2013  06:28:00      -72.062      -14.484      -11.512       13.258       14.325       11.335      175.781      205.192      128.485        0.302        0.025       73.503        6.843        0.009      330.527       -2.042      869.091
11/26/2013  06:29:00      -87.400       -4.642       -7.037       13.837       10.610        8.982      191.468      112.575       80.683        0.405        0.019       87.523        8.079        0.009      330.480       -2.122      869.112
11/26/2013  06:30:00      -81.593        3.747      -10.890        9.039        8.488        6.161       81.712       72.045       37.959        0.349        0.010       81.679        4.259        0.003      330.536       -2.028      869.126
11/26/2013  06:31:00      -63.601       -3.176       -6.933       16.968        9.632       11.474      287.908       92.769      131.652        0.231        0.026       63.680        8.793        0.019      330.480       -2.119      869.141
11/26/2013  06:32:00      -68.163        2.339      -10.731       13.657        7.320        7.635      186.524       53.578       58.290        0.253        0.015       68.203        5.629        0.007      330.455       -2.161      869.149
11/26/2013  06:33:00      -58.188        1.027       -6.608       10.128        8.431        9.649      102.571       71.077       93.096        0.185        0.013       58.197        4.691        0.006      330.527       -2.044      869.138
11/26/2013  06:34:00      -66.669       -3.721       -7.162       13.030       10.608        8.318      169.772      112.536       69.190        0.243        0.018       66.773        5.978        0.008      330.534       -2.032      869.129
11/26/2013  06:35:00      -60.045       -5.194       -6.229       11.708        6.558        6.757      137.085       43.008       45.660        0.195        0.011       60.270        5.168        0.007      330.534       -2.033      869.123
11/26/2013  06:36:00      -62.041       -4.026       -9.564       12.244        9.683        8.119      149.914       93.766       65.915        0.213        0.015       62.172        6.546        0.011      330.529       -2.041      869.134
11/26/2013  06:37:00      -68.633        5.327      -10.496        7.981        6.054        6.077       63.691       36.653       36.928        0.249        0.007       68.839        2.142        0.001      330.586       -1.946      869.141
11/26/2013  06:38:00      -48.954        8.741       -8.325       10.460        7.818        7.786      109.409       61.115       60.622        0.139        0.012       49.729        6.014        0.015      330.551       -2.004      869.141
11/26/2013  06:39:00      -46.157       16.378       -8.699        6.308        7.135        3.614       39.793       50.902       13.058        0.129        0.005       48.976        1.794        0.001      330.578       -1.961      869.148
11/26/2013  06:40:00      -45.855       13.196       -6.615        6.696        5.302        3.318       44.843       28.115       11.012        0.120        0.004       47.716        2.175        0.002      330.775       -1.637      869.141
11/26/2013  06:41:00      -42.864       -9.020       -6.638        7.606       11.986        5.974       57.857      143.671       35.684        0.110        0.012       43.803        6.138        0.020      330.780       -1.629      869.134
11/26/2013  06:42:00      -46.990      -19.520       -6.391        7.307       11.084        5.896       53.387      122.865       34.758        0.142        0.011       50.883        3.786        0.006      330.735       -1.702      869.137
11/26/2013  06:43:00      -38.424      -13.117       -7.299        6.911        7.194        5.656       47.759       51.750       31.990        0.092        0.007       40.602        2.235        0.003      330.627       -1.879      869.140
11/26/2013  06:44:00      -50.538        0.646       -5.961       11.143        6.781        7.067      124.157       45.981       49.943        0.141        0.011       50.542        1.393        0.001      330.650       -1.840      869.114
11/26/2013  06:45:00      -33.122      -10.564       -1.756        9.225        6.281        2.740       85.103       39.451        7.510        0.067        0.007       34.766        2.312        0.004      330.788       -1.616      869.107
11/26/2013  06:46:00      -19.145       -9.358       -3.426       10.332        7.067        6.622      106.758       49.939       43.848        0.033        0.010       21.310        3.358        0.025      330.804       -1.590      869.114
11/26/2013  06:47:00      -29.533      -19.634      -10.166       14.004        8.654        9.607      196.098       74.887       92.299        0.086        0.018       35.464        5.977        0.028      330.660       -1.825      869.118
11/26/2013  06:48:00      -41.118      -26.653      -11.426       15.586       12.089        9.560      242.909      146.133       91.386        0.151        0.024       49.001        5.808        0.014      330.562       -1.985      869.127
11/26/2013  06:49:00      -57.884      -19.980       -8.099        9.174       10.187        7.542       84.167      103.777       56.885        0.203        0.012       61.235        4.309        0.005      330.566       -1.980      869.124
11/26/2013  06:50:00      -55.958       -9.375      -14.049       11.115        7.151        6.441      123.539       51.131       41.489        0.182        0.011       56.738        5.597        0.010      330.599       -1.925      869.124
11/26/2013  06:51:00      -51.897      -13.955       -8.272        5.098        8.617        6.795       25.990       74.255       46.177        0.155        0.007       53.740        4.199        0.006      330.594       -1.934      869.123
11/26/2013  06:52:00      -53.049      -19.874       -8.681        5.460        8.298        6.428       29.810       68.855       41.321        0.171        0.007       56.650        4.953        0.008      330.557       -1.995      869.128
11/26/2013  06:53:00      -51.021      -19.076       -6.648        7.897        8.994        7.773       62.359       80.895       60.421        0.161        0.010       54.470        3.745        0.005      330.503       -2.082      869.134
11/26/2013  06:54:00      -63.497      -12.124       -7.731        9.736       10.413        8.908       94.784      108.420       79.352        0.226        0.014       64.644        5.210        0.006      330.503       -2.083      869.137
11/26/2013  06:55:00      -81.085       -5.867      -10.904       11.922       10.322        7.439      142.122      106.543       55.335        0.352        0.015       81.297        4.494        0.003      330.456       -2.160      869.138
11/26/2013  06:56:00      -59.582      -11.159       -7.639       13.447       10.088        9.236      180.809      101.762       85.310        0.205        0.018       60.618        5.902        0.009      330.482       -2.117      869.130
11/26/2013  06:57:00      -58.663      -14.150       -8.445       11.274       10.378       11.361      127.100      107.697      129.072        0.204        0.018       60.346        3.572        0.004      330.540       -2.023      869.115
11/26/2013  06:58:00      -57.121      -25.224      -11.059       15.062       11.636       10.391      226.850      135.407      107.964        0.225        0.024       62.442        9.233        0.022      330.602       -1.921      869.104
11/26/2013  06:59:00      -78.449      -11.140       -8.553       17.218       11.438       10.124      296.464      130.826      102.504        0.344        0.026       79.236        7.551        0.009      330.530       -2.039      869.111
11/26/2013  07:00:00      -78.085       -8.206       -9.508       11.225       11.459       10.046      125.993      131.312      100.930        0.331        0.018       78.515        6.338        0.007      330.524       -2.048      869.130
11/26/2013  07:01:00      -69.088       -0.747      -10.610        7.914        7.480        6.726       62.633       55.944       45.243        0.252        0.008       69.092        4.405        0.004      330.644       -1.850      869.150
11/26/2013  07:02:00      -64.659       -6.721      -10.792        9.178        5.587        5.748       84.243       31.213       33.034        0.225        0.007       65.007        2.917        0.002      330.659       -1.827      869.161
11/26/2013  07:03:00      -64.677       -4.457       -5.656       18.516       10.871       11.258      342.845      118.175      126.735        0.241        0.029       64.831        9.033        0.019      330.656       -1.831      869.157
11/26/2013  07:04:00      -80.384       -4.746      -10.206       12.567        9.496       12.188      157.928       90.180      148.538        0.349        0.020       80.524        8.168        0.010      330.632       -1.870      869.157
11/26/2013  07:05:00      -68.083      -10.446      -12.995       12.986       11.041        7.600      168.624      121.912       57.765        0.263        0.017       68.880        3.330        0.002      330.641       -1.856      869.166
11/26/2013  07:06:00      -78.909       -6.469       -7.830        9.834        9.118        8.691       96.712       83.132       75.529        0.329        0.013       79.174        5.961        0.006      330.694       -1.770      869.172
11/26/2013  07:07:00      -56.739      -17.403       -4.155        9.155       10.100        9.219       83.814      102.009       84.997        0.191        0.014       59.348        5.311        0.008      330.740       -1.694      869.183
11/26/2013  07:08:00      -60.034      -26.887       -5.941        8.776       10.305        9.821       77.013      106.201       96.457        0.232        0.014       65.780        5.063        0.006      330.736       -1.702      869.202
11/26/2013  07:09:00      -74.073      -22.237       -5.714       11.718       14.246       11.004      137.315      202.936      121.088        0.324        0.023       77.339        2.334        0.001      330.727       -1.715      869.223
11/26/2013  07:10:00     -102.269      -23.081       -9.449       25.739       14.326       11.492      662.520      205.238      132.075        0.604        0.050      104.841        3.833        0.001      330.658       -1.827      869.241
11/26/2013  07:11:00     -126.729       -7.502      -17.091       19.626       18.609       11.108      385.165      346.292      123.396        0.863        0.043      126.950        5.424        0.002      330.543       -2.016      869.254
11/26/2013  07:12:00      -95.277       -0.062      -12.008       23.257       16.007       12.677      540.884      256.215      160.696        0.509        0.048       95.277       11.193        0.014      330.479       -2.121      869.269
11/26/2013  07:13:00      -96.547        6.435      -10.301       23.154       21.610       21.235      536.112      466.989      450.910        0.546        0.073       96.761       18.691        0.037      330.550       -2.006      869.265
11/26/2013  07:14:00      -81.066      -13.293       -4.445       24.165       15.231       10.310      583.959      231.996      106.295        0.385        0.046       82.149       11.852        0.021      330.649       -1.843      869.264
11/26/2013  07:15:00      -71.032      -18.003       -1.898       20.030       14.936       10.314      401.216      223.084      106.385        0.305        0.037       73.278        8.043        0.012      330.639       -1.858      869.275
11/26/2013  07:16:00      -56.428      -17.095        1.786       20.773       16.101       13.891      431.519      259.254      192.967        0.218        0.044       58.960       13.256        0.051      330.660       -1.824      869.275
11/26/2013  07:17:00      -60.881      -14.986        0.224       23.984       18.569       13.821      575.232      344.808      191.013        0.252        0.056       62.698       11.403        0.033      330.710       -1.743      869.267
11/26/2013  07:18:00      -61.247       -8.108       -4.370       25.209       19.341       12.251      635.511      374.070      150.079        0.250        0.058       61.781        8.969        0.021      330.734       -1.704      869.265
11/26/2013  07:19:00      -59.396      -15.707       -3.576       24.829       16.725       13.195      616.486      279.721      174.104        0.243        0.054       61.438       12.486        0.041      330.764       -1.654      869.272
11/26/2013  07:20:00      -32.892       -7.238        3.839       32.125       15.946       15.807     1032.045      254.276      249.866        0.134        0.077       33.679       18.941        0.316      330.803       -1.591      869.280
11/26/2013  07:21:00      -53.680      -15.946       -5.164       22.509       16.877       11.911      506.670      284.843      141.874        0.205        0.047       55.999       10.728        0.037      330.797       -1.600      869.279
11/26/2013  07:22:00      -48.831      -32.241       -2.341       15.512       17.313       11.228      240.618      299.750      126.076        0.205        0.033       58.514        4.816        0.007      330.819       -1.565      869.285
11/26/2013  07:23:00      -75.367       -4.321       -5.399       16.847       17.286       12.773      283.819      298.812      163.149        0.324        0.037       75.491        8.892        0.014      330.817       -1.567      869.283
11/26/2013  07:24:00      -71.631       -1.569       -7.505       14.144        9.713       10.738      200.053       94.334      115.297        0.280        0.020       71.648        8.523        0.014      330.816       -1.570      869.267
11/26/2013  07:25:00      -61.460       -6.402       -6.995        9.782        9.993        6.921       95.681       99.852       47.905        0.206        0.012       61.792        4.543        0.005      330.887       -1.452      869.267
11/26/2013  07:26:00      -43.830       -5.418       -5.660        7.848        7.616        7.029       61.596       58.003       49.403        0.108        0.008       44.163        3.989        0.008      330.943       -1.359      869.263
11/26/2013  07:27:00      -28.622        4.680       -2.826        5.971        7.547        5.987       35.656       56.950       35.842        0.049        0.006       29.002        2.225        0.006      331.065       -1.160      869.268
11/26/2013  07:28:00      -15.773       12.947       -2.985        4.326        2.642        2.073       18.714        6.978        4.298        0.023        0.001       20.407        1.673        0.007      331.194       -0.950      869.255
11/26/2013  07:29:00       -0.052        5.964        8.316        8.281        8.433        7.979       68.582       71.116       63.670        0.015        0.010        5.964        6.252        1.099      331.444       -0.538      869.260
11/26/2013  07:30:00       -8.323       -1.240        4.877        8.076       13.150        5.833       65.223      172.914       34.023        0.018        0.014        8.414        6.087        0.523      331.296       -0.780      869.273
11/26/2013  07:31:00       -9.947       -6.553        1.434        9.850        5.767        5.134       97.029       33.254       26.354        0.015        0.008       11.912        4.771        0.160      331.301       -0.772      869.302
11/26/2013  07:32:00      -32.200       -1.681       -1.772        6.651        6.660        3.956       44.233       44.360       15.646        0.057        0.005       32.244        3.982        0.015      331.038       -1.206      869.323
11/26/2013  07:33:00      -28.942       -0.031       -1.277        7.036        4.216        6.341       49.500       17.777       40.211        0.047        0.005       28.942        5.076        0.031      331.013       -1.246      869.340
11/26/2013  07:34:00      -15.418       -1.033        2.286        4.546        2.735        5.919       20.665        7.481       35.038        0.015        0.003       15.452        2.352        0.023      331.137       -1.043      869.353
11/26/2013  07:35:00       -6.640        2.307        6.124        3.451        4.635        5.645       11.910       21.485       31.865        0.008        0.003        7.029        3.413        0.236      331.490       -0.462      869.353
11/26/2013  07:36:00       -8.373        3.024        0.656        7.120        5.910        8.963       50.697       34.932       80.328        0.012        0.008        8.903        6.251        0.493      331.435       -0.551      869.365
11/26/2013  07:37:00        9.501       11.766       13.767        8.690        7.416        5.787       75.523       54.998       33.495        0.029        0.008       15.124        4.182        0.076      331.598       -0.283      869.368
11/26/2013  07:38:00      -17.463        2.612        7.259       10.131        4.099        7.253      102.637       16.800       52.605        0.027        0.009       17.658        6.527        0.137      331.399       -0.610      869.379
11/26/2013  07:39:00      -28.753        3.640       -4.765        4.831        4.483        3.780       23.335       20.100       14.285        0.046        0.003       28.983        1.847        0.004      331.225       -0.898      869.385
11/26/2013  07:40:00      -30.907       14.888       -5.708        5.926        4.775        3.623       35.112       22.802       13.130        0.064        0.004       34.305        2.508        0.005      331.243       -0.865      869.382
11/26/2013  07:41:00      -26.319        8.864       -6.077        3.860        5.099        3.668       14.898       25.998       13.453        0.043        0.003       27.771        2.667        0.009      331.284       -0.800      869.382
11/26/2013  07:42:00      -39.499        5.778       -3.568        5.513        6.685        3.561       30.391       44.694       12.684        0.085        0.004       39.919        2.505        0.004      331.257       -0.844      869.392
11/26/2013  07:43:00      -31.859       -5.673        0.553        9.081        5.463        4.126       82.472       29.844       17.020        0.059        0.006       32.360        3.938        0.015      331.296       -0.779      869.414
11/26/2013  07:44:00      -16.444      -11.516       -1.174        9.191        7.923        4.284       84.483       62.779       18.349        0.028        0.008       20.075        3.669        0.033      331.322       -0.737      869.439
11/26/2013  07:45:00      -12.555       -6.444       -3.206        6.079        6.220        3.595       36.958       38.687       12.922        0.015        0.004       14.112        2.928        0.043      331.373       -0.653      869.431
11/26/2013  07:46:00       -9.728        7.181       -7.727        6.284        8.309        4.252       39.488       69.040       18.080        0.017        0.006       12.091        4.733        0.153      331.384       -0.635      869.412
11/26/2013  07:47:00      -16.863        9.333       -3.865        5.483        5.037        4.448       30.068       25.372       19.787        0.023        0.004       19.274        2.738        0.020      331.302       -0.768      869.390
11/26/2013  07:48:00      -12.458       11.252       -2.145        4.613        5.687        3.282       21.279       32.347       10.770        0.018        0.003       16.787        1.872        0.012      331.384       -0.634      869.379
11/26/2013  07:49:00       -6.416       14.814       -2.343        6.093        5.050        5.522       37.121       25.506       30.490        0.018        0.005       16.144        4.160        0.066      331.477       -0.482      869.389
11/26/2013  07:50:00       13.494        6.875        4.290        8.567        7.325        7.250       73.397       53.662       52.561        0.021        0.009       15.144        4.973        0.108      331.523       -0.408      869.403
11/26/2013  07:51:00       20.340       17.889       -2.283       10.058        5.738        6.476      101.173       32.921       41.939        0.046        0.009       27.088        2.676        0.010      331.455       -0.520      869.429
11/26/2013  07:52:00        1.088        8.920        3.829        9.581        8.697        7.400       91.796       75.634       54.761        0.016        0.011        8.987        4.615        0.264      331.556       -0.353      869.436
11/26/2013  07:53:00        9.626       14.924        4.980       11.564       10.457        7.465      133.735      109.357       55.722        0.032        0.015       17.759        6.908        0.151      331.552       -0.360      869.436
11/26/2013  07:54:00       14.942       16.419       -0.890        9.674        6.610        7.146       93.589       43.697       51.062        0.034        0.009       22.200        3.146        0.020      331.482       -0.475      869.431
11/26/2013  07:55:00        7.507       22.879        3.048        7.103       13.118       10.611       50.448      172.089      112.596        0.046        0.017       24.079        9.448        0.154      331.551       -0.360      869.427
11/26/2013  07:56:00        2.700       22.289       -2.442       13.000       15.774       12.281      169.004      248.818      150.817        0.054        0.028       22.452       10.510        0.219      331.565       -0.338      869.425
11/26/2013  07:57:00       11.800       18.844        1.109       12.059        9.731        8.218      145.429       94.695       67.541        0.040        0.015       22.233        4.035        0.033      331.571       -0.328      869.427
11/26/2013  07:58:00       14.409       17.917        5.009       17.674        9.434        8.237      312.360       89.005       67.844        0.051        0.023       22.992        4.295        0.035      331.644       -0.207      869.432
11/26/2013  07:59:00       32.197       21.916       -7.852       12.155       10.497        8.799      147.749      110.179       77.422        0.096        0.017       38.949        7.210        0.034      331.532       -0.393      869.452
11/26/2013  08:00:00       18.173       22.117        4.001       23.473       10.617       11.861      550.967      112.715      140.672        0.082        0.040       28.625        7.477        0.068      331.638       -0.218      869.460
11/26/2013  08:01:00       38.226       36.950       16.201       19.490       14.686       20.702      379.874      215.684      428.566        0.206        0.051       53.165       16.451        0.096      331.605       -0.272      869.465
11/26/2013  08:02:00       44.302       25.273       10.006       26.432       13.749       17.843      698.666      189.048      318.388        0.195        0.060       51.004       12.895        0.064      331.636       -0.221      869.455
11/26/2013  08:03:00       40.684       23.001       -6.673       21.856       19.205       12.829      477.699      368.835      164.575        0.162        0.051       46.736       10.405        0.050      331.662       -0.178      869.440
11/26/2013  08:04:00       31.484       25.775        1.022       15.429       13.225       12.592      238.052      174.895      158.561        0.111        0.029       40.689        9.153        0.051      331.713       -0.095      869.451
11/26/2013  08:05:00       48.823       38.588       -0.683       14.760       12.394       15.041      217.868      153.621      226.230        0.224        0.030       62.232       10.311        0.027      331.631       -0.230      869.463
11/26/2013  08:06:00       37.481       28.540        1.077        9.332       13.014       11.688       87.078      169.376      136.607        0.131        0.020       47.110        7.598        0.026      331.593       -0.293      869.465
11/26/2013  08:07:00       21.422       17.587        0.099       18.561       12.719       10.850      344.514      161.774      117.727        0.070        0.031       27.716        7.567        0.075      331.757       -0.021      869.471
11/26/2013  08:08:00       26.942       15.422        3.160       12.571        9.694        9.655      158.038       93.974       93.223        0.066        0.017       31.043        4.980        0.026      331.819        0.082      869.474
11/26/2013  08:09:00       13.838       19.500       -2.178       14.448        9.060       10.079      208.748       82.076      101.578        0.048        0.020       23.911        7.772        0.106      331.820        0.080      869.472
11/26/2013  08:10:00       19.354       22.169        4.640       13.901       10.096       11.138      193.240      101.934      124.055        0.065        0.021       29.429        6.447        0.048      331.893        0.202      869.481
11/26/2013  08:11:00       39.362       31.657       -1.526       14.464        9.745       13.921      209.216       94.973      193.787        0.153        0.025       50.513        8.811        0.030      331.751       -0.032      869.480
11/26/2013  08:12:00       50.591       46.934       -4.019       15.470       15.527       18.883      239.336      241.100      356.581        0.281        0.042       69.009        4.139        0.004      331.835        0.108      869.486
11/26/2013  08:13:00       14.832       43.943       41.449       27.299       26.146       19.602      745.256      683.628      384.248        0.284        0.091       46.379       12.346        0.071      331.976        0.339      869.489
11/26/2013  08:14:00       62.317       60.117       10.070       27.322       26.156       24.878      746.479      684.158      618.931        0.482        0.102       86.588       21.677        0.063      331.805        0.057      869.499
11/26/2013  08:15:00       66.552       66.144       16.711       29.200       27.510       22.911      852.620      756.818      524.922        0.561        0.107       93.831       10.581        0.013      331.757       -0.022      869.498
11/26/2013  08:16:00       85.051       52.395       14.110       17.504       18.256       21.395      306.390      333.290      457.764        0.564        0.055       99.894       13.416        0.018      331.705       -0.107      869.474
11/26/2013  08:17:00       95.184       36.571        3.549       20.889       18.801       23.059      436.367      353.461      531.726        0.587        0.066      101.968       12.405        0.015      331.724       -0.075      869.466
11/26/2013  08:18:00       71.923       49.564        4.456       24.143       17.406       16.330      582.894      302.981      266.658        0.440        0.058       87.347        8.237        0.009      331.695       -0.123      869.454
11/26/2013  08:19:00       47.822       42.392        1.532       26.523       18.735       19.674      703.465      351.006      387.077        0.276        0.072       63.906        9.375        0.022      331.832        0.100      869.440
11/26/2013  08:20:00       64.780       55.535       13.003       26.138       21.678       25.902      683.199      469.927      670.890        0.464        0.091       85.327       13.647        0.026      331.791        0.035      869.427
11/26/2013  08:21:00       74.817       57.683       -5.552       21.447       19.234       20.618      459.966      369.942      425.116        0.511        0.063       94.472        8.667        0.008      331.741       -0.048      869.417
11/26/2013  08:22:00       65.913       49.082        3.717       20.847       16.685       16.775      434.610      278.382      281.405        0.388        0.050       82.180        8.728        0.011      331.785        0.024      869.415
11/26/2013  08:23:00       75.593       64.272       -3.029       17.208       17.347       11.941      296.117      300.912      142.584        0.530        0.037       99.223       10.073        0.010      331.713       -0.093      869.420
11/26/2013  08:24:00       89.679       48.094        2.545       25.433       22.372       20.716      646.851      500.528      429.138        0.597        0.079      101.761       14.947        0.022      331.699       -0.116      869.407
11/26/2013  08:25:00       91.236       57.306       -4.081       23.331       28.332       23.678      544.322      802.685      560.655        0.677        0.095      107.740        9.311        0.007      331.751       -0.032      869.392
11/26/2013  08:26:00       65.157       41.867        2.976       30.008       27.015       21.094      900.487      729.818      444.967        0.404        0.104       77.448       15.054        0.038      331.769       -0.001      869.387
11/26/2013  08:27:00       57.729       26.577        0.855       21.476       18.784       20.234      461.222      352.824      409.399        0.263        0.061       63.553       13.979        0.048      331.805        0.056      869.376
11/26/2013  08:28:00       52.218       17.363       -2.208       17.301       20.685       10.511      299.327      427.863      110.477        0.194        0.042       55.029       10.099        0.034      331.776        0.009      869.371
11/26/2013  08:29:00       44.893       30.915       -1.994       16.284       12.697       20.578      265.180      161.207      423.450        0.191        0.042       54.508       12.328        0.051      331.905        0.220      869.355
11/26/2013  08:30:00       56.295       41.399        1.709       11.270       12.886       11.912      127.010      166.056      141.892        0.266        0.022       69.878        5.449        0.006      331.801        0.050      869.351
11/26/2013  08:31:00       30.491       37.939       17.035       33.909       15.669       31.748     1149.815      245.510     1007.904        0.253        0.120       48.673       31.535        0.420      331.932        0.268      869.332
11/26/2013  08:32:00       65.073       39.614       23.356       43.133       20.886       31.065     1860.478      436.226      965.023        0.480        0.163       76.183       31.509        0.171      331.949        0.295      869.319
11/26/2013  08:33:00       59.841       27.975        9.343       23.778       18.725       23.324      565.388      350.629      543.999        0.296        0.073       66.057       12.629        0.037      331.898        0.209      869.325
11/26/2013  08:34:00       30.178       18.538       29.561       14.324        9.965       13.538      205.179       99.295      183.275        0.131        0.024       35.417       10.029        0.080      331.990        0.362      869.343
11/26/2013  08:35:00       14.980       19.479        9.408       12.091        9.230       17.408      146.183       85.186      303.026        0.061        0.027       24.573       11.074        0.203      332.035        0.437      869.364
11/26/2013  08:36:00       15.305        9.416       -5.783        7.089        9.531       14.491       50.260       90.835      210.001        0.035        0.018       17.969        4.343        0.058      332.054        0.469      869.371
11/26/2013  08:37:00        6.800        6.061        2.886        8.793        8.151       10.001       77.322       66.437      100.012        0.017        0.012        9.109        8.232        0.817      332.228        0.755      869.367
11/26/2013  08:38:00        5.100       11.326       -5.095        7.527        5.573       11.081       56.659       31.055      122.784        0.020        0.011       12.421        5.750        0.214      332.126        0.586      869.362
11/26/2013  08:39:00       19.468       16.896       13.651       11.625        8.180        9.910      135.145       66.919       98.202        0.058        0.015       25.777        2.523        0.010      332.130        0.592      869.346
11/26/2013  08:40:00       33.907       29.156        7.332       14.328       14.152       15.693      205.278      200.274      246.264        0.135        0.033       44.719       11.218        0.063      332.089        0.525      869.353
11/26/2013  08:41:00       24.581       37.613        3.917       12.162       10.128       11.992      147.912      102.576      143.810        0.121        0.020       44.933        7.142        0.025      332.184        0.684      869.362
11/26/2013  08:42:00       -0.677        9.090       10.788       12.265       17.570       12.523      150.431      308.709      156.837        0.041        0.031        9.115        9.984        1.200      332.453        1.125      869.375
11/26/2013  08:43:00       -2.551       19.643       37.268       17.119       16.013       19.615      293.077      256.429      384.764        0.136        0.047       19.808       12.591        0.404      332.568        1.315      869.379
11/26/2013  08:44:00       -3.157       18.567       42.174        9.095       20.671       15.059       82.714      427.293      226.761        0.143        0.037       18.833       13.367        0.504      332.636        1.428      869.378
11/26/2013  08:45:00       -8.202        2.184       26.547        9.472       13.429        9.754       89.717      180.327       95.143        0.057        0.018        8.487        8.832        1.083      332.790        1.683      869.387
11/26/2013  08:46:00      -11.778        9.273       27.033       10.188       10.869       14.228      103.801      118.133      202.423        0.069        0.021       14.990        8.989        0.360      332.687        1.512      869.391
11/26/2013  08:47:00      -21.230        8.272       18.992       14.646       12.290       16.984      214.497      151.037      288.468        0.077        0.033       22.784       13.851        0.370      332.513        1.225      869.407
11/26/2013  08:48:00       -3.755       10.233       30.796        6.382       12.820       10.441       40.725      164.347      109.007        0.069        0.016       10.900        6.400        0.345      332.708        1.546      869.405
11/26/2013  08:49:00       10.389       33.038       24.550       18.065       14.856       23.620      326.327      220.690      557.907        0.145        0.055       34.633        9.975        0.083      332.512        1.222      869.408
11/26/2013  08:50:00       68.083       37.550       18.724       13.811       18.953       21.985      190.738      359.205      483.353        0.371        0.052       77.752       13.960        0.032      332.189        0.690      869.393
11/26/2013  08:51:00       47.388       38.109       25.491       30.362       20.509       26.540      921.831      420.599      704.359        0.320        0.102       60.811       23.780        0.153      332.294        0.865      869.385
11/26/2013  08:52:00       32.638       33.093       16.767       26.520       13.865       18.576      703.304      192.249      345.084        0.184        0.062       46.480       16.541        0.127      332.424        1.078      869.384
11/26/2013  08:53:00        5.734       21.964       35.824       18.642       21.496       14.813      347.534      462.074      219.439        0.141        0.051       22.700       12.159        0.287      332.740        1.599      869.374
11/26/2013  08:54:00        1.247        5.764       40.477       20.542       25.728       19.358      421.990      661.939      374.725        0.157        0.073        5.898       19.907       11.392      332.917        1.893      869.364
11/26/2013  08:55:00       13.542        1.061       37.173       22.274       44.740       17.390      496.144     2001.651      302.419        0.218        0.140       13.583       18.928        1.942      332.798        1.696      869.342
11/26/2013  08:56:00      -12.404       -1.193       28.638       12.631       28.278       18.408      159.538      799.653      338.838        0.114        0.065       12.462        7.259        0.339      332.889        1.847      869.317
11/26/2013  08:57:00       -4.354      -16.222        9.935       16.857       17.793       11.192      284.143      316.573      125.267        0.055        0.036       16.796        2.372        0.020      332.743        1.605      869.301
11/26/2013  08:58:00      -19.080        1.654        8.437       20.280        8.615       10.664      411.272       74.223      113.714        0.052        0.030       19.152       11.600        0.367      332.845        1.774      869.309
11/26/2013  08:59:00      -16.729      -14.850        9.118       23.952       19.148       12.830      573.691      366.648      164.605        0.084        0.055       22.369       15.373        0.472      332.948        1.941      869.314
11/26/2013  09:00:00        1.978        7.615       30.533       10.689       11.514       10.125      114.249      132.563      102.506        0.067        0.017        7.868        5.977        0.577      333.247        2.437      869.314
11/26/2013  09:01:00       36.014       35.310       40.335       36.738       32.325       16.884     1349.656     1044.909      285.076        0.342        0.134       50.436       15.367        0.093      332.931        1.915      869.312
11/26/2013  09:02:00       32.663       49.313       16.467       31.472       21.825       37.629      990.466      476.335     1415.932        0.333        0.144       59.149       28.194        0.227      332.785        1.674      869.316
11/26/2013  09:03:00       24.186       50.352       52.510       38.515       24.927       32.609     1483.441      621.343     1063.363        0.452        0.158       55.859       28.545        0.261      332.895        1.854      869.308
11/26/2013  09:04:00       28.782       32.764       41.753       33.394       28.920       26.568     1115.134      836.385      705.856        0.315        0.133       43.611       23.736        0.296      333.049        2.110      869.294
11/26/2013  09:05:00       62.724       49.720       42.644       35.885       34.108       31.432     1287.736     1163.361      987.946        0.583        0.172       80.040       23.879        0.089      332.821        1.733      869.293
11/26/2013  09:06:00       82.374       42.421       22.467       37.481       26.523       30.570     1404.845      703.462      934.555        0.607        0.152       92.655       25.421        0.075      332.846        1.774      869.284
11/26/2013  09:07:00       96.498       64.746        3.180       37.952       35.470       31.788     1440.340     1258.135     1010.501        0.861        0.185      116.206       19.095        0.027      332.621        1.404      869.291
11/26/2013  09:08:00      108.317       48.698       10.951       53.711       35.486       37.642     2884.839     1259.258     1416.930        0.989        0.278      118.760       32.837        0.076      332.616        1.393      869.301
11/26/2013  09:09:00       92.919       71.478        0.509       30.204       28.350       20.650      912.255      803.701      426.414        0.794        0.107      117.231        9.865        0.007      332.614        1.390      869.310
11/26/2013  09:10:00       39.533       32.846        4.795       38.007       26.081       25.879     1444.550      680.199      669.724        0.273        0.140       51.398       21.869        0.181      333.083        2.166      869.317
11/26/2013  09:11:00       49.333       35.526       20.537       34.516       24.711       29.128     1191.347      610.645      848.446        0.338        0.133       60.793       16.826        0.077      333.088        2.176      869.311
11/26/2013  09:12:00       68.695       74.578        0.842       28.250       29.888       23.077      798.046      893.267      532.528        0.625        0.111      101.394       16.948        0.028      332.851        1.782      869.296
11/26/2013  09:13:00       61.158       50.279        1.214       24.080       23.760       18.752      579.834      564.552      351.619        0.388        0.075       79.172        9.926        0.016      332.953        1.951      869.277
11/26/2013  09:14:00       36.901       42.871        5.234       35.989       34.168       28.037     1295.241     1167.451      786.096        0.324        0.162       56.565       20.367        0.130      333.183        2.332      869.264
11/26/2013  09:15:00       25.041       42.071        4.451       26.947       27.547       25.160      726.123      758.828      633.047        0.227        0.106       48.960       11.606        0.056      333.171        2.312      869.262
11/26/2013  09:16:00       24.835       36.845        4.934       29.230       36.254       24.397      854.407     1314.346      595.229        0.238        0.138       44.433       20.611        0.215      333.278        2.489      869.271
11/26/2013  09:17:00       67.630       70.788        2.094       26.958       23.880       26.050      726.723      570.276      678.581        0.578        0.099       97.902       19.450        0.039      332.992        2.014      869.276
11/26/2013  09:18:00       84.422       55.318       -3.383       21.868       23.353       22.308      478.201      545.371      497.651        0.586        0.076      100.932       16.506        0.027      332.799        1.697      869.295
11/26/2013  09:19:00       54.189       63.027        1.994       29.258       25.485       24.256      856.004      649.461      588.365        0.450        0.105       83.120       20.689        0.062      332.984        2.003      869.313
11/26/2013  09:20:00       29.096       28.413        8.646       26.882       23.177       22.597      722.653      537.192      510.634        0.175        0.089       40.668       17.060        0.176      333.192        2.345      869.316
11/26/2013  09:21:00       36.581       48.318       -2.748       28.469       28.108       19.596      810.463      790.032      384.011        0.283        0.099       60.603       16.246        0.072      333.273        2.480      869.303
11/26/2013  09:22:00       25.914       76.314       -0.798       24.888       32.847       31.007      619.426     1078.902      961.453        0.458        0.133       80.594       13.171        0.027      333.317        2.553      869.285
11/26/2013  09:23:00       60.355       36.856        0.869       32.184       37.907       25.209     1035.832     1436.920      635.473        0.405        0.155       70.719       13.084        0.034      333.262        2.461      869.276
11/26/2013  09:24:00       13.767       26.923        5.226       24.160       24.426       20.969      583.682      596.614      439.686        0.128        0.081       30.239       13.392        0.196      333.464        2.796      869.291
11/26/2013  09:25:00        6.551       10.940       12.531       17.664       23.053       17.810      312.028      531.445      317.213        0.074        0.058       12.751       12.435        0.951      333.675        3.145      869.296
11/26/2013  09:26:00       43.011       40.014       -1.156       27.889       31.489       17.092      777.798      991.554      292.150        0.276        0.103       58.746       14.072        0.057      333.504        2.861      869.304
11/26/2013  09:27:00       22.158       26.115       33.952       30.189       29.377       25.452      911.393      862.992      647.813        0.237        0.121       34.249       19.103        0.311      333.691        3.172      869.298
11/26/2013  09:28:00       39.303       23.653       28.962       25.477       24.889       27.900      649.089      619.479      778.426        0.249        0.102       45.872       10.977        0.057      333.417        2.718      869.301
11/26/2013  09:29:00       41.997       31.621       18.406       39.206       23.797       25.887     1537.093      566.284      670.122        0.294        0.139       52.570       21.304        0.164      333.475        2.814      869.296
11/26/2013  09:30:00       44.130       34.342        2.891       23.986       20.011       18.941      575.317      400.430      358.750        0.223        0.067       55.918       12.021        0.046      333.491        2.841      869.289
11/26/2013  09:31:00       71.061       59.889       10.706       24.842       22.737       21.788      617.119      516.989      474.738        0.518        0.080       92.932       13.446        0.021      333.459        2.787      869.274
11/26/2013  09:32:00       44.673       71.670       11.880       34.498       34.740       31.299     1190.140     1206.841      979.644        0.532        0.169       84.452       21.141        0.063      333.598        3.018      869.259
11/26/2013  09:33:00       46.126      113.404       -9.677       32.134       43.762       31.724     1032.584     1915.073     1006.401        0.952        0.198      122.426       24.081        0.039      333.399        2.688      869.245
11/26/2013  09:34:00       30.005       57.910        1.909       26.735       52.233       29.230      714.743     2728.277      854.371        0.428        0.215       65.221       34.318        0.277      333.463        2.795      869.238
11/26/2013  09:35:00       74.383       70.863       -3.451       39.689       35.659       19.866     1575.209     1271.564      394.646        0.690        0.162      102.734       11.200        0.012      333.479        2.821      869.225
11/26/2013  09:36:00       88.975       54.573        9.622       44.816       30.520       29.098     2008.500      931.448      846.704        0.739        0.189      104.378       16.112        0.024      333.437        2.750      869.217
11/26/2013  09:37:00       69.947       44.727       11.816       30.081       22.782       29.616      904.870      519.021      877.131        0.467        0.115       83.025       15.909        0.037      333.643        3.091      869.212
11/26/2013  09:38:00       57.599       42.198      -18.214       35.127       22.741       20.954     1233.932      517.171      439.056        0.381        0.110       71.403       13.544        0.036      333.498        2.852      869.196
11/26/2013  09:39:00       20.448       47.524        3.616       29.725       43.913       20.741      883.586     1928.372      430.209        0.297        0.162       51.736       20.449        0.156      333.637        3.083      869.192
11/26/2013  09:40:00       22.792       47.470       -2.305       27.464       27.375       16.650      754.275      749.379      277.216        0.228        0.089       52.658       13.722        0.068      333.700        3.188      869.197
11/26/2013  09:41:00       30.762       41.030        8.599       37.031       29.576       26.952     1371.298      874.741      726.392        0.284        0.149       51.281       22.115        0.186      333.891        3.504      869.194
11/26/2013  09:42:00       -1.372       40.794       13.119       17.736       38.159       23.993      314.556     1456.121      575.670        0.209        0.117       40.817       23.420        0.329      334.108        3.863      869.178
11/26/2013  09:43:00       42.348       66.461       -2.133       35.899       37.719       24.816     1288.745     1422.742      615.853        0.477        0.166       78.806       22.696        0.083      333.881        3.486      869.181
11/26/2013  09:44:00       50.049       43.560        1.469       38.787       27.720       23.438     1504.409      768.418      549.325        0.361        0.141       66.350       17.573        0.070      333.716        3.213      869.190
11/26/2013  09:45:00       97.116       57.184        9.092       32.147       23.809       26.540     1033.437      566.886      704.376        0.754        0.115      112.701       17.887        0.025      333.655        3.113      869.189
11/26/2013  09:46:00       55.567       79.502        5.437       42.303       20.245       24.612     1789.576      409.863      605.731        0.612        0.140       96.996       17.058        0.031      333.669        3.134      869.185
11/26/2013  09:47:00       70.130       48.512        7.347       36.441       29.025       26.645     1327.965      842.454      709.941        0.510        0.144       85.274       11.765        0.019      333.923        3.557      869.164
11/26/2013  09:48:00       64.755       68.076       41.667       54.338       28.734       27.503     2952.634      825.656      756.414        0.755        0.227       93.955       12.990        0.019      334.183        3.988      869.139
11/26/2013  09:49:00       42.349       71.124       58.010       49.466       34.044       35.089     2446.876     1158.981     1231.216        0.753        0.242       82.778       29.289        0.125      333.878        3.482      869.129
11/26/2013  09:50:00       47.873       86.148       61.509       44.842       30.852       33.282     2010.816      951.848     1107.693        0.878        0.204       98.556       24.788        0.063      333.934        3.576      869.128
11/26/2013  09:51:00       82.908       42.442       29.120       48.361       35.085       32.330     2338.741     1230.934     1045.208        0.707        0.231       93.140       29.182        0.098      333.814        3.376      869.114
11/26/2013  09:52:00       84.963       51.240       18.744       47.642       43.610       34.118     2269.749     1901.797     1164.042        0.776        0.267       99.219       17.398        0.031      333.819        3.385      869.102
11/26/2013  09:53:00       50.091       67.351       50.328       64.301       33.233       45.098     4134.679     1104.405     2033.823        0.842        0.364       83.936       35.002        0.174      334.013        3.706      869.080
11/26/2013  09:54:00       47.889        0.740       11.842       39.601       34.699       20.940     1568.263     1204.049      438.473        0.282        0.161       47.895       18.305        0.146      333.956        3.611      869.062
11/26/2013  09:55:00       18.187       41.556        1.610       32.178       29.879       25.034     1035.409      892.728      626.711        0.231        0.128       45.361       19.701        0.189      334.169        3.963      869.052
11/26/2013  09:56:00       10.960       19.933       31.860       35.065       35.697       25.446     1229.540     1274.299      647.520        0.234        0.158       22.747       22.669        0.993      334.445        4.422      869.030
11/26/2013  09:57:00        7.915        1.095       44.120       42.348       44.621       26.901     1793.316     1991.021      723.685        0.326        0.225        7.990       31.363       15.408      334.435        4.406      869.023
11/26/2013  09:58:00        7.541       34.765       55.649       30.597       28.984       21.901      936.203      840.070      479.643        0.331        0.113       35.573       19.447        0.299      334.377        4.310      869.014
11/26/2013  09:59:00       41.892       54.910       55.997       39.120       30.630       22.650     1530.378      938.201      513.015        0.544        0.149       69.066       18.881        0.075      334.140        3.916      869.003
11/26/2013  10:00:00       39.630       33.110       13.559       35.013       42.848       33.832     1225.919     1835.942     1144.599        0.353        0.210       51.641       28.952        0.314      334.047        3.763      869.004
11/26/2013  10:01:00       30.400        2.193       49.946       51.425       64.809       44.713     2644.491     4200.203     1999.295        0.613        0.442       30.480       54.163        3.158      334.231        4.068      869.007
11/26/2013  10:02:00       12.282       32.870       60.941       26.686       48.047       29.805      712.165     2308.483      888.331        0.443        0.195       35.090       32.716        0.869      334.527        4.558      869.008
11/26/2013  10:03:00       32.435       87.344       75.972       43.418       42.351       31.460     1885.107     1793.649      989.761        0.956        0.233       93.172       30.324        0.106      334.226        4.059      869.007
11/26/2013  10:04:00       63.646       68.374       43.312       33.121       33.836       32.669     1096.987     1144.887     1067.286        0.695        0.165       93.412       22.047        0.056      334.028        3.731      869.003
11/26/2013  10:05:00       48.648       44.099       12.321       19.108       28.839       28.353      365.119      831.699      803.901        0.323        0.100       65.661       10.998        0.028      334.011        3.703      869.005
11/26/2013  10:06:00       96.251       55.970       42.062       51.656       37.653       38.318     2668.393     1417.722     1468.257        0.986        0.278      111.341       32.198        0.084      334.207        4.026      869.010
11/26/2013  10:07:00       47.550       82.388       71.418       49.564       43.093       42.751     2456.572     1856.965     1827.653        1.014        0.307       95.125       29.845        0.098      334.302        4.185      869.013
11/26/2013  10:08:00       58.460       75.077       66.539       55.003       40.083       25.440     3025.329     1606.652      647.208        0.938        0.264       95.153       14.593        0.024      334.314        4.206      869.002
11/26/2013  10:09:00       -6.450       48.000       77.733       29.919       42.794       21.897      895.137     1831.368      479.463        0.580        0.160       48.432       22.709        0.220      334.746        4.921      868.991
11/26/2013  10:10:00       13.010       64.005       67.324       36.514       41.778       26.402     1333.284     1745.442      697.085        0.629        0.189       65.314       18.215        0.078      334.622        4.716      868.975
11/26/2013  10:11:00       44.537       49.182       45.565       33.195       30.277       18.440     1101.896      916.717      340.017        0.442        0.118       66.351       14.295        0.046      334.593        4.668      868.972
11/26/2013  10:12:00       56.559       37.037       18.585       65.829       41.535       35.538     4333.392     1725.126     1262.981        0.612        0.366       67.607       42.766        0.400      334.701        4.847      868.958
11/26/2013  10:13:00       55.457       52.816       24.180       63.158       39.759       54.879     3988.886     1580.780     3011.752        0.751        0.429       76.583       50.802        0.440      334.575        4.640      868.937
11/26/2013  10:14:00       29.625       82.547      100.630       50.045       44.365       30.047     2504.470     1968.247      902.835        1.160        0.269       87.702       34.595        0.156      334.402        4.350      868.917
11/26/2013  10:15:00       53.201       93.963       78.417       39.332       41.071       31.404     1546.992     1686.850      986.188        1.101        0.211      107.979       26.097        0.058      334.307        4.193      868.897
11/26/2013  10:16:00       62.515       82.465       64.988       42.800       34.388       41.091     1831.843     1182.508     1688.441        0.982        0.235      103.482       23.064        0.050      334.336        4.243      868.870
11/26/2013  10:17:00      103.641       82.544       22.591       33.176       32.410       23.937     1100.646     1050.377      572.967        1.039        0.136      132.495       15.682        0.014      334.273        4.137      868.849
11/26/2013  10:18:00       86.485       72.395       60.818       41.332       26.913       36.830     1708.323      724.318     1356.457        1.010        0.189      112.786       21.147        0.035      334.337        4.244      868.831
11/26/2013  10:19:00       82.007       71.504       39.016       34.291       40.111       27.669     1175.854     1608.856      765.553        0.845        0.178      108.802       27.397        0.063      334.358        4.278      868.812
11/26/2013  10:20:00       76.444       55.012       21.234       31.436       37.820       39.520      988.233     1430.381     1561.849        0.665        0.199       94.180       23.127        0.060      334.515        4.539      868.817
11/26/2013  10:21:00       31.287       49.398       50.022       33.807       36.950       31.493     1142.927     1365.333      991.816        0.471        0.175       58.472       24.730        0.179      334.679        4.811      868.816
11/26/2013  10:22:00      124.836       87.592       50.703       40.060       22.568       24.044     1604.773      509.300      578.127        1.426        0.135      152.501       19.667        0.017      334.176        3.977      868.822
11/26/2013  10:23:00       94.355       67.724       17.779       35.590       22.292       24.070     1266.625      496.954      579.358        0.807        0.117      116.144       17.114        0.022      334.200        4.017      868.810
11/26/2013  10:24:00       49.898       59.358        4.358       42.158       36.191       25.378     1777.328     1309.795      644.037        0.488        0.187       77.545       25.477        0.108      334.539        4.579      868.789
11/26/2013  10:25:00       41.208       39.492       18.795       48.339       46.156       39.669     2336.668     2130.370     1573.627        0.482        0.302       57.076       38.994        0.467      334.811        5.029      868.776
11/26/2013  10:26:00       15.572       87.048      100.921       40.681       48.729       27.364     1654.910     2374.521      748.810        1.139        0.239       88.430       22.629        0.065      334.793        5.000      868.766
11/26/2013  10:27:00       52.779       86.087       54.198       60.065       43.832       53.119     3607.829     1921.278     2821.579        1.074        0.418      100.978       27.616        0.075      334.664        4.786      868.747
11/26/2013  10:28:00       31.780       84.749       95.626       62.299       58.681       55.030     3881.170     3443.462     3028.277        1.384        0.518       90.511       53.209        0.346      334.680        4.812      868.743
11/26/2013  10:29:00      144.888       99.292       18.124       46.106       37.931       46.082     2125.724     1438.780     2123.566        1.843        0.284      175.646       30.722        0.031      334.416        4.372      868.742
11/26/2013  10:30:00      113.941       90.021       13.032       30.563       21.875       37.568      934.089      478.527     1411.355        1.204        0.141      145.211       16.030        0.012      334.344        4.255      868.735
11/26/2013  10:31:00       95.887       59.721        0.507       32.079       25.274       28.598     1029.047      638.762      817.873        0.762        0.124      112.964       16.170        0.020      334.402        4.350      868.714
11/26/2013  10:32:00       41.322       45.591       -5.504       33.728       35.761       26.886     1137.585     1278.826      722.848        0.348        0.157       61.531       13.827        0.050      334.642        4.749      868.686
11/26/2013  10:33:00       37.901       47.352        9.543       36.557       27.005       17.567     1336.378      729.271      308.595        0.307        0.119       60.652       15.136        0.062      334.707        4.856      868.647
11/26/2013  10:34:00       49.416       56.273        0.001       39.033       34.345       28.338     1523.552     1179.600      803.024        0.456        0.175       74.891       21.951        0.086      334.796        5.005      868.629
11/26/2013  10:35:00       26.472       72.124       -3.730       37.435       42.840       30.228     1401.354     1835.229      913.702        0.503        0.208       76.828       27.901        0.132      334.857        5.106      868.608
11/26/2013  10:36:00       94.955       48.099       -1.676       52.435       29.617       27.042     2749.463      877.193      731.278        0.784        0.218      106.442       23.938        0.051      334.637        4.740      868.608
11/26/2013  10:37:00       56.839       71.688       34.067       49.597       43.121       37.679     2459.835     1859.440     1419.679        0.763        0.287       91.487       34.856        0.145      334.938        5.241      868.593
11/26/2013  10:38:00       48.800       48.147       12.742       32.308       28.776       32.209     1043.791      828.070     1037.440        0.389        0.145       68.554       22.059        0.104      335.113        5.532      868.590
11/26/2013  10:39:00       52.410       50.412       11.729       31.574       32.990       29.683      996.900     1088.357      881.051        0.420        0.148       72.719       22.245        0.094      334.925        5.217      868.574
11/26/2013  10:40:00       66.524       38.132       16.813       38.685       24.992       21.587     1496.540      624.579      465.991        0.437        0.129       76.677       17.527        0.052      334.776        4.972      868.568
11/26/2013  10:41:00       96.702       73.133       34.766       48.149       39.477       44.600     2318.344     1558.446     1989.124        1.089        0.293      121.242       15.617        0.017      334.837        5.074      868.562
11/26/2013  10:42:00       72.970       70.647       61.674       59.600       46.702       28.588     3552.183     2181.054      817.259        1.033        0.328      101.566       25.800        0.065      335.117        5.537      868.557
11/26/2013  10:43:00      146.063       98.693       18.709       35.593       32.781       46.543     1266.858     1074.618     2166.229        1.797        0.225      176.280       16.617        0.009      334.763        4.948      868.553
11/26/2013  10:44:00       83.003       75.990       17.611       38.079       37.212       31.967     1450.001     1384.754     1021.859        0.841        0.193      112.534       21.496        0.036      334.796        5.005      868.537
11/26/2013  10:45:00       37.740       74.274        2.987       45.589       31.987       36.617     2078.349     1023.195     1340.809        0.570        0.222       83.312       16.236        0.038      334.968        5.291      868.522
11/26/2013  10:46:00      -14.536       28.569       65.279       22.695       47.777       23.342      515.067     2282.599      544.870        0.432        0.167       32.055       20.957        0.427      335.586        6.319      868.503
11/26/2013  10:47:00       21.194       68.984       72.126       59.650       57.855       32.370     3558.099     3347.146     1047.796        0.918        0.398       72.167       30.360        0.177      335.196        5.670      868.495
11/26/2013  10:48:00       98.846       99.958       12.195       45.098       40.877       46.513     2033.842     1670.945     2163.494        1.289        0.293      140.578       22.032        0.025      335.022        5.380      868.467
11/26/2013  10:49:00       94.322       82.391       13.607       47.118       39.302       43.077     2220.104     1544.685     1855.620        1.074        0.281      125.239       19.439        0.024      334.860        5.110      868.464
11/26/2013  10:50:00      100.438       66.798        3.775       38.095       29.205       22.968     1451.225      852.924      527.509        0.870        0.142      120.622       14.421        0.014      334.730        4.896      868.449
11/26/2013  10:51:00       82.231       69.203        6.115       32.565       24.322       29.303     1060.459      591.559      858.688        0.705        0.126      107.476       19.569        0.033      334.812        5.031      868.431
11/26/2013  10:52:00       84.951       49.579        8.066       13.431       20.101       17.752      180.387      404.055      315.125        0.532        0.045       98.360        9.169        0.009      334.783        4.984      868.429
11/26/2013  10:53:00       73.012       70.450       -1.785       37.125       25.152       26.358     1378.279      632.631      694.721        0.650        0.135      101.459       17.131        0.029      334.934        5.235      868.406
11/26/2013  10:54:00       58.086       78.867        4.700       25.593       44.860       34.115      654.998     2012.402     1163.839        0.672        0.192       97.949       28.456        0.084      335.051        5.429      868.400
11/26/2013  10:55:00        0.165       70.346        2.640       24.497       55.516       25.332      600.088     3082.000      641.695        0.464        0.216       70.346       17.326        0.061      335.102        5.514      868.377
11/26/2013  10:56:00        0.606       41.810       13.278       24.542       39.566       24.839      602.326     1565.482      616.983        0.235        0.139       41.815       16.027        0.147      335.417        6.038      868.359
11/26/2013  10:57:00       20.333       18.021       16.823       37.591       18.692       20.416     1413.118      349.386      416.806        0.160        0.109       27.170       15.875        0.341      335.581        6.310      868.331
11/26/2013  10:58:00       88.548       69.800        6.504       40.111       39.518       27.678     1608.901     1561.674      766.062        0.835        0.197      112.751       15.887        0.020      335.522        6.212      868.310
11/26/2013  10:59:00       25.523       64.836       11.077       39.007       51.852       30.697     1521.521     2688.636      942.316        0.506        0.258       69.679       16.797        0.058      335.584        6.315      868.294
11/26/2013  11:00:00       25.279      -39.586       26.991       28.937       67.551       35.131      837.328     4563.150     1234.220        0.478        0.332       46.969       37.477        0.637      335.654        6.431      868.263
11/26/2013  11:01:00        7.887       79.236      107.600       52.434       63.351       50.478     2749.336     4013.314     2548.067        1.361        0.466       79.628       47.916        0.362      335.487        6.153      868.253
11/26/2013  11:02:00       51.898       39.177       30.905       31.812       24.188       33.591     1012.010      585.065     1128.364        0.395        0.136       65.025       22.265        0.117      335.129        5.558      868.241
11/26/2013  11:03:00       42.004       80.276       33.990       57.170       48.097       49.798     3268.395     2313.292     2479.794        0.871        0.403       90.601       29.233        0.104      335.417        6.037      868.230
11/26/2013  11:04:00      139.532       90.280       28.667       79.645       48.986       54.060     6343.317     2399.659     2922.436        2.005        0.583      166.192       47.183        0.081      335.204        5.682      868.209
11/26/2013  11:05:00      113.781       97.371       22.780       36.574       39.595       42.292     1337.664     1567.735     1788.624        1.382        0.235      149.758       26.455        0.031      335.248        5.756      868.196
11/26/2013  11:06:00      101.320       87.034       -4.602       29.655       21.936       30.800      879.445      481.195      948.631        1.009        0.115      133.569       11.364        0.007      335.064        5.450      868.191
11/26/2013  11:07:00       81.934       58.029       -1.088       45.478       30.998       23.251     2068.273      960.887      540.595        0.683        0.178      100.402       13.999        0.019      335.345        5.917      868.169
11/26/2013  11:08:00       38.972       60.257       -2.051       30.481       34.305       19.786      929.113     1176.823      391.488        0.383        0.125       71.762       18.959        0.070      335.223        5.713      868.159
11/26/2013  11:09:00       23.158       48.858        5.773       21.538       43.776       27.334      463.881     1916.318      747.171        0.304        0.156       54.069       26.635        0.243      335.393        5.997      868.132
11/26/2013  11:10:00       53.974       59.337       -2.344       32.858       26.375       23.908     1079.641      695.666      571.569        0.439        0.117       80.213       18.550        0.053      335.425        6.050      868.105
11/26/2013  11:11:00      118.514       84.540        0.729       27.695       27.431       25.844      766.993      752.450      667.907        1.169        0.109      145.576       16.247        0.012      335.343        5.914      868.083
11/26/2013  11:12:00       75.220       68.225        6.535       34.481       32.610       33.330     1188.912     1063.418     1110.893        0.686        0.168      101.552       22.520        0.049      335.338        5.905      868.079
11/26/2013  11:13:00       54.837       38.115        3.852       32.476       39.223       21.501     1054.693     1538.449      462.306        0.376        0.153       66.782       13.038        0.038      335.313        5.864      868.071
11/26/2013  11:14:00       29.415       29.051       14.959       29.369       19.425       27.426      862.549      377.327      752.188        0.196        0.100       41.343        6.368        0.024      335.656        6.434      868.050
11/26/2013  11:15:00       74.177       71.587       22.696       55.268       43.989       35.076     3054.544     1935.038     1230.327        0.868        0.311      103.087       34.839        0.114      335.964        6.948      868.015
11/26/2013  11:16:00       83.693       78.263       57.713       71.893       59.311       56.284     5168.632     3517.831     3167.940        1.416        0.593      114.585       42.053        0.135      335.643        6.413      868.000
11/26/2013  11:17:00       78.445       71.644       14.105       19.680       32.783       24.252      387.301     1074.709      588.159        0.677        0.103      106.237       13.257        0.016      335.270        5.793      867.985
11/26/2013  11:18:00       50.120       38.000       -3.106       32.274       24.350       21.651     1041.589      592.924      468.759        0.303        0.105       62.897       20.771        0.109      335.276        5.802      867.953
11/26/2013  11:19:00       30.974       49.666       73.270       52.684       48.400       34.730     2775.560     2342.543     1206.197        0.756        0.316       58.533       32.847        0.315      335.748        6.589      867.919
11/26/2013  11:20:00       37.113       15.893       63.279       40.932       43.429       30.661     1675.420     1886.094      940.084        0.507        0.225       40.373       26.598        0.434      335.939        6.907      867.877
11/26/2013  11:21:00        4.601       62.401       94.244       35.812       47.141       35.067     1282.512     2222.241     1229.695        0.876        0.237       62.570       31.525        0.254      336.095        7.167      867.842
11/26/2013  11:22:00       61.797       96.726       96.729       54.898       50.029       42.196     3013.756     2502.885     1780.509        1.491        0.365      114.782       33.413        0.085      335.853        6.764      867.820
11/26/2013  11:23:00       94.660       95.459       83.675       67.443       47.300       37.286     4548.544     2237.278     1390.257        1.662        0.409      134.436       32.047        0.057      335.647        6.420      867.797
11/26/2013  11:24:00      -15.027       15.972       40.338       28.036       53.178       44.921      786.006     2827.893     2017.926        0.387        0.282       21.930       23.982        1.196      336.230        7.392      867.791
11/26/2013  11:25:00       45.733      -42.486       14.944       55.573       65.510       50.036     3088.351     4291.529     2503.599        0.700        0.494       62.422       42.567        0.465      335.965        6.950      867.787
11/26/2013  11:26:00       29.661       17.534       31.654       38.554       45.779       34.885     1486.416     2095.685     1216.967        0.349        0.240       34.456       25.390        0.543      335.957        6.937      867.784
11/26/2013  11:27:00       16.533        6.825       44.850       45.283       56.316       39.523     2050.557     3171.482     1562.090        0.456        0.339       17.886       35.204        3.874      336.121        7.210      867.774
11/26/2013  11:28:00       69.692       80.889       72.325       69.001       55.180       50.768     4761.136     3044.861     2577.392        1.351        0.519      106.771       47.374        0.197      335.888        6.823      867.753
11/26/2013  11:29:00       56.228       73.314       59.295       52.762       43.932       34.764     2783.776     1929.977     1208.525        0.899        0.296       92.393       24.669        0.071      335.996        7.002      867.739
11/26/2013  11:30:00       55.735       82.202       57.057       57.708       31.752       53.180     3330.269     1008.199     2828.151        1.014        0.358       99.316       32.293        0.106      335.643        6.413      867.708
11/26/2013  11:31:00      149.268      106.984       39.006       47.890       39.246       41.687     2293.415     1540.242     1737.799        2.041        0.279      183.647       30.786        0.028      335.624        6.380      867.693
11/26/2013  11:32:00       84.186       71.246       30.497       48.861       35.817       28.096     2387.379     1282.893      789.387        0.878        0.223      110.288       12.512        0.013      335.540        6.243      867.668
11/26/2013  11:33:00       22.591       63.543       65.841       42.914       43.764       29.909     1841.616     1915.274      894.535        0.677        0.233       67.439       28.537        0.179      336.067        7.120      867.645
11/26/2013  11:34:00      101.187       92.098        9.334       34.760       35.769       35.320     1208.283     1279.393     1247.482        1.127        0.187      136.824       23.197        0.029      335.674        6.464      867.617
11/26/2013  11:35:00       42.528       48.978       21.749       29.595       30.331       28.126      875.883      919.970      791.046        0.363        0.129       64.865       19.256        0.088      336.100        7.175      867.592
11/26/2013  11:36:00       31.712       20.937       55.549       44.844       36.226       22.453     2010.998     1312.296      504.124        0.418        0.191       38.000       20.755        0.298      336.339        7.575      867.577
11/26/2013  11:37:00       22.250       26.033       69.045       31.259       24.570       20.616      977.134      603.700      425.022        0.397        0.100       34.246       13.953        0.166      336.202        7.345      867.554
11/26/2013  11:38:00       67.313       84.212       65.118       62.539       37.510       40.211     3911.145     1407.001     1616.940        1.140        0.347      107.809       33.682        0.098      335.988        6.989      867.530
11/26/2013  11:39:00       25.886       25.906       29.997       24.142       24.325       29.798      582.853      591.694      887.949        0.215        0.103       36.623       21.957        0.359      336.069        7.124      867.513
11/26/2013  11:40:00       22.284       20.616       22.061       45.555       39.468       24.737     2075.302     1557.748      611.907        0.283        0.212       30.358       16.586        0.298      336.141        7.243      867.501
11/26/2013  11:41:00       65.049       88.625       57.760       70.220       41.382       46.032     4930.802     1712.490     2118.966        1.209        0.438      109.936       41.685        0.144      336.131        7.229      867.486
11/26/2013  11:42:00       54.144       55.115       29.468       60.267       30.593       50.892     3632.082      935.954     2589.971        0.700        0.358       77.261       40.983        0.281      336.111        7.194      867.481
11/26/2013  11:43:00       85.121       53.993       39.930       73.077       42.866       50.926     5340.227     1837.492     2593.420        1.076        0.489      100.801       48.021        0.227      336.073        7.129      867.475
11/26/2013  11:44:00       55.193       89.738       65.174       59.011       41.374       47.790     3482.288     1711.823     2283.906        1.141        0.374      105.353       35.463        0.113      336.205        7.351      867.458
11/26/2013  11:45:00       85.899       88.100       43.556       71.698       36.861       58.898     5140.664     1358.765     3468.995        1.350        0.498      123.046       40.668        0.109      336.060        7.109      867.453
11/26/2013  11:46:00       86.917       85.794       50.571       65.252       41.005       50.443     4257.808     1681.398     2544.466        1.298        0.424      122.127       43.714        0.128      336.046        7.085      867.426
11/26/2013  11:47:00       54.965       67.264      -11.224       35.662       32.870       23.572     1271.760     1080.444      555.652        0.529        0.145       86.865        8.953        0.011      335.957        6.936      867.414
11/26/2013  11:48:00        1.114        5.822       -3.406       18.292       24.899       15.255      334.605      619.949      232.705        0.062        0.059        5.928        9.719        2.688      336.020        7.042      867.385
11/26/2013  11:49:00       31.267       35.642      -21.550       26.808       66.988       34.702      718.663     4487.333     1204.237        0.456        0.321       47.413       21.023        0.197      335.971        6.959      867.344
11/26/2013  11:50:00       33.302       61.207        1.270       40.414       36.511       29.353     1633.289     1333.052      861.621        0.434        0.191       69.680       25.029        0.129      336.183        7.314      867.324
11/26/2013  11:51:00       39.609       36.742        7.460       59.727       39.858       32.128     3567.324     1588.676     1032.237        0.458        0.309       54.027       13.894        0.066      336.176        7.302      867.300
11/26/2013  11:52:00       51.629       74.970       -2.627       34.680       27.974       22.992     1202.732      782.536      528.618        0.540        0.126       91.028       12.828        0.020      336.444        7.750      867.279
11/26/2013  11:53:00       79.124       67.942       11.047       71.413       57.465       37.058     5099.839     3302.198     1373.289        1.039        0.489      104.292       25.145        0.058      336.456        7.770      867.271
11/26/2013  11:54:00       95.066       72.043       27.255       41.431       29.758       34.344     1716.560      885.566     1179.517        0.938        0.189      119.280       16.556        0.019      336.342        7.580      867.262
11/26/2013  11:55:00       71.510       73.486       23.186       37.352       30.550       28.838     1395.158      933.307      831.623        0.711        0.158      102.537       14.380        0.020      336.292        7.496      867.253
11/26/2013  11:56:00       68.128       42.314       16.535       49.407       41.864       40.086     2441.047     1752.602     1606.914        0.625        0.290       80.199       28.526        0.127      336.129        7.223      867.232
11/26/2013  11:57:00       89.899       55.687        2.165       30.047       28.477       24.320      902.813      810.928      591.457        0.675        0.115      105.749       15.688        0.022      335.930        6.892      867.205
11/26/2013  11:58:00       81.826       67.342       11.644       30.061       29.219       28.843      903.659      853.729      831.917        0.698        0.129      105.974       11.042        0.011      336.081        7.143      867.178
11/26/2013  11:59:00       11.968       81.358      -21.047       21.919       29.671       13.355      480.435      880.357      178.369        0.437        0.077       82.234        9.300        0.013      335.975        6.967      867.153
11/26/2013  12:00:00       -6.770       89.575      -17.508       23.270       32.302       16.528      541.488     1043.417      273.167        0.512        0.093       89.830       14.565        0.026      336.031        7.059      867.117
11/26/2013  12:01:00      -16.898       55.877        5.726       21.072       39.639       20.517      444.027     1571.259      420.950        0.294        0.122       58.376       24.219        0.172      336.520        7.878      867.094
11/26/2013  12:02:00       19.909       32.629        0.382       19.116       26.277       16.997      365.420      690.478      288.891        0.140        0.067       38.223        9.587        0.063      336.437        7.738      867.065
11/26/2013  12:03:00      -11.101        6.124       23.298       20.621       24.508       16.660      425.234      600.649      277.565        0.100        0.065       12.678        8.717        0.473      336.750        8.262      867.045
11/26/2013  12:04:00       51.001       34.068       18.229       37.325       29.440       21.385     1393.170      866.727      457.312        0.341        0.136       61.333        8.688        0.020      336.594        8.001      867.035
11/26/2013  12:05:00       34.078       41.809       40.008       47.037       41.419       43.484     2212.476     1715.511     1890.883        0.516        0.291       53.938       36.799        0.465      336.621        8.046      867.010
11/26/2013  12:06:00       11.573       83.434      101.006       37.062       46.380       31.087     1373.625     2151.087      966.381        1.089        0.225       84.232       29.338        0.121      336.481        7.813      866.985
11/26/2013  12:07:00       88.323       83.025       47.144       48.233       55.767       56.016     2326.401     3109.947     3137.785        1.274        0.429      121.219       49.285        0.165      336.216        7.369      866.975
11/26/2013  12:08:00       28.013       -7.164       13.321       40.604       35.518       33.325     1648.647     1261.513     1110.529        0.252        0.201       28.915       26.926        0.867      336.347        7.587      866.945
11/26/2013  12:09:00       39.236       46.613       34.418       41.161       30.146       34.585     1694.233      908.767     1196.115        0.435        0.190       60.928       30.181        0.245      336.646        8.089      866.926
11/26/2013  12:10:00       53.938       70.063        5.717       24.827       26.360       22.038      616.373      694.857      485.689        0.482        0.090       88.420       14.786        0.028      336.302        7.513      866.907
11/26/2013  12:11:00       13.861       64.087      -30.946       38.903       29.852       22.087     1513.455      891.144      487.822        0.407        0.145       65.569       17.293        0.070      336.168        7.289      866.890
11/26/2013  12:12:00      -44.733       -9.478      -18.943       18.792       26.397       16.885      353.147      696.789      285.116        0.189        0.067       45.726       11.970        0.069      336.194        7.331      866.887
11/26/2013  12:13:00      -30.601      -33.362        1.710       32.795       24.308       29.777     1075.499      590.876      886.678        0.230        0.128       45.271       14.849        0.108      336.543        7.915      866.872
11/26/2013  12:14:00        2.394       30.824       36.794       19.565       25.676       17.435      382.771      659.255      303.981        0.183        0.067       30.917       13.118        0.180      336.977        8.643      866.839
11/26/2013  12:15:00        6.780       59.379       82.607       36.855       45.712       29.254     1358.320     2089.602      855.770        0.735        0.215       59.765       27.059        0.205      336.876        8.473      866.833
11/26/2013  12:16:00       74.433      103.907       78.594       63.594       39.009       40.549     4044.161     1521.720     1644.247        1.486        0.361      127.816       35.538        0.077      336.427        7.722      866.809
11/26/2013  12:17:00      101.936       68.926       23.713       40.606       24.457       32.213     1648.856      598.125     1037.659        0.949        0.164      123.051       29.812        0.059      336.345        7.585      866.791
11/26/2013  12:18:00       38.945       74.514       -1.433       32.454       52.086       24.193     1053.276     2712.920      585.309        0.571        0.218       84.078       21.766        0.067      336.750        8.260      866.777
11/26/2013  12:19:00       42.889       22.153       -3.405       31.933       27.833       20.667     1019.721      774.699      427.144        0.228        0.111       48.272       14.111        0.085      336.703        8.182      866.766
11/26/2013  12:20:00       24.730       51.870       -9.829       22.217       21.396       22.837      493.579      457.769      521.546        0.244        0.074       57.463        7.955        0.019      336.582        7.981      866.739
11/26/2013  12:21:00       50.852       65.742        4.146       41.376       20.463       23.276     1712.001      418.741      541.794        0.480        0.134       83.114       10.186        0.015      336.461        7.779      866.730
11/26/2013  12:22:00       42.839       37.281       21.735       23.463       19.330       21.191      550.494      373.639      449.077        0.254        0.069       56.789       11.222        0.039      336.570        7.961      866.720
11/26/2013  12:23:00       51.144       46.611        5.670       20.182       30.663       30.297      407.298      940.238      917.922        0.354        0.113       69.197       22.903        0.110      336.668        8.126      866.687
11/26/2013  12:24:00       37.844       27.235        6.648       29.613       21.478       17.566      876.904      461.295      308.580        0.193        0.082       46.626       13.778        0.087      336.675        8.135      866.675
11/26/2013  12:25:00       13.171       46.651      -15.075       23.556       26.317       12.921      554.904      692.591      166.951        0.200        0.071       48.475        9.798        0.041      336.634        8.068      866.647
11/26/2013  12:26:00      -34.723      -21.410       -7.955       16.428       20.913       15.036      269.885      437.363      226.075        0.133        0.047       40.793       10.929        0.072      336.674        8.137      866.615
11/26/2013  12:27:00       62.929       40.895       43.175       64.189       55.016       32.872     4120.196     3026.710     1080.582        0.786        0.411       75.049       21.198        0.080      336.861        8.447      866.589
11/26/2013  12:28:00       70.013       49.166       46.855       66.897       50.928       38.817     4475.186     2593.696     1506.755        0.904        0.429       85.552       20.525        0.058      336.890        8.493      866.567
11/26/2013  12:29:00      118.167       63.289       32.337       34.029       44.584       38.133     1157.940     1987.762     1454.151        1.181        0.230      134.048       22.313        0.028      336.571        7.963      866.552
11/26/2013  12:30:00       95.859       27.089       24.718       47.433       39.846       35.265     2249.886     1587.738     1243.587        0.781        0.254       99.614       25.940        0.068      336.681        8.147      866.541
11/26/2013  12:31:00      113.624       42.685       21.532       48.483       34.831       38.790     2350.619     1213.219     1504.687        1.013        0.253      121.377       13.696        0.013      336.834        8.403      866.510
11/26/2013  12:32:00       25.287       35.831       28.860       34.074       30.815       28.798     1161.048      949.541      829.305        0.285        0.147       43.855       11.373        0.067      337.233        9.068      866.491
11/26/2013  12:33:00        2.327        8.198       49.214       24.471       50.000       27.704      598.813     2499.993      767.510        0.318        0.193        8.522       29.269       11.797      337.271        9.131      866.467
11/26/2013  12:34:00        9.355       29.245       19.474       35.128       49.591       28.649     1233.959     2459.286      820.740        0.292        0.226       30.705       26.646        0.753      337.188        8.993      866.447
11/26/2013  12:35:00       23.653       35.306       20.069       28.414       28.211       38.160      807.328      795.835     1456.170        0.263        0.153       42.497       19.392        0.208      337.132        8.900      866.425
11/26/2013  12:36:00       60.672       61.273       24.184       31.399       19.012       33.810      985.907      361.472     1143.115        0.525        0.125       86.229       20.474        0.056      337.075        8.804      866.409
11/26/2013  12:37:00       83.949       43.090        6.904       57.625       38.472       27.273     3320.611     1480.082      743.840        0.725        0.277       94.362       10.489        0.012      337.157        8.942      866.401
11/26/2013  12:38:00      110.798       72.966        6.999       52.154       37.334       38.654     2720.039     1393.836     1494.161        1.163        0.280      132.666       26.544        0.040      337.020        8.713      866.386
11/26/2013  12:39:00       99.012       52.457       17.279       23.531       28.097       28.340      553.701      789.451      803.154        0.750        0.107      112.050       18.416        0.027      336.716        8.205      866.378
11/26/2013  12:40:00       59.653       25.384        3.212       31.154       39.286       27.901      970.586     1543.397      778.488        0.375        0.165       64.829       18.622        0.083      336.880        8.480      866.361
11/26/2013  12:41:00      101.144       57.190       24.703       64.732       33.988       32.595     4190.247     1155.175     1062.406        1.026        0.320      116.193       25.625        0.049      337.008        8.693      866.330
11/26/2013  12:42:00       50.968       61.679       57.130       53.612       53.841       32.824     2874.259     2898.895     1077.429        0.826        0.343       80.013       27.746        0.120      337.241        9.082      866.306
11/26/2013  12:43:00       14.092       33.537       30.195       31.010       28.633       22.939      961.595      819.851      526.214        0.227        0.115       36.377       13.064        0.129      337.445        9.424      866.289
11/26/2013  12:44:00       88.892       69.399       33.501       32.484       29.489       34.718     1055.226      869.590     1205.323        0.848        0.157      112.774       14.371        0.016      337.103        8.852      866.267
11/26/2013  12:45:00       44.888       33.807       63.087       39.976       53.536       34.865     1598.115     2866.073     1215.563        0.641        0.284       56.194       31.266        0.310      337.192        9.000      866.260
11/26/2013  12:46:00       49.203       74.202       69.430       39.369       28.872       23.343     1549.945      833.572      544.902        0.784        0.146       89.033       18.762        0.044      337.158        8.943      866.245
11/26/2013  12:47:00       80.197       80.764       19.138       40.628       32.215       45.159     1650.647     1037.779     2039.332        0.902        0.236      113.817        9.523        0.007      337.013        8.700      866.222
11/26/2013  12:48:00       -6.317       55.335       -1.720       23.983       34.800       22.878      575.163     1211.057      523.413        0.271        0.115       55.694       14.077        0.064      337.205        9.022      866.209
11/26/2013  12:49:00       16.155       57.402      -14.079       18.948       26.321       14.624      359.015      692.817      213.872        0.251        0.063       59.631       11.504        0.037      337.052        8.765      866.191
11/26/2013  12:50:00      -21.283       24.925       -8.412       26.442       35.807       20.418      699.174     1282.159      416.893        0.177        0.120       32.775       19.149        0.341      337.252        9.101      866.172
11/26/2013  12:51:00      -67.720       13.379      -26.886       25.677       22.124       16.059      659.321      489.482      257.887        0.345        0.070       69.029       13.583        0.039      336.981        8.647      866.161
11/26/2013  12:52:00        1.383       34.004       15.290       70.601       23.987       35.419     4984.516      575.365     1254.494        0.410        0.341       34.032       43.709        1.650      337.285        9.156      866.158
11/26/2013  12:53:00       49.727       17.055       -2.912       14.723       35.245       16.516      216.765     1242.208      272.788        0.225        0.087       52.570        9.354        0.032      337.088        8.824      866.137
11/26/2013  12:54:00       61.377       45.179       27.346       34.635       31.062       33.473     1199.558      964.871     1120.448        0.492        0.164       76.212        6.674        0.008      337.280        9.147      866.130
11/26/2013  12:55:00       62.573       64.504        3.100       57.652       41.672       31.248     3323.729     1736.588      976.449        0.706        0.302       89.867       32.232        0.129      337.221        9.049      866.117
11/26/2013  12:56:00       45.851       99.610       -9.573       30.510       46.373       34.204      930.864     2150.481     1169.880        0.818        0.213      109.656       29.476        0.072      337.115        8.872      866.112
11/26/2013  12:57:00       56.231       87.265       -1.191       46.261       52.493       35.482     2140.079     2755.475     1259.005        0.847        0.308      103.813       33.449        0.104      337.113        8.868      866.107
11/26/2013  12:58:00       53.204       93.678        6.268       42.924       40.050       33.135     1842.512     1604.023     1097.953        0.809        0.227      107.733       32.355        0.090      337.186        8.989      866.098
11/26/2013  12:59:00       13.103       31.256        2.424       36.933       41.813       17.852     1364.059     1748.353      318.696        0.229        0.172       33.891       12.114        0.128      337.423        9.389      866.104
11/26/2013  13:00:00       57.041       44.580       54.809       55.700       51.345       36.272     3102.538     2636.332     1315.680        0.765        0.353       72.395       31.197        0.186      337.553        9.605      866.096
11/26/2013  13:01:00       73.524       56.758       10.060       49.062       34.391       40.449     2407.081     1182.771     1636.134        0.698        0.261       92.883       20.826        0.050      337.522        9.552      866.096
11/26/2013  13:02:00       52.168       40.815       12.528       39.884       42.298       22.556     1590.731     1789.126      508.774        0.422        0.194       66.238       17.964        0.074      337.650        9.768      866.082
11/26/2013  13:03:00       -2.392      -15.559        1.471       20.703       38.807       16.551      428.619     1505.981      273.952        0.123        0.110       15.742       12.945        0.676      337.355        9.273      866.067
11/26/2013  13:04:00      -45.041       50.075       -0.664       30.136       25.387       26.006      908.156      644.479      676.297        0.338        0.111       67.352       17.123        0.065      337.587        9.663      866.048
11/26/2013  13:05:00      -63.197       37.611       -8.403       25.594       29.286       29.689      655.074      857.669      881.423        0.394        0.120       73.542       19.352        0.069      337.605        9.691      866.030
11/26/2013  13:06:00      -12.061       44.289       18.149       29.021       28.692       23.346      842.213      823.206      545.038        0.232        0.111       45.902       12.528        0.074      337.837       10.081      866.018
11/26/2013  13:07:00      -10.245       46.974        6.518       22.158       34.396       21.680      490.956     1183.111      470.038        0.225        0.107       48.078       11.294        0.055      337.910       10.203      865.999
11/26/2013  13:08:00      -24.254       95.952      -11.844       30.424       29.840       22.748      925.633      890.398      517.486        0.613        0.117       98.970       16.441        0.028      337.475        9.475      865.978
11/26/2013  13:09:00       -9.888      112.876      -12.908       19.283       31.929       18.386      371.851     1019.453      338.046        0.737        0.086      113.308       15.986        0.020      337.445        9.424      865.964
11/26/2013  13:10:00       25.768       61.857      -12.192       22.517       27.739       19.295      506.999      769.448      372.278        0.314        0.082       67.010       10.745        0.026      337.516        9.542      865.944
11/26/2013  13:11:00       27.963       11.780       -2.096       10.522       19.248       14.511      110.706      370.487      210.579        0.081        0.035       30.343        7.901        0.068      337.422        9.385      865.920
11/26/2013  13:12:00       20.767       21.092       10.885       29.243       17.795       17.529      855.135      316.655      307.258        0.124        0.074       29.600       16.409        0.307      337.717        9.880      865.874
11/26/2013  13:13:00       54.159       56.184       41.861       57.767       38.078       46.080     3337.019     1449.925     2123.355        0.737        0.346       78.037       31.970        0.168      337.807       10.032      865.847
11/26/2013  13:14:00       50.765       69.402       63.848       58.047       57.581       38.552     3369.508     3315.558     1486.227        0.982        0.409       85.987       26.943        0.098      337.846       10.096      865.810
11/26/2013  13:15:00       97.626       72.421       33.822       46.056       38.688       37.835     2121.195     1496.788     1431.476        1.048        0.252      121.555       26.648        0.048      337.626        9.727      865.796
11/26/2013  13:16:00       62.187       26.249        0.519       36.575       26.916       26.365     1337.756      724.489      695.129        0.366        0.138       67.500       16.025        0.056      337.425        9.388      865.781
11/26/2013  13:17:00       37.733       48.906       32.216       42.280       26.870       36.646     1787.630      721.991     1342.932        0.435        0.193       61.770       30.053        0.237      337.734        9.908      865.745
11/26/2013  13:18:00       30.493       40.725       83.103       56.771       54.314       54.311     3222.932     2949.966     2949.725        0.931        0.456       50.876       41.939        0.680      337.945       10.262      865.716
11/26/2013  13:19:00       90.250      126.393      116.219       87.026       57.777       51.622     7573.540     3338.125     2664.792        2.560        0.679      155.307       46.921        0.091      337.527        9.560      865.703
11/26/2013  13:20:00      116.462       55.546       49.086       46.074       46.027       32.514     2122.822     2118.500     1057.144        1.218        0.265      129.030       25.416        0.039      337.488        9.495      865.706
11/26/2013  13:21:00       57.702       23.423       47.576       38.032       49.697       35.538     1446.456     2469.807     1262.939        0.566        0.259       62.275       36.670        0.347      337.586        9.660      865.714
11/26/2013  13:22:00       92.239       35.379       33.516       36.515       47.548       26.747     1333.372     2260.846      715.415        0.760        0.215       98.791       24.485        0.061      337.583        9.656      865.703
11/26/2013  13:23:00       68.026       46.690       65.795       63.834       55.607       54.670     4074.730     3092.191     2988.764        1.064        0.508       82.507       43.740        0.281      337.697        9.847      865.698
11/26/2013  13:24:00      101.017       63.135       33.760       64.309       41.700       53.217     4135.701     1738.915     2832.027        1.202        0.435      119.124       50.761        0.182      337.672        9.804      865.709
11/26/2013  13:25:00      101.677       69.325        5.336       48.978       37.796       33.639     2398.796     1428.548     1131.586        1.006        0.248      123.062       14.508        0.014      337.612        9.704      865.704
11/26/2013  13:26:00       71.271       66.901        8.877       33.014       33.220       29.903     1089.910     1103.536      894.199        0.636        0.154       97.752       22.023        0.051      337.652        9.771      865.698
11/26/2013  13:27:00       65.462       54.668       31.353       31.492       22.148       29.047      991.754      490.514      843.731        0.529        0.116       85.287       15.590        0.033      337.870       10.136      865.699
11/26/2013  13:28:00       35.161       49.867       73.506       44.210       39.046       41.906     1954.543     1524.581     1756.095        0.718        0.262       61.017       25.089        0.169      337.892       10.173      865.691
11/26/2013  13:29:00       46.512       84.943       83.755       37.967       34.279       36.529     1441.484     1175.035     1334.363        1.017        0.198       96.843       16.675        0.030      337.734        9.909      865.680
11/26/2013  13:30:00       45.384       47.170       52.729       36.927       27.448       30.878     1363.583      753.407      953.478        0.507        0.154       65.458       24.166        0.136      337.874       10.142      865.686
11/26/2013  13:31:00       81.469       58.907       25.195       35.773       38.675       30.979     1279.718     1495.760      959.710        0.724        0.187      100.535       16.077        0.026      337.812       10.039      865.683
11/26/2013  13:32:00       46.745       43.125       18.704       27.350       23.646       31.597      748.034      559.151      998.352        0.335        0.115       63.599       18.173        0.082      337.714        9.875      865.671
11/26/2013  13:33:00       88.526       82.524       55.639       52.787       39.731       39.788     2786.488     1578.576     1583.080        1.184        0.297      121.025       29.564        0.060      337.707        9.864      865.656
11/26/2013  13:34:00       62.885       69.990       46.372       73.081       46.247       51.549     5340.897     2138.744     2657.284        1.057        0.507       94.091       37.599        0.160      337.807       10.031      865.643
11/26/2013  13:35:00       20.272       82.178      104.917       40.888       50.525       32.901     1671.811     2552.804     1082.498        1.174        0.265       84.641       33.821        0.160      337.796       10.012      865.639
11/26/2013  13:36:00       73.007       44.463       53.917       37.870       41.406       32.317     1434.140     1714.465     1044.411        0.720        0.210       85.481       25.975        0.092      337.816       10.045      865.633
11/26/2013  13:37:00       94.510       41.042        9.665       38.900       24.243       27.246     1513.213      587.716      742.337        0.678        0.142      103.037       24.901        0.058      337.716        9.879      865.622
11/26/2013  13:38:00       94.930       32.218       23.732       45.974       57.684       37.179     2113.635     3327.466     1382.289        0.872        0.341      100.248       17.117        0.029      337.733        9.907      865.615
11/26/2013  13:39:00       69.654       31.678       20.757       58.457       59.743       22.818     3417.216     3569.203      520.672        0.690        0.375       76.519       21.361        0.078      337.818       10.051      865.603
11/26/2013  13:40:00       66.420       63.630       12.957       56.521       40.635       28.815     3194.620     1651.223      830.333        0.715        0.284       91.980       19.825        0.046      337.787        9.996      865.598
11/26/2013  13:41:00       81.156       71.656       25.219       46.670       42.181       44.464     2178.085     1779.210     1977.038        0.914        0.297      108.263       27.556        0.065      337.872       10.139      865.586
11/26/2013  13:42:00        2.271       70.969       94.987       35.726       49.237       32.238     1276.368     2424.274     1039.309        0.940        0.237       71.006       34.057        0.230      338.099       10.522      865.575
11/26/2013  13:43:00        4.377       60.788       80.835       41.396       48.403       37.982     1713.666     2342.869     1442.636        0.787        0.275       60.945       33.699        0.306      338.049       10.437      865.561
11/26/2013  13:44:00       94.994       59.797       22.183       38.958       29.726       25.499     1517.751      883.621      650.215        0.807        0.153      112.248       22.797        0.041      337.855       10.110      865.546
11/26/2013  13:45:00      103.675       56.934        6.524       31.527       33.609       29.590      993.923     1129.534      875.558        0.852        0.150      118.279       15.607        0.017      338.013       10.377      865.527
11/26/2013  13:46:00      115.363       65.008       13.175       51.664       40.774       29.790     2669.169     1662.535      887.457        1.146        0.261      132.418       17.340        0.017      337.985       10.328      865.513
11/26/2013  13:47:00       47.164       67.517       10.249       44.083       50.573       37.620     1943.354     2557.629     1415.244        0.640        0.296       82.358       26.756        0.106      337.911       10.205      865.504
11/26/2013  13:48:00       26.742       29.411        3.612       38.086       25.944       29.382     1450.555      673.083      863.326        0.229        0.149       39.751       18.558        0.218      337.994       10.344      865.495
11/26/2013  13:49:00       67.166       72.362       79.447       66.121       55.168       46.490     4371.948     3043.497     2161.286        1.282        0.479       98.730       45.941        0.217      337.997       10.348      865.493
11/26/2013  13:50:00       41.316      -10.068       30.628       23.675       44.464       29.291      560.499     1977.084      857.960        0.307        0.170       42.525       23.315        0.301      337.934       10.243      865.476
11/26/2013  13:51:00       25.414       53.397        6.259       28.616       28.032       26.755      818.901      785.792      715.855        0.293        0.116       59.136       21.489        0.132      338.052       10.441      865.456
11/26/2013  13:52:00       49.523       45.945       40.835       50.452       41.118       35.429     2545.388     1690.692     1255.197        0.586        0.275       67.553       27.370        0.164      338.006       10.364      865.426
11/26/2013  13:53:00        5.664       32.980       29.337       18.843       23.535       20.608      355.048      553.887      424.684        0.166        0.067       33.463       11.848        0.125      338.149       10.604      865.406
11/26/2013  13:54:00       25.259       78.237       -0.708       39.621       45.968       33.029     1569.818     2113.085     1090.884        0.577        0.239       82.213       30.895        0.141      337.950       10.270      865.390
11/26/2013  13:55:00       67.860       63.660       10.688       66.937       43.806       28.320     4480.542     1918.968      802.049        0.799        0.360       93.047       20.124        0.047      338.059       10.454      865.370
11/26/2013  13:56:00       88.661       31.240        2.829       45.523       38.771       24.121     2072.331     1503.173      581.838        0.650        0.208       94.004        9.120        0.009      337.961       10.289      865.363
11/26/2013  13:57:00       44.804        8.025        6.137       31.547       35.937       28.064      995.213     1291.486      787.586        0.259        0.154       45.517       28.121        0.382      338.085       10.497      865.348
11/26/2013  13:58:00      -13.891      -27.219       15.088       28.234       32.053       24.695      797.144     1027.380      609.864        0.180        0.122       30.558       13.041        0.182      338.261       10.793      865.325
11/26/2013  13:59:00       24.138      -37.739       19.115       35.618       37.244       27.608     1268.648     1387.149      762.181        0.289        0.171       44.798       16.689        0.139      338.339       10.923      865.301
11/26/2013  14:00:00       34.063       23.494       13.819       26.842       17.292       17.851      720.470      299.000      318.667        0.162        0.067       41.379       15.821        0.146      338.111       10.541      865.274
11/26/2013  14:01:00        4.304       17.696       30.008       17.808       18.206       21.071      317.140      331.471      443.974        0.116        0.055       18.212       11.536        0.401      338.415       11.051      865.247
11/26/2013  14:02:00       24.256       37.486       40.313       32.712       37.569       38.178     1070.099     1411.445     1457.561        0.378        0.197       44.649       26.647        0.356      338.322       10.894      865.237
11/26/2013  14:03:00       34.238       79.684       71.457       56.036       40.936       55.808     3139.987     1675.793     3114.514        1.028        0.397       86.729       45.753        0.278      338.245       10.765      865.227
11/26/2013  14:04:00       41.454       45.445       34.579       37.283       34.281       36.729     1390.015     1175.211     1349.021        0.445        0.196       61.511       13.024        0.045      338.297       10.855      865.227
11/26/2013  14:05:00       67.455       39.605       34.894       27.892       22.253       25.236      777.984      495.179      636.866        0.462        0.096       78.223       16.042        0.042      338.061       10.458      865.232
11/26/2013  14:06:00       13.000       -6.003       11.981       18.176       14.841       15.862      330.360      220.263      251.598        0.058        0.040       14.319        9.234        0.416      338.226       10.735      865.232
11/26/2013  14:07:00       19.242       11.593       -4.424        6.120        8.165        6.744       37.452       66.662       45.479        0.034        0.007       22.464        2.796        0.015      338.005       10.361      865.223
11/26/2013  14:08:00        7.711      -15.069       -2.048       15.862       23.039       13.398      251.595      530.803      179.505        0.063        0.048       16.927       12.681        0.561      338.211       10.709      865.226
11/26/2013  14:09:00       -3.358      -33.039        1.629       12.527       21.392       18.012      156.930      457.612      324.425        0.102        0.047       33.209        8.960        0.073      338.400       11.026      865.217
11/26/2013  14:10:00       12.640        8.166       19.921       17.558       17.317       15.185      308.288      299.880      230.583        0.073        0.042       15.048       16.287        1.171      338.560       11.295      865.201
11/26/2013  14:11:00        5.040       12.145       -1.230       36.043       18.591       17.077     1299.132      345.633      291.639        0.106        0.097       13.149       11.555        0.772      338.252       10.779      865.199
11/26/2013  14:12:00       -0.938       63.325      -14.661       35.010       37.026       21.560     1225.715     1370.934      464.849        0.364        0.153       63.332       21.384        0.114      338.253       10.779      865.184
11/26/2013  14:13:00       -2.774       71.129      -16.568       31.442       26.119       13.226      988.594      682.217      174.929        0.359        0.092       71.183        7.182        0.010      338.231       10.743      865.186
11/26/2013  14:14:00       15.326        8.953       21.188       19.864       46.637       27.761      394.581     2175.026      770.655        0.205        0.167       17.749       27.803        2.454      338.378       10.989      865.191
11/26/2013  14:15:00       28.607       20.702       16.824       42.540       29.107       31.060     1809.628      847.217      964.730        0.258        0.181       35.312       27.250        0.595      338.287       10.836      865.191
11/26/2013  14:16:00       28.359       30.283       24.642       40.438       38.888       27.809     1635.192     1512.268      773.343        0.312        0.196       41.489       22.627        0.297      338.244       10.763      865.195
11/26/2013  14:17:00       18.800       10.625       12.858       26.451       34.238       20.245      699.664     1172.237      409.851        0.146        0.114       21.594       19.410        0.808      338.400       11.025      865.186
11/26/2013  14:18:00       45.872       12.158       11.471       30.016       17.303       19.330      900.967      299.401      373.649        0.198        0.079       47.456       15.886        0.112      338.326       10.902      865.182
11/26/2013  14:19:00       18.737      -16.304       21.651       22.318       42.003       25.562      498.105     1764.268      653.421        0.200        0.146       24.837       26.611        1.148      338.449       11.107      865.177
11/26/2013  14:20:00       23.938       10.015       51.623       36.538       68.643       36.155     1335.056     4711.906     1307.201        0.534        0.368       25.948       45.724        3.105      338.386       11.003      865.173
11/26/2013  14:21:00       40.040       58.355       60.113       55.194       35.826       40.299     3046.403     1283.515     1624.019        0.729        0.298       70.771       44.026        0.387      338.288       10.838      865.176
11/26/2013  14:22:00       67.287       66.739       49.793       33.962       26.125       35.485     1153.411      682.532     1259.211        0.728        0.155       94.772       27.255        0.083      338.226       10.733      865.184
11/26/2013  14:23:00       19.826       38.824        0.248       26.761       16.196        7.712      716.164      262.320       59.468        0.147        0.052       43.593        7.317        0.028      338.195       10.683      865.192
11/26/2013  14:24:00        4.484       46.644       -4.805        6.938        8.978        8.203       48.137       80.609       67.287        0.121        0.010       46.859        4.699        0.010      338.220       10.722      865.194
11/26/2013  14:25:00       55.914       33.566       13.628       31.111       17.162       15.732      967.900      294.541      247.496        0.297        0.075       65.216       10.556        0.026      338.285       10.832      865.195
11/26/2013  14:26:00       51.732       20.604       10.849       19.618       24.614       17.673      384.857      605.843      312.333        0.226        0.065       55.685       14.510        0.068      338.224       10.731      865.194
11/26/2013  14:27:00       61.035       38.971       26.229       30.640       19.725       20.094      938.806      389.092      403.785        0.383        0.087       72.416       15.122        0.044      338.262       10.795      865.181
11/26/2013  14:28:00       85.226       74.172        1.232       29.318       23.021       20.160      859.521      529.964      406.407        0.728        0.090      112.982       11.639        0.011      338.308       10.872      865.166
11/26/2013  14:29:00       48.248       11.405       12.978       24.714       17.823       24.019      610.766      317.671      576.892        0.207        0.075       49.577       17.301        0.122      338.288       10.839      865.161
11/26/2013  14:30:00        6.939       31.839        5.914        8.237       15.750       11.659       67.855      248.069      135.938        0.077        0.023       32.586        5.874        0.032      338.318       10.888      865.151
11/26/2013  14:31:00       43.323       34.219       23.060       31.813       20.443       17.712     1012.046      417.901      313.701        0.266        0.087       55.207       13.627        0.061      338.387       11.004      865.128
11/26/2013  14:32:00       42.112      -39.716        2.572       28.245       29.135       20.422      797.790      848.851      417.051        0.271        0.103       57.886       14.117        0.059      338.435       11.084      865.124
11/26/2013  14:33:00       27.838       21.528       32.922       31.035       30.789       27.007      963.185      947.941      729.382        0.248        0.132       35.191       21.163        0.362      338.462       11.128      865.108
11/26/2013  14:34:00       -5.235       24.529       49.862       33.951       42.423       36.549     1152.688     1799.684     1335.829        0.370        0.214       25.081       31.306        1.558      338.566       11.305      865.096
11/26/2013  14:35:00       26.184       48.178       15.343       31.428       32.106       26.793      987.698     1030.813      717.872        0.299        0.137       54.833       22.093        0.162      338.438       11.090      865.090
11/26/2013  14:36:00       71.006       50.744        3.578       32.872       22.601       19.121     1080.563      510.812      365.626        0.479        0.098       87.274       10.537        0.015      338.365       10.967      865.089
11/26/2013  14:37:00       33.133       40.356        3.530       37.029       36.330       31.645     1371.134     1319.849     1001.377        0.321        0.185       52.215       23.554        0.203      338.441       11.094      865.086
11/26/2013  14:38:00       60.728       34.533        2.616       42.402       30.509       22.240     1797.931      930.788      494.612        0.405        0.161       69.860       14.407        0.043      338.441       11.095      865.080
11/26/2013  14:39:00       99.942       62.703       19.406       34.994       29.900       30.691     1224.551      893.987      941.926        0.868        0.153      117.983       11.712        0.010      338.291       10.843      865.079
11/26/2013  14:40:00       87.533       68.939       28.791       43.808       28.371       33.729     1919.159      804.889     1137.622        0.855        0.193      111.421       25.421        0.052      338.330       10.910      865.074
11/26/2013  14:41:00       57.271       48.814       31.188       18.729       16.062       20.192      350.773      257.983      407.698        0.383        0.051       75.251        6.516        0.007      338.422       11.062      865.078
11/26/2013  14:42:00       25.608       37.916       49.401       33.049       33.907       19.023     1092.224     1149.677      361.857        0.357        0.130       45.753       10.525        0.053      338.602       11.364      865.067
11/26/2013  14:43:00       35.321      -85.638        7.556       37.533       32.160       23.218     1408.755     1034.288      539.083        0.581        0.149       92.636       19.887        0.046      338.527       11.239      865.068
11/26/2013  14:44:00       34.813      -47.421        4.435       28.220       33.902       27.094      796.380     1149.367      734.061        0.308        0.134       58.827       27.605        0.220      338.482       11.164      865.059
11/26/2013  14:45:00       25.816       40.409       53.894       29.426       37.124       24.646      865.886     1378.193      607.414        0.403        0.143       47.952       24.395        0.259      338.551       11.278      865.053
11/26/2013  14:46:00       40.930      -87.183      -11.912       20.055       18.111       19.231      402.188      327.999      369.829        0.526        0.055       96.313       15.061        0.024      338.473       11.147      865.049
11/26/2013  14:47:00       40.023      -30.899        4.757       28.713       51.436       23.215      824.450     2645.657      538.951        0.329        0.200       50.563       29.125        0.332      338.516       11.220      865.038
11/26/2013  14:48:00       24.395      -42.035       10.812       21.882       39.661       24.986      478.801     1572.961      624.281        0.258        0.134       48.601       25.801        0.282      338.568       11.309      865.025
11/26/2013  14:49:00       64.602       50.336       32.021       41.427       23.415       29.553     1716.237      548.264      873.373        0.543        0.157       81.897       12.154        0.022      338.487       11.172      865.017
11/26/2013  14:50:00       72.223       44.465       27.087       51.639       36.022       36.649     2666.601     1297.563     1343.180        0.662        0.265       84.813       34.903        0.169      338.433       11.081      864.995
11/26/2013  14:51:00       45.960       42.598       34.161       44.122       54.705       39.092     1946.718     2992.659     1528.181        0.578        0.323       62.665       35.945        0.329      338.466       11.138      864.985
11/26/2013  14:52:00        5.526      -15.802       13.701       32.630       54.319       24.801     1064.719     2950.527      615.072        0.255        0.232       16.741       19.933        1.418      338.638       11.426      864.983
11/26/2013  14:53:00       14.560      -15.370       21.015       23.985       44.284       22.473      575.296     1961.044      505.048        0.197        0.152       21.171       18.258        0.744      338.596       11.355      864.980
11/26/2013  14:54:00        3.996       -4.774       12.617       15.609       49.559       19.777      243.651     2456.133      391.111        0.164        0.155        6.226       21.733       12.186      338.663       11.468      864.977
11/26/2013  14:55:00       31.814      -42.358       23.288       33.760       54.506       23.016     1139.734     2970.906      529.743        0.399        0.232       52.975       26.834        0.257      338.650       11.445      864.968
11/26/2013  14:56:00       36.253       53.702       43.098       23.160       21.849       20.770      536.381      477.380      431.403        0.375        0.072       64.793       14.029        0.047      338.600       11.361      864.959
11/26/2013  14:57:00        2.890       21.692       28.762       35.284       34.497       26.237     1244.946     1190.063      688.368        0.221        0.156       21.884       22.615        1.068      338.716       11.555      864.951
11/26/2013  14:58:00       31.649       37.671       43.354       25.067       27.348       24.911      628.344      747.891      620.542        0.315        0.100       49.201       17.107        0.121      338.612       11.382      864.933
11/26/2013  14:59:00       25.449       26.253        6.405       17.626       18.177       13.887      310.687      330.390      192.859        0.111        0.042       36.563       12.685        0.120      338.616       11.389      864.914
11/26/2013  15:00:00       26.668       10.304       17.546       19.692       41.220       20.197      387.782     1699.121      407.912        0.181        0.125       28.590       20.484        0.513      338.633       11.416      864.906
11/26/2013  15:01:00      -14.445      -68.377       14.237       31.750       32.689       24.743     1008.089     1068.596      612.235        0.389        0.134       69.886       12.714        0.033      338.780       11.664      864.891
11/26/2013  15:02:00       10.538       -4.501       12.526       14.890       16.747       13.803      221.704      280.475      190.532        0.049        0.035       11.459       14.122        1.519      338.720       11.564      864.886
11/26/2013  15:03:00        9.142        6.921       23.328       18.497       20.679       14.537      342.144      427.610      211.316        0.083        0.049       11.466        5.814        0.257      338.735       11.589      864.881
11/26/2013  15:04:00       81.973       23.527       41.882       41.386       32.022       30.037     1712.764     1025.403      902.212        0.633        0.182       85.282       28.227        0.110      338.487       11.172      864.885
11/26/2013  15:05:00       57.015       40.518       27.921       31.308       30.586       29.303      980.206      935.477      858.662        0.422        0.139       69.945       21.423        0.094      338.499       11.192      864.893
11/26/2013  15:06:00       46.577       29.711        1.597       25.677       13.487       22.533      659.317      181.910      507.740        0.220        0.067       55.247       10.488        0.036      338.493       11.181      864.895
11/26/2013  15:07:00        7.999        4.205        6.744       19.913       35.341       16.167      396.521     1248.960      261.375        0.102        0.095        9.037       15.286        2.861      338.629       11.410      864.899
11/26/2013  15:08:00       26.406       57.347       54.019       28.615       29.830       31.024      818.838      889.838      962.511        0.479        0.134       63.135       27.137        0.185      338.566       11.304      864.897
11/26/2013  15:09:00       52.107       44.686       29.780       19.922       26.712       31.111      396.905      713.510      967.882        0.384        0.104       68.644       22.144        0.104      338.511       11.212      864.903
11/26/2013  15:10:00       18.800        5.602       35.315       22.561       21.423       18.250      508.990      458.947      333.051        0.147        0.065       19.617       12.475        0.404      338.697       11.525      864.910
11/26/2013  15:11:00       19.472      -72.298       -8.847       16.333       35.700       14.646      266.770     1274.459      214.503        0.372        0.088       74.874        6.206        0.007      338.677       11.490      864.915
11/26/2013  15:12:00       14.422      -27.802       26.143       30.381       71.587       37.300      922.993     5124.689     1391.262        0.455        0.372       31.320       50.597        2.610      338.793       11.686      864.920
11/26/2013  15:13:00       25.600      -16.275       20.681       42.903       44.144       33.246     1840.639     1948.717     1105.294        0.312        0.245       30.335       38.955        1.649      338.755       11.621      864.936
11/26/2013  15:14:00       22.261       15.252       20.130       35.053       48.443       25.713     1228.740     2346.708      661.142        0.268        0.212       26.985       33.703        1.560      338.650       11.446      864.944
11/26/2013  15:15:00       31.555       23.710        6.902       25.314       23.728       14.002      640.802      563.024      196.047        0.150        0.070       39.470       14.872        0.142      338.633       11.417      864.945
11/26/2013  15:16:00       20.924      -18.069       10.402       28.166       19.689       16.171      793.347      387.665      261.508        0.116        0.072       27.646       16.827        0.370      338.777       11.659      864.941
11/26/2013  15:17:00      -11.417      -54.021        0.861       31.262       35.758       22.562      977.292     1278.623      509.024        0.291        0.138       55.214       17.271        0.098      338.908       11.879      864.941
11/26/2013  15:18:00       16.419      -44.914        1.598       24.486       43.621       18.941      599.570     1902.777      358.751        0.257        0.143       47.821       23.503        0.242      338.706       11.541      864.934
11/26/2013  15:19:00       19.519        1.593       23.232       29.203       27.761       17.659      852.791      770.668      311.849        0.143        0.097       19.584       21.282        1.181      338.777       11.659      864.932
11/26/2013  15:20:00       64.957      -66.780        3.723       35.612       42.290       23.729     1268.211     1788.469      563.044        0.616        0.181       93.161       26.567        0.081      338.643       11.434      864.930
11/26/2013  15:21:00       79.668      -85.416      -28.590       21.995       22.282       18.084      483.768      496.500      327.037        0.788        0.065      116.803       13.582        0.014      338.555       11.286      864.925
11/26/2013  15:22:00       40.630      -56.397       -5.145       25.198       36.722       23.734      634.952     1348.517      563.316        0.370        0.127       69.508       18.600        0.072      338.591       11.347      864.921
11/26/2013  15:23:00       47.753      -30.545        8.346       25.075       38.278       25.298      628.740     1465.182      639.993        0.301        0.137       56.686       25.990        0.210      338.590       11.344      864.911
11/26/2013  15:24:00       33.729       27.286       21.370       30.481       20.013       18.514      929.099      400.538      342.780        0.201        0.084       43.384        4.881        0.013      338.583       11.333      864.902
11/26/2013  15:25:00       68.547       24.082       30.538       39.800       42.193       25.747     1584.053     1780.277      662.910        0.512        0.201       72.655       23.571        0.105      338.591       11.347      864.900
11/26/2013  15:26:00       74.831       46.351        7.270       25.988       28.496       31.997      675.393      812.019     1023.825        0.516        0.126       88.023       17.483        0.039      338.548       11.275      864.902
11/26/2013  15:27:00       43.741       43.794       10.056       20.302       18.305       17.240      412.168      335.070      297.233        0.249        0.052       61.897       13.113        0.045      338.525       11.235      864.890
11/26/2013  15:28:00        2.965       33.320       28.515       18.613       20.811       15.905      346.430      433.118      252.977        0.148        0.052       33.452        9.714        0.084      338.643       11.433      864.869
11/26/2013  15:29:00       18.070       61.070       72.550       43.385       36.571       30.612     1882.268     1337.405      937.123        0.674        0.208       63.687       30.754        0.233      338.625       11.403      864.850
11/26/2013  15:30:00       38.203       17.644        7.015       29.184       23.188       22.626      851.690      537.698      511.946        0.186        0.095       42.081       13.487        0.103      338.588       11.341      864.832
11/26/2013  15:31:00       57.733       46.280       -1.744       16.494       26.995       22.499      272.054      728.713      506.198        0.349        0.075       73.993       12.496        0.029      338.543       11.266      864.821
11/26/2013  15:32:00       -9.376        6.126       -0.233       20.430       23.044       14.168      417.383      531.017      200.744        0.064        0.057       11.200        6.706        0.358      338.564       11.299      864.814
11/26/2013  15:33:00       17.376        7.654       13.171       21.066       18.198       11.924      443.780      331.155      142.191        0.073        0.046       18.987        6.772        0.127      338.614       11.383      864.803
11/26/2013  15:34:00       54.505       35.821       10.426       25.228       19.194       18.928      636.472      368.392      358.285        0.286        0.068       65.223       12.293        0.036      338.596       11.354      864.790
11/26/2013  15:35:00       78.928       30.940       11.650       40.114       25.201       19.099     1609.147      635.069      364.771        0.497        0.130       84.776       13.243        0.024      338.537       11.256      864.783
11/26/2013  15:36:00       36.795       23.470       28.366       43.739       40.871       35.691     1913.077     1670.473     1273.862        0.378        0.243       43.643       40.061        0.843      338.566       11.305      864.774
11/26/2013  15:37:00       -6.922       51.836       74.228       16.711       32.100       21.832      279.256     1030.440      476.633        0.502        0.089       52.296       19.325        0.137      338.666       11.473      864.769
11/26/2013  15:38:00       13.948       57.616       65.365       19.266       28.361       16.610      371.191      804.340      275.884        0.462        0.073       59.280       16.138        0.074      338.649       11.444      864.776
11/26/2013  15:39:00        2.810        5.809       29.044       14.793       25.471       15.782      218.839      648.773      249.064        0.100        0.056        6.453       16.118        6.238      338.648       11.442      864.789
11/26/2013  15:40:00       45.182       40.168       54.126       39.301       29.657       20.988     1544.579      879.515      440.482        0.472        0.143       60.456       18.841        0.097      338.540       11.260      864.809
11/26/2013  15:41:00       66.557       31.387       19.679       34.260       31.851       20.360     1173.746     1014.467      414.545        0.420        0.130       73.587       17.882        0.059      338.531       11.246      864.813
11/26/2013  15:42:00       40.678       50.317       46.521       31.271       24.879       25.638      977.852      618.971      657.322        0.430        0.113       64.703        9.233        0.020      338.533       11.250      864.814
11/26/2013  15:43:00        3.860       23.252       36.591       27.573       27.070       23.339      760.290      732.782      544.716        0.197        0.102       23.570       24.121        1.047      338.546       11.272      864.801
11/26/2013  15:44:00        9.452       46.263       39.881       17.566       15.546       13.377      308.571      241.672      178.940        0.227        0.036       47.219        2.664        0.003      338.558       11.290      864.796
11/26/2013  15:45:00       39.292       57.302       57.591       25.075       30.201       15.403      628.744      912.115      237.265        0.496        0.089       69.479       15.646        0.051      338.563       11.299      864.794
11/26/2013  15:46:00       60.182       18.373       37.087       38.115       28.623       26.481     1452.758      819.268      701.225        0.415        0.149       62.924       26.738        0.181      338.548       11.273      864.791
11/26/2013  15:47:00       41.015       47.289       56.589       36.864       28.285       29.645     1358.927      800.032      878.851        0.508        0.152       62.598       23.191        0.137      338.537       11.256      864.786
11/26/2013  15:48:00       40.820       37.724       36.118       23.672       28.838       28.858      560.378      831.604      832.774        0.331        0.111       55.583       14.040        0.064      338.525       11.234      864.775
11/26/2013  15:49:00       44.233       41.354       49.756       26.830       25.118       24.955      719.874      630.939      622.759        0.406        0.099       60.554       18.115        0.089      338.536       11.256      864.752
11/26/2013  15:50:00       31.123       25.939       43.980       21.181       20.416       14.200      448.646      416.831      201.632        0.232        0.053       40.515       12.429        0.094      338.553       11.283      864.727
11/26/2013  15:51:00       34.598       36.316       40.290       38.671       29.667       21.600     1495.431      880.126      466.539        0.349        0.142       50.159       19.197        0.146      338.559       11.292      864.713
11/26/2013  15:52:00       13.765       62.549       68.039       26.906       31.608       29.107      723.943      999.050      847.229        0.565        0.129       64.046       26.784        0.175      338.526       11.236      864.701
11/26/2013  15:53:00        6.494       68.045       78.051       23.369       27.051       18.966      546.098      731.783      359.713        0.620        0.082       68.354       19.465        0.081      338.558       11.290      864.697
11/26/2013  15:54:00        7.145       62.259       74.428       22.542       34.466       21.337      508.134     1187.934      455.269        0.581        0.108       62.668       22.879        0.133      338.549       11.275      864.691
11/26/2013  15:55:00       55.008       64.296       49.510       39.963       30.332       23.896     1597.038      920.046      571.016        0.635        0.154       84.616       21.750        0.066      338.537       11.254      864.690
11/26/2013  15:56:00       41.133       50.434       56.736       25.660       34.271       20.680      658.421     1174.490      427.653        0.486        0.113       65.081       19.990        0.094      338.558       11.292      864.692
11/26/2013  15:57:00       50.063       45.537       57.955       32.076       23.729       18.180     1028.885      563.068      330.518        0.493        0.096       67.675       15.704        0.054      338.571       11.314      864.699
11/26/2013  15:58:00       35.790       56.004       65.973       23.282       33.073       19.003      542.034     1093.825      361.124        0.538        0.100       66.463       18.976        0.082      338.604       11.369      864.696
11/26/2013  15:59:00       85.286       22.549       25.787       37.260       31.315       31.575     1388.300      980.633      996.966        0.591        0.168       88.217       19.593        0.049      338.553       11.283      864.688
11/26/2013  16:00:00       54.446       25.748       21.741       46.689       35.726       35.027     2179.833     1276.368     1226.874        0.439        0.234       60.227       31.721        0.277      338.554       11.284      864.681
11/26/2013  16:01:00       42.931       15.711       25.224       32.257       25.329       18.336     1040.533      641.580      336.222        0.237        0.101       45.715        8.346        0.033      338.592       11.350      864.669
11/26/2013  16:02:00       34.454       33.790       56.461       27.403       29.804       24.266      750.921      888.301      588.821        0.387        0.111       48.258       22.383        0.215      338.585       11.336      864.661
11/26/2013  16:03:00       51.483       43.017       36.000       41.731       40.242       36.310     1741.492     1619.412     1318.409        0.524        0.234       67.089       34.553        0.265      338.573       11.316      864.661
11/26/2013  16:04:00       41.817       63.037       36.816       23.812       21.393       22.060      567.028      457.660      486.652        0.429        0.076       75.646       11.749        0.024      338.554       11.285      864.662
11/26/2013  16:05:00       39.665       32.530       43.190       23.285       18.781       22.201      542.203      352.713      492.904        0.294        0.069       51.298       15.239        0.088      338.583       11.334      864.651
11/26/2013  16:06:00       48.968       39.174       38.566       22.361       20.671       23.431      500.017      427.304      548.999        0.345        0.074       62.709       15.454        0.061      338.586       11.337      864.646
11/26/2013  16:07:00       27.852       41.842       39.445       21.334       16.720       15.124      455.151      279.574      228.722        0.252        0.048       50.265       10.598        0.044      338.578       11.325      864.635
11/26/2013  16:08:00       23.097       40.560       49.845       27.772       25.670       15.256      771.281      658.972      232.741        0.316        0.083       46.676        7.080        0.023      338.614       11.385      864.620
11/26/2013  16:09:00       66.004       57.493       42.738       26.284       15.114       19.598      690.854      228.420      384.074        0.540        0.065       87.532       15.913        0.033      338.581       11.328      864.612
11/26/2013  16:10:00       43.457       51.548       54.684       26.499       21.251       15.976      702.216      451.585      255.225        0.447        0.070       67.422        9.573        0.020      338.522       11.230      864.599
11/26/2013  16:11:00       42.288       34.063       34.605       20.711       19.627       18.464      428.942      385.201      340.909        0.265        0.058       54.300        9.321        0.029      338.504       11.200      864.593
11/26/2013  16:12:00       38.926       21.965       22.751       29.710       21.910       17.589      882.662      480.033      309.372        0.209        0.084       44.695       14.291        0.102      338.432       11.079      864.575
11/26/2013  16:13:00       83.807        0.833       27.347       38.472       22.271       24.823     1480.128      496.008      616.183        0.518        0.130       83.811       21.389        0.065      338.461       11.129      864.558
11/26/2013  16:14:00       33.871       23.064       30.269       35.009       37.466       28.939     1225.611     1403.682      837.473        0.303        0.173       40.978       29.071        0.503      338.476       11.152      864.546
11/26/2013  16:15:00       37.846       47.911       56.169       32.133       32.904       19.369     1032.504     1082.672      375.167        0.469        0.125       61.056       21.835        0.128      338.463       11.132      864.539
11/26/2013  16:16:00       26.854       45.865       58.416       40.857       38.357       25.197     1669.262     1471.254      634.875        0.501        0.189       53.149       28.840        0.294      338.449       11.106      864.524
11/26/2013  16:17:00       14.316       27.048       48.885       31.441       27.573       19.399      988.543      760.278      376.339        0.273        0.106       30.603       20.328        0.441      338.443       11.098      864.517
11/26/2013  16:18:00       58.421       51.326       34.217       27.178       23.474       25.574      738.655      551.007      654.030        0.458        0.097       77.765        6.309        0.007      338.409       11.041      864.524
11/26/2013  16:19:00       47.967       30.846       33.765       27.425       28.075       24.779      752.113      788.217      613.996        0.327        0.108       57.030       16.759        0.086      338.409       11.041      864.520
11/26/2013  16:20:00       54.737       40.911       34.647       21.782       15.321       20.039      474.445      234.745      401.564        0.349        0.056       68.336       13.356        0.038      338.390       11.008      864.523
11/26/2013  16:21:00       28.288       17.053       30.526       18.160       17.301       14.559      329.771      299.313      211.975        0.143        0.042       33.030       12.020        0.132      338.343       10.930      864.526
11/26/2013  16:22:00       23.089       28.264       35.954       21.044       29.421       18.521      442.869      865.594      343.010        0.214        0.083       36.496       16.737        0.210      338.351       10.944      864.528
11/26/2013  16:23:00       53.463        6.376       29.017       34.897       24.557       22.900     1217.798      603.070      524.409        0.304        0.117       53.841       22.971        0.182      338.413       11.048      864.532
11/26/2013  16:24:00       28.113       32.144       24.942       29.952       28.593       24.768      897.117      817.536      613.477        0.239        0.116       42.703       20.145        0.223      338.350       10.941      864.555
11/26/2013  16:25:00       26.196       25.283       37.554       19.134       22.077       15.891      366.124      487.395      252.522        0.192        0.055       36.406       11.898        0.107      338.360       10.959      864.566
11/26/2013  16:26:00       67.092        0.971        4.053       43.896       20.575       15.150     1926.900      423.337      229.520        0.355        0.129       67.099       15.783        0.055      338.401       11.027      864.571
11/26/2013  16:27:00       22.818       11.845       18.017       20.433       16.843       12.269      417.504      283.674      150.520        0.092        0.043       25.709       10.354        0.162      338.329       10.907      864.585
11/26/2013  16:28:00       23.069       -9.835       12.502       17.129       30.289       14.798      293.394      917.445      218.995        0.111        0.071       25.078       13.603        0.294      338.326       10.900      864.604
11/26/2013  16:29:00       46.002       22.919       12.339       18.287       17.862       11.708      334.414      319.052      137.085        0.179        0.040       51.395        6.877        0.018      338.296       10.850      864.609
11/26/2013  16:30:00       30.736       22.072       23.989       14.040       15.808       14.324      197.136      249.899      205.173        0.133        0.033       37.841        9.072        0.057      338.221       10.724      864.603
11/26/2013  16:31:00       59.618       26.621       14.834       16.761       15.860       14.406      280.947      251.524      207.531        0.261        0.037       65.292        7.187        0.012      338.351       10.944      864.603
11/26/2013  16:32:00       80.324       39.949        8.646       12.687       12.491       10.321      160.959      156.025      106.522        0.427        0.021       89.710        5.987        0.004      338.377       10.987      864.607
11/26/2013  16:33:00       67.130       37.508       10.235       15.565       11.478       10.008      242.259      131.735      100.158        0.325        0.024       76.898        4.926        0.004      338.337       10.919      864.604
11/26/2013  16:34:00       49.655       32.148       16.696       23.778       10.705        9.224      565.377      114.588       85.091        0.227        0.038       59.153        8.075        0.019      338.255       10.783      864.594
11/26/2013  16:35:00       58.884       27.692       17.708       15.200        9.794       12.996      231.039       95.922      168.896        0.252        0.025       65.071        5.909        0.008      338.320       10.891      864.602
11/26/2013  16:36:00       34.401       22.271       18.172       15.280       11.333       11.673      233.486      128.442      136.267        0.125        0.025       40.980        5.939        0.021      338.246       10.767      864.594
11/26/2013  16:37:00       23.099       14.405       12.719       15.456       10.902       12.271      238.888      118.852      150.578        0.071        0.025       27.222       10.162        0.139      338.242       10.761      864.596
11/26/2013  16:38:00       32.561       10.584        7.795       11.585        9.988       10.061      134.206       99.760      101.216        0.078        0.017       34.237        5.961        0.030      338.281       10.825      864.606
11/26/2013  16:39:00       29.934       11.274       14.710       10.451       12.369       10.249      109.231      152.986      105.034        0.080        0.018       31.987        8.263        0.067      338.244       10.762      864.606
11/26/2013  16:40:00       44.923       28.876       15.086       15.245       10.376       10.600      232.398      107.664      112.359        0.177        0.023       53.403        5.677        0.011      338.325       10.899      864.609
11/26/2013  16:41:00       43.512       31.529       15.698       13.615       10.282        8.713      185.367      105.709       75.908        0.175        0.018       53.735        7.437        0.019      338.290       10.843      864.606
11/26/2013  16:42:00       49.909       26.864       14.477       16.224       16.557       14.825      263.233      274.144      219.788        0.209        0.038       56.679        8.265        0.021      338.323       10.898      864.608
11/26/2013  16:43:00       42.049       16.460       11.307        9.612       11.708        9.378       92.382      137.083       87.948        0.124        0.016       45.156        6.495        0.021      338.272       10.811      864.616
11/26/2013  16:44:00       28.531        9.305        7.052       11.186        9.406        7.650      125.121       88.466       58.523        0.061        0.014       30.010        3.239        0.012      338.259       10.792      864.618
11/26/2013  16:45:00       17.257       11.509        2.804       11.764        5.444        3.572      138.396       29.635       12.763        0.031        0.009       20.743        3.181        0.024      338.290       10.843      864.638
11/26/2013  16:46:00      -43.418        3.805       -8.174       20.189        9.645       14.327      407.576       93.033      205.263        0.134        0.035       43.585       14.161        0.106      338.078       10.484      864.637
11/26/2013  16:47:00      -50.114      -10.972      -11.901       10.859        8.400        8.951      117.917       70.552       80.123        0.152        0.013       51.301        4.986        0.009      337.877       10.148      864.654
11/26/2013  16:48:00      -58.195       -9.371       -6.161        9.875        9.334        7.147       97.506       87.131       51.078        0.187        0.012       58.945        5.110        0.008      338.018       10.383      864.656
11/26/2013  16:49:00      -61.440      -27.395      -10.590       16.580       13.085        8.580      274.909      171.219       73.610        0.258        0.026       67.271        6.371        0.009      338.185       10.664      864.652
11/26/2013  16:50:00      -49.729      -10.960       -9.163        7.458        7.672        5.358       55.622       58.865       28.710        0.141        0.007       50.923        3.953        0.006      338.032       10.409      864.644
11/26/2013  16:51:00      -49.387      -15.929       -7.463        7.310        7.984        4.551       53.434       63.741       20.715        0.144        0.007       51.892        1.183        0.001      337.939       10.252      864.624
11/26/2013  16:52:00      -35.191      -17.169       -9.797        6.274        4.438        5.689       39.362       19.700       32.365        0.086        0.005       39.156        2.534        0.004      337.978       10.317      864.628
11/26/2013  16:53:00      -48.178      -17.178       -6.679        8.515        9.565        5.535       72.507       91.487       30.638        0.143        0.010       51.149        3.388        0.004      338.009       10.369      864.614
11/26/2013  16:54:00      -58.695      -31.759       -3.867       10.122        9.989       11.952      102.448       99.771      142.860        0.241        0.017       66.736        7.846        0.014      338.044       10.428      864.615
11/26/2013  16:55:00      -51.597      -23.324      -11.639        8.240        6.075        4.674       67.895       36.902       21.847        0.173        0.006       56.624        1.218        0.000      338.133       10.578      864.609
11/26/2013  16:56:00      -48.633      -23.360       -7.200        7.035        7.792        5.559       49.490       60.722       30.900        0.155        0.007       53.952        4.544        0.007      337.721        9.887      864.601
11/26/2013  16:57:00      -54.233      -17.118       -7.903        9.381        9.062        7.857       87.999       82.121       61.725        0.176        0.012       56.870        4.674        0.007      337.699        9.848      864.599
11/26/2013  16:58:00      -89.166      -20.431       -8.273       25.399       16.641       13.750      645.110      276.914      189.074        0.477        0.056       91.477       11.602        0.016      337.501        9.518      864.591
11/26/2013  16:59:00      -88.562      -11.344        0.174       24.777       19.041       17.200      613.892      362.559      295.847        0.462        0.064       89.285       16.184        0.033      337.388        9.329      864.599
11/26/2013  17:00:00      -99.173       -6.912       -8.551       30.506       14.819       15.619      930.621      219.593      243.942        0.567        0.070       99.414       14.936        0.023      337.331        9.232      864.594
11/26/2013  17:01:00      -66.852      -20.919       -5.203       22.418       17.996       13.325      502.560      323.840      177.561        0.297        0.050       70.049       10.106        0.021      337.257        9.111      864.610
11/26/2013  17:02:00      -89.155      -22.056       -8.614       14.673       12.639       12.546      215.294      159.734      157.390        0.452        0.027       91.842        9.362        0.010      337.251        9.100      864.609
11/26/2013  17:03:00      -75.987      -34.795      -11.755       16.746       17.749       14.532      280.426      315.034      211.178        0.396        0.040       83.574        6.307        0.006      337.169        8.960      864.616
11/26/2013  17:04:00      -83.521      -26.610      -10.543       19.983       17.302       14.720      399.305      299.347      216.666        0.435        0.046       87.658       11.040        0.016      337.108        8.859      864.615
11/26/2013  17:05:00      -86.643      -22.144       -3.833       27.005       29.933       16.747      729.291      896.004      280.455        0.496        0.095       89.428       11.318        0.016      337.082        8.814      864.617
11/26/2013  17:06:00      -66.130      -17.199       -0.886       26.928       24.170       14.320      725.114      584.183      205.072        0.309        0.076       68.330       11.561        0.029      337.071        8.796      864.623
11/26/2013  17:07:00      -52.435      -19.526       -2.565       34.425       21.460       15.769     1185.084      460.522      248.666        0.252        0.095       55.953       12.979        0.054      337.057        8.772      864.618
11/26/2013  17:08:00      -70.673      -26.003       -1.057       17.644       24.321       11.835      311.321      591.497      140.078        0.336        0.052       75.305        9.690        0.017      336.993        8.667      864.619
11/26/2013  17:09:00      -71.918      -35.802       -4.291       19.316       29.607       14.899      373.104      876.546      221.966        0.397        0.074       80.336        8.193        0.010      336.926        8.555      864.620
11/26/2013  17:10:00      -72.713      -28.188       -8.561       22.553       21.411       14.725      508.642      458.441      216.839        0.367        0.059       77.986        9.025        0.013      336.953        8.600      864.621
11/26/2013  17:11:00      -85.418      -31.215      -19.220       25.744       19.090       17.199      662.777      364.439      295.791        0.498        0.066       90.943        8.356        0.008      336.965        8.619      864.616
11/26/2013  17:12:00      -77.172      -30.889       -9.361       23.468       25.941       14.403      550.752      672.925      207.452        0.421        0.072       83.124       10.239        0.015      336.858        8.443      864.616
11/26/2013  17:13:00      -77.431      -25.697      -10.154       26.003       27.726       16.108      676.164      768.714      259.469        0.423        0.085       81.584       10.928        0.018      336.783        8.316      864.623
11/26/2013  17:14:00      -88.176      -30.767       -0.177       25.570       30.886       16.846      653.800      953.936      283.774        0.531        0.095       93.390       11.449        0.015      336.758        8.276      864.629
11/26/2013  17:15:00      -56.896      -27.775        4.089       43.815       30.451       22.480     1919.778      927.286      505.361        0.369        0.168       63.313       17.623        0.077      336.779        8.310      864.638
11/26/2013  17:16:00      -76.877      -23.148       -7.215       37.180       28.403       20.965     1382.385      806.706      439.539        0.456        0.131       80.286       18.361        0.052      336.833        8.400      864.648
11/26/2013  17:17:00      -81.368      -25.151       -4.882       31.621       29.886       19.947      999.859      893.202      397.894        0.478        0.115       85.166       16.294        0.037      336.848        8.426      864.660
11/26/2013  17:18:00      -62.649      -21.365       -4.777       44.732       32.067       22.551     2000.956     1028.303      508.562        0.397        0.177       66.192       22.167        0.112      336.842        8.416      864.662
11/26/2013  17:19:00     -102.403      -27.768      -11.403       37.344       30.949       16.861     1394.590      957.823      284.293        0.701        0.132      106.101       12.942        0.015      336.807        8.358      864.671
11/26/2013  17:20:00      -89.993      -24.141        1.724       35.476       34.628       19.529     1258.539     1199.111      381.390        0.576        0.142       93.174       14.987        0.026      336.771        8.297      864.675
11/26/2013  17:21:00      -95.912      -19.842      -14.233       35.576       34.136       19.636     1265.665     1165.240      385.581        0.631        0.141       97.943       15.973        0.027      336.727        8.223      864.681
11/26/2013  17:22:00      -53.562       -1.721        1.969       50.763       41.195       23.144     2576.859     1697.014      535.630        0.384        0.240       53.590       22.314        0.173      336.688        8.159      864.680
11/26/2013  17:23:00      -76.591      -14.764       -2.186       44.618       43.371       22.924     1990.789     1881.033      525.526        0.524        0.220       78.001       24.831        0.101      336.705        8.187      864.680
11/26/2013  17:24:00      -65.782      -11.337       -3.546       35.876       23.588       18.921     1287.119      556.412      357.999        0.333        0.110       66.752       19.714        0.087      336.626        8.056      864.667
11/26/2013  17:25:00      -86.503      -28.758       -3.870       34.799       39.011       24.734     1210.955     1521.884      611.769        0.583        0.167       91.158       21.349        0.055      336.582        7.981      864.670
11/26/2013  17:26:00      -57.381      -10.962       -1.353       32.098       31.026       21.376     1030.257      962.635      456.942        0.293        0.122       58.418       18.698        0.102      336.541        7.913      864.672
11/26/2013  17:27:00     -104.058      -46.348       -8.458       32.617       39.291       17.034     1063.877     1543.808      290.149        0.797        0.145      113.913       14.148        0.015      336.571        7.963      864.685
11/26/2013  17:28:00      -53.976       -9.214       -7.061       41.585       43.709       26.243     1729.348     1910.495      688.678        0.369        0.216       54.757       19.441        0.126      336.530        7.894      864.686
11/26/2013  17:29:00      -99.791      -15.585        1.120       36.282       32.517       17.009     1316.404     1057.383      289.317        0.643        0.133      101.001        8.986        0.008      336.473        7.797      864.695
11/26/2013  17:30:00     -109.214      -33.356       -7.708       50.398       41.955       20.192     2539.990     1760.181      407.718        0.890        0.235      114.194       20.182        0.031      336.478        7.807      864.691
11/26/2013  17:31:00      -65.724      -26.797       -0.117       52.868       27.004       17.069     2795.006      729.202      291.345        0.443        0.191       70.976       21.747        0.094      336.456        7.771      864.698
11/26/2013  17:32:00      -90.643      -35.943       -4.581       31.434       22.486       19.409      988.075      505.639      376.693        0.570        0.094       97.509       10.640        0.012      336.466        7.787      864.697
11/26/2013  17:33:00      -85.112      -30.742       -5.998       40.812       22.705       16.606     1665.639      515.515      275.775        0.534        0.123       90.494       11.008        0.015      336.527        7.889      864.696
11/26/2013  17:34:00      -55.962      -25.852       -5.016       34.159       21.223       19.667     1166.823      450.418      386.772        0.291        0.100       61.645       19.919        0.104      336.458        7.773      864.694
11/26/2013  17:35:00      -23.364      -26.399      -19.358       32.146       27.462       20.905     1033.390      754.150      437.037        0.192        0.111       35.253       14.798        0.176      336.455        7.768      864.698
11/26/2013  17:36:00      -34.624      -18.490      -13.103       24.102       25.740       13.852      580.916      662.535      191.869        0.157        0.072       39.252       10.950        0.078      336.419        7.706      864.712
11/26/2013  17:37:00      -59.987      -22.384      -13.424       24.653       19.300       13.162      607.788      372.509      173.234        0.272        0.058       64.027        8.692        0.018      336.407        7.688      864.713
11/26/2013  17:38:00      -64.038      -30.286      -16.171       27.642       17.506       14.853      764.094      306.455      220.606        0.329        0.065       70.839        8.528        0.014      336.413        7.698      864.721
11/26/2013  17:39:00      -61.981      -24.438      -18.148       28.670       17.522       13.330      821.955      307.037      177.698        0.304        0.065       66.624       13.513        0.041      336.311        7.528      864.725
11/26/2013  17:40:00      -86.735      -19.605      -21.429       11.557       11.306       11.963      133.574      127.819      143.121        0.439        0.020       88.923        5.956        0.004      336.220        7.374      864.738
11/26/2013  17:41:00      -89.424       -8.516      -14.320       25.467       17.857       18.184      648.551      318.866      330.652        0.479        0.065       89.829       15.623        0.030      336.207        7.353      864.743
11/26/2013  17:42:00      -95.059      -22.064      -18.996       16.771       15.710        8.829      281.270      246.813       77.954        0.524        0.030       97.586        5.881        0.004      336.199        7.339      864.745
11/26/2013  17:43:00     -104.360      -16.969      -13.262       19.684       23.131       16.754      387.476      535.022      280.703        0.628        0.060      105.731       10.360        0.010      336.155        7.265      864.746
11/26/2013  17:44:00      -67.564      -31.139       -9.415       23.570       18.034       17.450      555.559      325.234      304.511        0.340        0.059       74.394       11.996        0.026      336.170        7.291      864.744
11/26/2013  17:45:00      -55.488      -34.024       -2.269       44.472       31.839       24.564     1977.723     1013.748      603.388        0.392        0.180       65.089       25.111        0.149      336.112        7.195      864.737
11/26/2013  17:46:00      -71.785      -44.310      -17.718       27.948       24.553       14.024      781.067      602.832      196.671        0.451        0.079       84.360       14.551        0.030      336.110        7.192      864.743
11/26/2013  17:47:00      -66.836      -35.772      -24.983       21.033       20.696       17.297      442.376      428.316      299.185        0.377        0.058       75.807       11.004        0.021      336.141        7.244      864.741
11/26/2013  17:48:00      -86.261      -28.765      -19.717       23.050       22.694       21.431      531.320      515.011      459.298        0.508        0.075       90.931       17.037        0.035      336.121        7.209      864.737
11/26/2013  17:49:00      -85.199      -21.616      -10.857       18.648       26.766       19.797      347.730      716.441      391.937        0.465        0.073       87.899       12.650        0.021      336.053        7.096      864.736
11/26/2013  17:50:00      -88.179      -26.624      -18.972       15.872       21.402       12.063      251.923      458.050      145.520        0.485        0.043       92.111       11.245        0.015      336.063        7.114      864.732
11/26/2013  17:51:00      -72.487      -33.532      -20.879       12.756       19.392       13.891      162.711      376.054      192.947        0.377        0.037       79.867        9.637        0.015      336.068        7.121      864.736
11/26/2013  17:52:00      -74.753      -26.159      -12.264       18.203       19.107       14.629      331.337      365.083      214.018        0.367        0.046       79.198        9.134        0.013      336.025        7.049      864.737
11/26/2013  17:53:00      -84.987      -16.332      -20.448       14.987       14.935       12.046      224.610      223.068      145.105        0.425        0.030       86.542        6.480        0.006      336.047        7.084      864.735
11/26/2013  17:54:00      -77.817       -5.398      -20.510       16.230       12.726       15.471      263.410      161.953      239.355        0.358        0.033       78.004        8.517        0.012      336.182        7.312      864.735
11/26/2013  17:55:00      -97.093        3.509      -16.306       14.022       10.905       11.295      196.622      118.927      127.577        0.507        0.022       97.156        7.968        0.007      335.984        6.980      864.733
11/26/2013  17:56:00      -78.460        2.133      -19.633       15.798        9.861        9.516      249.572       97.247       90.546        0.349        0.022       78.489        7.548        0.009      336.035        7.066      864.728
11/26/2013  17:57:00      -75.298      -11.690      -10.957       11.413        9.109       11.292      130.263       82.975      127.507        0.313        0.017       76.200        8.267        0.012      336.044        7.081      864.734
11/26/2013  17:58:00      -53.424      -21.153      -11.496       19.296        9.557        8.552      372.342       91.339       73.130        0.199        0.027       57.460        7.904        0.019      336.097        7.169      864.742
11/26/2013  17:59:00      -46.202      -15.097       -7.648       14.928       15.102       13.414      222.852      228.071      179.945        0.153        0.032       48.607        9.755        0.040      336.205        7.351      864.743
11/26/2013  18:00:00      -28.162      -18.775        5.150       14.162       11.506       11.465      200.573      132.390      131.449        0.082        0.023       33.847        8.476        0.063      336.332        7.563      864.731
11/26/2013  18:01:00      -22.768        1.386       -2.914       23.365       15.853        9.871      545.923      251.318       97.442        0.071        0.045       22.811        5.083        0.050      336.603        8.016      864.719
11/26/2013  18:02:00      -39.480        4.079        1.020       21.102       22.682        9.954      445.314      514.474       99.076        0.132        0.053       39.690        8.378        0.045      336.434        7.734      864.717
11/26/2013  18:03:00      -33.602       -9.825       -6.850       13.591       13.977       12.150      184.705      195.357      147.624        0.090        0.026       35.008        8.704        0.062      336.419        7.709      864.722
11/26/2013  18:04:00      -43.823      -26.775      -15.877       18.840       16.993       10.764      354.946      288.746      115.871        0.182        0.038       51.356        9.366        0.033      336.092        7.162      864.727
11/26/2013  18:05:00      -59.506      -32.452      -17.076       14.560       19.207       12.289      211.999      368.890      151.023        0.281        0.037       67.779        8.413        0.015      335.793        6.664      864.741
11/26/2013  18:06:00      -60.444      -17.526      -13.399       15.470       17.304       10.743      239.313      299.438      115.414        0.240        0.033       62.933        6.598        0.011      335.790        6.661      864.743
11/26/2013  18:07:00      -57.240      -16.143       -6.068       11.211       14.743       14.367      125.677      217.362      206.398        0.206        0.027       59.473        6.917        0.014      335.825        6.716      864.742
11/26/2013  18:08:00      -63.042      -12.882      -17.023       16.985       16.535        9.298      288.476      273.413       86.451        0.254        0.032       64.345        7.549        0.014      335.937        6.904      864.743
11/26/2013  18:09:00      -49.131       -6.472       -8.591       12.112       13.856       10.325      146.701      192.002      106.603        0.149        0.022       49.556        5.976        0.015      336.080        7.143      864.733
11/26/2013  18:10:00      -22.411        7.572       -8.054       17.972       12.256       10.831      322.989      150.199      117.302        0.061        0.030       23.655        8.215        0.121      336.171        7.294      864.736
11/26/2013  18:11:00      -19.656      -14.675        8.259       25.249       14.823       18.666      637.494      219.728      348.406        0.094        0.060       24.530       12.449        0.258      336.384        7.649      864.733
11/26/2013  18:12:00      -31.932      -22.400       -0.947       18.572       18.145       12.254      344.928      329.225      150.166        0.117        0.041       39.006        8.477        0.047      336.123        7.215      864.741
11/26/2013  18:13:00      -26.881       -9.009       -4.873       16.625       14.459       11.072      276.405      209.076      122.582        0.072        0.030       28.351        9.531        0.113      336.088        7.154      864.732
11/26/2013  18:14:00      -17.599      -12.044       -2.851       22.740       20.878        8.043      517.130      435.902       64.689        0.074        0.051       21.326        7.515        0.124      336.136        7.236      864.725
11/26/2013  18:15:00       26.631       25.592        0.328       27.267       18.715       11.780      743.484      350.234      138.772        0.130        0.062       36.935       10.838        0.086      336.428        7.723      864.715
11/26/2013  18:16:00       20.145       36.977       -4.913       14.068       36.602       11.189      197.913     1339.699      125.191        0.173        0.083       42.108       14.967        0.126      336.515        7.867      864.701
11/26/2013  18:17:00       10.110       56.901       -5.456       20.709       20.824       11.717      428.852      433.633      137.283        0.218        0.050       57.792       10.728        0.034      336.585        7.986      864.701
11/26/2013  18:18:00       32.180       41.982        1.834       25.422       25.639       23.963      646.255      657.354      574.210        0.234        0.094       52.897       17.537        0.110      336.492        7.831      864.699
11/26/2013  18:19:00       46.823       48.777       -5.916       14.962       19.395       14.726      223.854      376.166      216.843        0.271        0.041       67.614       10.784        0.025      336.465        7.785      864.688
11/26/2013  18:20:00       35.822       31.750        3.490       32.853       19.184       14.438     1079.309      368.022      208.448        0.198        0.083       47.867       13.996        0.085      336.458        7.773      864.687
11/26/2013  18:21:00       35.575       17.455        5.474       18.755       15.532       13.236      351.739      241.235      175.199        0.118        0.038       39.626        5.755        0.021      336.520        7.876      864.674
11/26/2013  18:22:00       31.184       22.723        2.548       25.668       20.586       12.832      658.846      423.770      164.667        0.137        0.062       38.584        6.477        0.028      336.531        7.896      864.675
11/26/2013  18:23:00       23.462       27.479       -2.539       14.919       14.075       10.892      222.581      198.112      118.638        0.093        0.027       36.133        8.444        0.055      336.536        7.904      864.684
11/26/2013  18:24:00       36.657       32.879       -5.890       18.147       18.349       11.398      329.307      336.677      129.909        0.163        0.040       49.242        8.981        0.033      336.573        7.965      864.693
11/26/2013  18:25:00       10.816       17.124       -4.862       11.003       10.216        4.436      121.075      104.377       19.677        0.034        0.012       20.254        5.273        0.068      336.542        7.915      864.701
11/26/2013  18:26:00       22.042        7.011        6.962       23.570       15.395        9.817      555.566      237.007       96.375        0.074        0.044       23.130        8.180        0.125      336.530        7.896      864.709
11/26/2013  18:27:00        1.835       17.502        2.267       19.290       11.621        9.442      372.114      135.057       89.144        0.046        0.030       17.598        9.581        0.296      336.389        7.657      864.705
11/26/2013  18:28:00      -16.466       -5.094        6.405       14.849       19.866       10.462      220.484      394.677      109.448        0.053        0.036       17.236       13.016        0.570      335.876        6.802      864.712
11/26/2013  18:29:00      -24.391      -18.489        1.643       16.660       21.594        9.077      277.568      466.312       82.400        0.088        0.041       30.606        6.397        0.044      335.970        6.958      864.731
11/26/2013  18:30:00      -45.452      -19.898      -11.190       16.518       14.480       10.406      272.851      209.661      108.293        0.159        0.030       49.616        6.891        0.019      335.756        6.601      864.735
11/26/2013  18:31:00      -51.899       11.775      -17.141       33.233       14.547       11.075     1104.454      211.605      122.663        0.228        0.072       53.218       10.409        0.038      335.886        6.819      864.738
11/26/2013  18:32:00      -25.627       -0.909       -8.961       25.392       15.768       13.915      644.751      248.614      193.634        0.091        0.054       25.644       13.841        0.291      336.196        7.335      864.735
11/26/2013  18:33:00      -71.810        4.942      -15.030       31.628       10.394       10.344     1000.318      108.035      106.999        0.331        0.061       71.980       13.621        0.036      335.549        6.257      864.748
11/26/2013  18:34:00      -61.679       10.317      -15.004       13.609        9.134       10.010      185.203       83.426      100.191        0.225        0.018       62.536        4.371        0.005      335.470        6.125      864.756
11/26/2013  18:35:00      -46.666        6.175       -8.689       15.199       10.876        9.893      231.016      118.293       97.875        0.137        0.022       47.073        5.048        0.011      335.737        6.570      864.744
11/26/2013  18:36:00      -61.847        7.932       -6.442       16.024       10.833        9.214      256.762      117.358       84.893        0.219        0.023       62.354        4.143        0.004      335.558        6.272      864.725
11/26/2013  18:37:00      -37.321      -14.340       -2.844       12.743       13.552        7.785      162.375      183.645       60.607        0.101        0.020       39.981        3.984        0.010      335.372        5.961      864.714
11/26/2013  18:38:00      -47.830       -1.000      -12.599        6.347        6.773        5.629       40.290       45.877       31.690        0.128        0.006       47.841        3.471        0.005      335.440        6.075      864.704
11/26/2013  18:39:00      -29.934       -8.142       -3.402        9.330        8.705        4.918       87.055       75.783       24.189        0.058        0.009       31.021        3.653        0.014      335.461        6.108      864.690
11/26/2013  18:40:00      -33.957      -12.821       -2.263       12.202       12.662        9.799      148.882      160.330       96.020        0.086        0.020       36.297        2.695        0.006      335.511        6.193      864.683
11/26/2013  18:41:00      -48.088      -26.815      -15.422       13.784       12.593        8.560      189.986      158.593       73.272        0.185        0.021       55.059        3.905        0.005      335.392        5.994      864.687
11/26/2013  18:42:00      -54.585      -19.963      -11.676       12.374       10.613       10.251      153.115      112.641      105.075        0.194        0.019       58.121        5.864        0.010      335.302        5.845      864.710
11/26/2013  18:43:00      -60.335      -23.449      -18.113       11.225       11.919        6.507      125.994      142.071       42.335        0.241        0.016       64.732        4.674        0.005      335.289        5.822      864.719
11/26/2013  18:44:00      -79.519      -13.925      -19.707       14.463       17.293       13.053      209.168      299.040      170.375        0.379        0.034       80.729        9.737        0.015      335.231        5.726      864.725
11/26/2013  18:45:00      -82.169      -13.080      -17.435       13.125       12.263       14.505      172.274      150.388      210.382        0.388        0.027       83.204       11.446        0.019      335.249        5.757      864.723
11/26/2013  18:46:00      -78.906       -8.131      -10.398       13.182       13.084       10.405      173.759      171.194      108.274        0.343        0.023       79.324        6.053        0.006      335.204        5.681      864.720
11/26/2013  18:47:00      -61.067      -15.750      -12.879        9.962       12.642        8.461       99.244      159.811       71.588        0.224        0.017       63.065        6.695        0.011      335.217        5.704      864.721
11/26/2013  18:48:00      -72.805      -17.479      -16.971        7.853        9.850        7.269       61.666       97.013       52.835        0.305        0.011       74.874        6.247        0.007      335.256        5.768      864.698
11/26/2013  18:49:00      -52.879      -27.705      -16.057       18.071       13.506       13.075      326.551      182.405      170.960        0.225        0.034       59.697        5.279        0.008      335.204        5.682      864.687
11/26/2013  18:50:00      -73.870      -29.423      -13.431       25.948       19.060       12.999      673.273      363.268      168.980        0.385        0.060       79.514        8.002        0.010      335.186        5.653      864.687
11/26/2013  18:51:00     -101.394      -35.983      -18.382       25.166       19.237       12.218      633.321      370.043      149.274        0.653        0.058      107.590       11.776        0.012      335.156        5.602      864.671
11/26/2013  18:52:00      -62.062      -39.419      -19.251       25.996       19.581       17.540      675.775      383.415      307.663        0.357        0.068       73.522       12.684        0.030      335.022        5.381      864.666
11/26/2013  18:53:00      -67.552      -24.317      -10.425       32.053       23.348       18.685     1027.410      545.146      349.130        0.359        0.096       71.796       15.293        0.045      335.045        5.418      864.670
11/26/2013  18:54:00      -73.587      -12.484      -10.173       19.133       30.964       14.706      366.087      958.746      216.253        0.361        0.077       74.639        7.081        0.009      334.990        5.328      864.677
11/26/2013  18:55:00      -82.326      -15.689      -16.184       13.964       17.862       11.624      194.982      319.058      135.122        0.397        0.032       83.807        5.408        0.004      335.020        5.378      864.663
11/26/2013  18:56:00      -82.718      -26.022      -14.304       20.667       16.660       15.109      427.109      277.570      228.268        0.433        0.047       86.714       14.547        0.028      335.041        5.413      864.658
11/26/2013  18:57:00      -64.248      -28.013      -10.841       15.973       16.815       11.144      255.131      282.748      124.183        0.285        0.033       70.089        8.310        0.014      335.024        5.384      864.670
11/26/2013  18:58:00      -96.833      -19.370      -17.001       20.667       17.968       13.178      427.114      322.855      173.650        0.548        0.046       98.752       11.908        0.015      334.947        5.256      864.681
11/26/2013  18:59:00     -105.688      -31.966      -12.171       33.341       33.876       18.771     1111.590     1147.583      352.364        0.748        0.131      110.416        9.526        0.007      334.906        5.188      864.689
11/26/2013  19:00:00      -87.156      -30.059       -6.383       24.308       23.292       14.144      590.873      542.499      200.057        0.494        0.067       92.193       11.810        0.016      334.884        5.151      864.714
11/26/2013  19:01:00      -93.665      -41.390       -9.940       28.352       32.541       15.663      803.815     1058.910      245.320        0.635        0.105      102.403        9.245        0.008      334.862        5.114      864.722
11/26/2013  19:02:00     -107.709      -32.947      -14.222       29.941       24.877       20.638      896.439      618.857      425.910        0.741        0.097      112.635       17.016        0.023      334.883        5.150      864.709
11/26/2013  19:03:00     -112.179      -34.255       -4.393       40.126       35.348       23.557     1610.095     1249.485      554.942        0.860        0.171      117.293       16.899        0.021      334.842        5.080      864.703
11/26/2013  19:04:00     -104.058      -23.505       -2.316       31.448       29.770       20.662      989.000      886.283      426.937        0.684        0.115      106.680       17.416        0.027      334.831        5.064      864.700
11/26/2013  19:05:00      -97.348      -50.156       -3.237       35.806       28.050       18.133     1282.090      786.816      328.811        0.720        0.120      109.509       14.671        0.018      334.880        5.144      864.694
11/26/2013  19:06:00     -112.257      -43.151      -12.697       30.019       28.376       20.696      901.169      805.178      428.312        0.838        0.107      120.264       13.116        0.012      334.866        5.121      864.698
11/26/2013  19:07:00      -97.537      -36.226        0.264       42.018       41.531       23.864     1765.507     1724.823      569.468        0.744        0.203      104.047       17.858        0.029      334.878        5.142      864.699
11/26/2013  19:08:00      -78.366       -5.570        1.710       48.028       35.829       28.703     2306.698     1283.744      823.844        0.529        0.221       78.564       22.338        0.081      334.877        5.140      864.688
11/26/2013  19:09:00      -37.354       -3.779        1.811       37.832       28.294       22.479     1431.264      800.558      505.298        0.207        0.137       37.545       21.445        0.326      334.849        5.093      864.672
11/26/2013  19:10:00      -97.081      -39.901       -8.134       34.974       37.645       20.242     1223.174     1417.168      409.758        0.707        0.153      104.961       18.760        0.032      334.894        5.169      864.662
11/26/2013  19:11:00     -105.117      -19.421        3.752       51.969       45.088       22.739     2700.827     2032.884      517.050        0.834        0.263      106.896       21.447        0.040      334.819        5.043      864.661
11/26/2013  19:12:00     -119.498      -29.792       -2.053       38.017       34.779       22.159     1445.295     1209.578      491.019        0.916        0.157      123.155       19.586        0.025      334.806        5.022      864.656
11/26/2013  19:13:00     -112.068      -42.178        0.871       40.928       37.062       22.006     1675.075     1373.600      484.252        0.894        0.177      119.743       18.149        0.023      334.782        4.981      864.657
11/26/2013  19:14:00      -72.200      -22.957       -0.379       48.748       26.817       23.461     2376.365      719.140      550.397        0.469        0.182       75.762       26.318        0.121      334.767        4.957      864.659
11/26/2013  19:15:00      -81.230      -31.054       -8.891       28.023       22.649       16.316      785.305      512.975      266.198        0.460        0.078       86.964        9.235        0.011      334.816        5.039      864.650
11/26/2013  19:16:00      -86.954      -30.880      -10.890       23.776       23.400       12.493      565.311      547.562      156.079        0.495        0.063       92.274       11.788        0.016      334.841        5.080      864.642
11/26/2013  19:17:00      -67.767      -12.887       -9.566       32.535       18.407       15.070     1058.531      338.817      227.103        0.324        0.081       68.981        9.771        0.020      334.826        5.055      864.650
11/26/2013  19:18:00      -81.292      -30.910      -13.652       36.843       22.482       17.586     1357.380      505.428      309.255        0.496        0.109       86.970       16.328        0.035      334.864        5.119      864.658
11/26/2013  19:19:00     -136.611      -39.147      -14.179       34.656       29.377       20.362     1201.057      863.005      414.603        1.144        0.124      142.109       15.607        0.012      334.810        5.027      864.667
11/26/2013  19:20:00      -91.625      -42.192       -5.322       47.893       37.600       21.993     2293.776     1413.746      483.705        0.720        0.210      100.873       23.787        0.056      334.757        4.940      864.664
11/26/2013  19:21:00      -89.501      -30.065       -2.552       26.424       26.655       18.103      698.225      710.499      327.717        0.533        0.087       94.416       16.166        0.029      334.679        4.809      864.679
11/26/2013  19:22:00     -101.961      -22.213      -10.478       27.701       19.905       16.296      767.364      396.211      265.555        0.621        0.071      104.352        8.721        0.007      334.654        4.769      864.677
11/26/2013  19:23:00      -76.563      -28.755      -15.321       21.256       18.425       15.035      451.805      339.496      226.038        0.397        0.051       81.785        8.422        0.011      334.736        4.906      864.666
11/26/2013  19:24:00     -128.316      -22.595      -15.513       33.546       29.646       21.394     1125.306      878.911      457.702        0.984        0.123      130.290       15.659        0.014      334.731        4.896      864.656
11/26/2013  19:25:00     -123.225      -32.793       -8.808       40.699       36.542       25.192     1656.368     1335.300      634.640        0.998        0.181      127.514       21.299        0.028      334.714        4.869      864.657
11/26/2013  19:26:00      -75.756      -28.597        0.762       45.993       46.344       27.563     2115.324     2147.793      759.708        0.579        0.251       80.974       24.819        0.094      334.717        4.873      864.646
11/26/2013  19:27:00     -122.048      -62.702      -13.788       33.664       33.412       18.002     1133.253     1116.367      324.077        1.079        0.129      137.212       10.704        0.006      334.741        4.914      864.645
11/26/2013  19:28:00     -102.377      -45.419       -7.210       33.197       30.124       20.411     1102.040      907.445      416.597        0.751        0.121      112.000       13.673        0.015      334.734        4.901      864.638
11/26/2013  19:29:00     -137.791      -38.811      -16.175       30.832       31.060       17.627      950.608      964.706      310.695        1.149        0.111      143.152        8.038        0.003      334.685        4.820      864.632
11/26/2013  19:30:00     -120.424      -38.472       -5.941       37.131       42.867       24.416     1378.709     1837.546      596.148        0.991        0.191      126.420       18.710        0.022      334.645        4.754      864.636
11/26/2013  19:31:00      -70.805      -16.337        9.484       42.418       33.781       26.733     1799.269     1141.184      714.675        0.451        0.183       72.665       25.463        0.123      334.590        4.662      864.641
11/26/2013  19:32:00      -97.053      -19.827        4.601       42.350       44.703       28.548     1793.507     1998.337      814.992        0.722        0.230       99.058       21.642        0.048      334.553        4.600      864.645
11/26/2013  19:33:00      -89.371      -25.298       -0.157       50.763       36.259       25.822     2576.906     1314.734      666.783        0.659        0.228       92.883       27.551        0.088      334.536        4.573      864.653
11/26/2013  19:34:00      -65.520      -21.793        3.321       30.104       43.410       24.105      906.274     1884.443      581.057        0.407        0.169       69.049       13.494        0.038      334.531        4.565      864.665
11/26/2013  19:35:00     -106.226      -17.760       -7.373       44.959       39.610       24.877     2021.334     1568.926      618.877        0.793        0.210      107.701       17.389        0.026      334.551        4.598      864.666
11/26/2013  19:36:00     -143.210      -18.900       -9.874       36.320       27.711       21.088     1319.176      767.885      444.693        1.175        0.127      144.452       16.431        0.013      334.542        4.584      864.665
11/26/2013  19:37:00     -122.028      -32.348      -17.293       27.418       23.441       19.017      751.755      549.499      361.646        0.895        0.083      126.243        9.690        0.006      334.537        4.576      864.666
11/26/2013  19:38:00      -85.048      -27.961      -15.116       35.029       26.664       18.754     1227.014      710.985      351.698        0.527        0.114       89.526       11.138        0.015      334.613        4.701      864.683
11/26/2013  19:39:00      -47.500      -13.114       -9.136       35.840       22.658       18.945     1284.511      513.394      358.911        0.233        0.108       49.277       12.626        0.066      334.618        4.707      864.686
11/26/2013  19:40:00       -1.144      -15.517        5.330       24.492       20.341       12.154      599.836      413.746      147.708        0.072        0.058       15.559        6.056        0.152      334.626        4.722      864.694
11/26/2013  19:41:00      -16.622        2.691        9.172       14.430       15.567       10.330      208.228      242.332      106.699        0.046        0.028       16.839        4.117        0.060      334.544        4.586      864.708
11/26/2013  19:42:00      -37.793      -25.390       -2.307       37.698       19.395       17.673     1421.164      376.176      312.346        0.209        0.105       45.530       19.300        0.180      334.592        4.666      864.716
11/26/2013  19:43:00      -68.954      -63.329      -21.785       26.428       21.827       22.043      698.429      476.428      485.900        0.545        0.083       93.622       18.149        0.038      334.652        4.766      864.715
11/26/2013  19:44:00      -60.336      -61.623      -13.823       21.375       15.553       15.153      456.887      241.899      229.604        0.428        0.046       86.243       11.596        0.018      334.658        4.776      864.708
11/26/2013  19:45:00      -80.727      -60.841      -18.671       21.462       16.314       15.243      460.638      266.139      232.359        0.576        0.048      101.087        6.433        0.004      334.692        4.832      864.703
11/26/2013  19:46:00      -69.673      -60.528      -12.828       30.737       27.044       19.533      944.789      731.381      381.523        0.537        0.103       92.293       13.774        0.022      334.723        4.884      864.704
11/26/2013  19:47:00      -27.970      -51.663        9.266       37.756       30.425       28.436     1425.528      925.662      808.630        0.335        0.158       58.748       24.484        0.174      334.700        4.846      864.703
11/26/2013  19:48:00      -88.546      -17.967      -22.262       17.990       19.507       13.489      323.652      380.511      181.964        0.477        0.044       90.351        3.447        0.001      334.723        4.885      864.696
11/26/2013  19:49:00      -41.144      -25.367       -7.751       21.943       17.154       14.170      481.476      294.261      200.777        0.169        0.049       48.336        7.273        0.023      334.700        4.845      864.689
11/26/2013  19:50:00      -36.742      -18.704       -3.376       20.414       21.405       12.543      416.722      458.160      157.329        0.137        0.052       41.229        9.989        0.059      334.651        4.763      864.691
11/26/2013  19:51:00      -15.518        1.160      -11.882       15.535        8.167        7.032      241.342       66.706       49.454        0.037        0.018       15.562        5.590        0.129      334.771        4.964      864.689
11/26/2013  19:52:00      -21.386        1.836       -1.351        8.398        9.020        5.091       70.533       81.353       25.916        0.032        0.009       21.464        5.480        0.065      334.861        5.113      864.677
11/26/2013  19:53:00      -61.497      -29.414      -13.430       13.176        8.138        6.708      173.596       66.232       44.994        0.256        0.014       68.169        6.339        0.009      334.657        4.773      864.669
11/26/2013  19:54:00      -78.352      -18.013      -16.817        8.211       13.059        8.085       67.419      170.545       65.371        0.352        0.015       80.396        3.354        0.002      334.591        4.663      864.667
11/26/2013  19:55:00      -74.090       -8.141      -13.532       13.644        9.105        7.831      186.145       82.908       61.320        0.303        0.017       74.536        5.233        0.005      334.593        4.667      864.664
11/26/2013  19:56:00      -88.528       -9.781      -17.164       10.053        9.755        7.137      101.061       95.166       50.933        0.424        0.012       89.067        1.679        0.000      334.588        4.659      864.661
11/26/2013  19:57:00      -79.594       -9.706      -16.864       12.137       10.281        9.515      147.313      105.703       90.536        0.353        0.017       80.183        3.650        0.002      334.555        4.604      864.667
11/26/2013  19:58:00      -53.930      -12.516       -0.310       13.737       12.028       11.849      188.714      144.681      140.400        0.177        0.024       55.363        9.720        0.031      334.615        4.704      864.663
11/26/2013  19:59:00      -41.111      -20.983       -5.080       12.364       13.748        9.226      152.865      189.012       85.113        0.129        0.021       46.156        6.719        0.021      334.692        4.833      864.665
11/26/2013  20:00:00      -49.461      -17.837       -8.139       10.445        7.198        6.528      109.097       51.810       42.615        0.152        0.010       52.579        5.470        0.011      334.700        4.848      864.667
11/26/2013  20:01:00      -55.340      -19.228      -14.263        9.500        9.983        7.071       90.253       99.664       49.998        0.194        0.012       58.585        3.232        0.003      334.676        4.805      864.655
11/26/2013  20:02:00      -48.479      -10.622      -12.522        8.462        9.926       10.933       71.613       98.534      119.541        0.145        0.014       49.629        3.235        0.004      334.609        4.692      864.644
11/26/2013  20:03:00      -48.481      -21.270       -9.160       14.194       10.455        9.117      201.467      109.301       83.111        0.164        0.020       52.942        3.877        0.005      334.633        4.732      864.638
11/26/2013  20:04:00      -48.319      -18.790       -7.031       13.873        9.638        7.909      192.458       92.899       62.559        0.154        0.017       51.844        6.362        0.015      334.652        4.765      864.638
11/26/2013  20:05:00      -49.013      -12.206      -10.514        9.889        9.935        5.974       97.793       98.695       35.695        0.145        0.012       50.510        5.735        0.013      334.679        4.813      864.640
11/26/2013  20:06:00      -60.921        4.782      -11.772        7.944        6.725        6.204       63.110       45.226       38.488        0.201        0.007       61.109        3.231        0.003      334.741        4.914      864.641
11/26/2013  20:07:00      -65.338       -6.505       -6.811       10.670       10.775       11.660      113.842      116.099      135.952        0.236        0.018       65.661        5.360        0.007      334.779        4.977      864.635
11/26/2013  20:08:00      -70.051      -25.951       -9.940        9.485        9.501        7.051       89.963       90.272       49.714        0.295        0.011       74.703        2.305        0.001      334.680        4.815      864.635
11/26/2013  20:09:00      -75.484      -21.896      -11.928       15.986       10.246        7.823      255.568      104.983       61.207        0.337        0.021       78.596        7.506        0.009      334.657        4.775      864.631
11/26/2013  20:10:00      -38.548      -10.348      -10.225        7.885        9.848        6.634       62.175       96.979       44.013        0.095        0.010       39.913        4.457        0.012      334.636        4.740      864.632
11/26/2013  20:11:00      -68.317      -12.718      -10.221       13.998        9.095        7.557      195.948       82.726       57.113        0.263        0.017       69.491        4.557        0.004      334.727        4.891      864.629
11/26/2013  20:12:00      -60.373       -3.820       -5.626       12.678        9.630        8.308      160.729       92.728       69.022        0.201        0.016       60.494        6.322        0.011      334.753        4.934      864.624
11/26/2013  20:13:00      -74.647       -7.575       -9.221        9.238        7.053        7.070       85.349       49.742       49.992        0.295        0.009       75.030        2.375        0.001      334.751        4.931      864.621
11/26/2013  20:14:00      -75.472       -6.001      -15.650        8.955        6.325        4.982       80.194       40.004       24.816        0.306        0.007       75.710        4.432        0.003      334.751        4.931      864.622
11/26/2013  20:15:00      -67.378       -8.075      -10.434       12.234       10.913        7.672      149.670      119.099       58.864        0.252        0.016       67.861        2.073        0.001      334.721        4.881      864.632
11/26/2013  20:16:00      -70.769       -4.793      -14.073       12.401        7.406        6.177      153.792       54.844       38.154        0.274        0.012       70.931        3.512        0.002      334.699        4.845      864.632
11/26/2013  20:17:00      -51.729      -14.658       -9.711        7.540        8.579        8.844       56.847       73.601       78.222        0.160        0.010       53.766        6.365        0.014      334.677        4.809      864.635
11/26/2013  20:18:00      -59.429      -13.216      -13.638        8.614       11.140        9.112       74.194      124.103       83.027        0.209        0.014       60.881        6.599        0.012      334.666        4.790      864.641
11/26/2013  20:19:00      -49.701      -31.950      -10.185       11.827       10.163        9.214      139.889      103.291       84.898        0.196        0.016       59.084        4.238        0.005      334.667        4.790      864.642
11/26/2013  20:20:00      -69.437      -26.361      -15.125       16.277       15.032        7.591      264.946      225.958       57.616        0.315        0.027       74.273        4.350        0.003      334.597        4.674      864.654
11/26/2013  20:21:00      -46.764      -19.207      -15.369       28.792       15.513       10.294      828.961      240.645      105.963        0.198        0.059       50.554        6.273        0.015      334.535        4.571      864.662
11/26/2013  20:22:00      -70.226       -9.772       -6.903       47.060       12.788       12.841     2214.652      163.531      164.892        0.381        0.127       70.903       20.220        0.081      334.498        4.509      864.667
11/26/2013  20:23:00      -87.542       -6.926      -14.752       17.541       11.694       11.808      307.678      136.746      139.433        0.426        0.029       87.815        9.093        0.011      334.454        4.437      864.651
11/26/2013  20:24:00      -76.245        0.316      -13.851       13.611       13.095       10.400      185.251      171.475      108.166        0.323        0.023       76.246        5.417        0.005      334.479        4.479      864.636
11/26/2013  20:25:00      -81.520       -9.894      -14.881       12.808        9.777        8.955      164.050       95.585       80.194        0.365        0.017       82.119        5.753        0.005      334.527        4.558      864.632
11/26/2013  20:26:00      -87.771       -8.056      -16.197       10.885        9.948        9.553      118.478       98.956       91.258        0.417        0.015       88.139        8.019        0.008      334.571        4.633      864.629
11/26/2013  20:27:00      -76.306      -21.924      -17.081       13.141       13.911        9.874      172.691      193.522       97.498        0.353        0.023       79.393        8.728        0.012      334.561        4.616      864.643
11/26/2013  20:28:00      -81.518       -6.512      -10.705       21.984       19.396       16.496      483.315      376.218      272.129        0.397        0.057       81.778       15.530        0.036      334.457        4.443      864.638
11/26/2013  20:29:00      -92.867        2.192      -14.368       24.084       18.114       11.636      580.016      328.125      135.402        0.494        0.052       92.893        9.869        0.011      334.427        4.393      864.626
11/26/2013  20:30:00      -97.352        4.282      -19.703       24.456       12.915        9.493      598.079      166.795       90.126        0.537        0.043       97.446        3.200        0.001      334.368        4.296      864.631
11/26/2013  20:31:00      -74.125       -7.331      -15.211       15.475       11.213       12.570      239.490      125.722      158.012        0.315        0.026       74.486       11.166        0.022      334.455        4.441      864.643
11/26/2013  20:32:00      -79.368      -10.451      -11.165       12.483       15.175       12.244      155.836      230.292      149.922        0.353        0.027       80.053        9.308        0.014      334.487        4.492      864.641
11/26/2013  20:33:00      -80.983      -19.772      -16.617       14.678       17.203       12.067      215.447      295.929      145.621        0.394        0.033       83.362        5.271        0.004      334.477        4.475      864.644
11/26/2013  20:34:00      -77.513      -15.783      -11.245       14.963       13.695       11.623      223.894      187.560      135.094        0.347        0.027       79.103        8.479        0.011      334.469        4.463      864.636
11/26/2013  20:35:00      -85.942       -6.425      -15.204       15.128       18.388       10.665      228.871      338.128      113.745        0.417        0.034       86.182        6.913        0.006      334.454        4.437      864.635
11/26/2013  20:36:00      -82.555       -9.469      -16.595       18.180       14.156       10.471      330.530      200.385      109.632        0.391        0.032       83.096        5.769        0.005      334.414        4.372      864.632
11/26/2013  20:37:00      -89.354       -1.839      -20.119       23.864       19.572       14.639      569.499      383.048      214.313        0.478        0.058       89.373       10.838        0.015      334.378        4.312      864.621
11/26/2013  20:38:00      -48.241        2.867       -9.852       28.487       25.737       17.776      811.489      662.400      315.984        0.211        0.089       48.326       16.854        0.122      334.413        4.370      864.624
11/26/2013  20:39:00      -83.421       -7.433      -19.126       22.591       26.499       16.244      510.339      702.218      263.883        0.443        0.074       83.752       13.597        0.026      334.460        4.448      864.621
11/26/2013  20:40:00      -75.911       -7.461      -16.060       21.916       22.025       14.213      480.293      485.116      202.005        0.362        0.058       76.276       10.303        0.018      334.479        4.479      864.618
11/26/2013  20:41:00      -68.863      -12.288      -14.801       17.078       16.995       12.134      291.664      288.838      147.240        0.292        0.036       69.951       10.304        0.022      334.468        4.461      864.629
11/26/2013  20:42:00      -75.299      -12.064      -17.764       16.795       13.176        9.803      282.055      173.600       96.100        0.334        0.028       76.259        7.827        0.011      334.480        4.480      864.631
11/26/2013  20:43:00      -89.717       -1.979      -17.045       18.864       17.929       12.336      355.838      321.446      152.187        0.459        0.041       89.739       12.758        0.020      334.501        4.514      864.638
11/26/2013  20:44:00      -81.607       -3.201      -14.554       16.089       13.427       13.221      258.854      180.281      174.793        0.375        0.031       81.670        7.899        0.009      334.536        4.573      864.644
11/26/2013  20:45:00      -68.295       -3.457      -11.469       16.083       11.392        9.020      258.668      129.781       81.368        0.264        0.023       68.383        6.362        0.009      334.585        4.655      864.634
11/26/2013  20:46:00      -54.081      -15.357       -9.778       14.817       13.810       11.205      219.552      190.728      125.548        0.190        0.027       56.219        8.533        0.023      334.552        4.599      864.635
11/26/2013  20:47:00      -70.800       -9.585      -13.756       17.478       14.608       15.062      305.498      213.381      226.870        0.302        0.037       71.445        6.350        0.008      334.542        4.582      864.620
11/26/2013  20:48:00      -89.763      -14.680      -18.054       10.291       11.752        9.950      105.903      138.107       99.002        0.447        0.017       90.955        4.964        0.003      334.489        4.495      864.612
11/26/2013  20:49:00      -91.289       -6.290      -13.990       17.435       13.431       11.090      303.985      180.390      122.995        0.459        0.030       91.505        7.407        0.007      334.517        4.541      864.603
11/26/2013  20:50:00      -70.946       -7.980       -9.321       18.941       10.483        9.718      358.757      109.884       94.443        0.287        0.028       71.394        9.293        0.017      334.481        4.482      864.591
11/26/2013  20:51:00      -72.541      -12.655      -12.717       14.257        8.559        7.464      203.268       73.263       55.717        0.296        0.017       73.636        4.795        0.004      334.492        4.500      864.595
11/26/2013  20:52:00      -70.392      -16.514      -14.373       15.372       11.600        8.960      236.313      134.552       80.275        0.294        0.023       72.303        5.941        0.007      334.535        4.571      864.591
11/26/2013  20:53:00      -52.308      -15.814      -11.835       15.458       15.499       16.583      238.936      240.207      274.990        0.194        0.038       54.646       12.146        0.049      334.549        4.594      864.575
11/26/2013  20:54:00      -68.696      -24.875      -14.793       10.127       13.680       10.292      102.554      187.137      105.934        0.298        0.020       73.061        5.472        0.006      334.539        4.579      864.572
11/26/2013  20:55:00      -60.145      -29.950      -15.639       10.814       11.364        7.632      116.946      129.144       58.245        0.253        0.015       67.190        2.303        0.001      334.573        4.635      864.573
11/26/2013  20:56:00      -64.278      -32.514      -14.058       10.617       14.138        9.785      112.727      199.877       95.745        0.290        0.020       72.034        6.532        0.008      334.555        4.604      864.574
11/26/2013  20:57:00      -68.602      -28.223      -18.820       13.739       13.062       11.520      188.771      170.603      132.704        0.317        0.025       74.181        6.040        0.007      334.525        4.557      864.581
11/26/2013  20:58:00      -65.696      -18.665       -6.069       16.552       10.267       13.125      273.962      105.413      172.262        0.263        0.028       68.296        8.763        0.016      334.480        4.482      864.583
11/26/2013  20:59:00      -61.384      -27.156      -14.063       10.990       18.616        8.410      120.789      346.555       70.730        0.262        0.027       67.122        7.949        0.014      334.526        4.557      864.570
11/26/2013  21:00:00      -68.200      -26.812      -14.195       11.646       10.421        9.268      135.633      108.590       85.903        0.295        0.017       73.281        5.677        0.006      334.466        4.457      864.571
11/26/2013  21:01:00      -51.709      -33.588       -8.590       12.943       17.553       12.986      167.511      308.123      168.630        0.226        0.032       61.660        9.858        0.026      334.473        4.468      864.578
11/26/2013  21:02:00      -61.976      -19.271      -14.365       11.108       11.872        8.253      123.392      140.942       68.111        0.238        0.017       64.903        6.434        0.010      334.420        4.382      864.575
11/26/2013  21:03:00      -74.061      -20.712      -10.767       14.651       14.654        9.314      214.637      214.743       86.756        0.327        0.026       76.902        6.029        0.006      334.420        4.383      864.581
11/26/2013  21:04:00      -82.600      -13.402      -13.055       17.225       13.803       12.405      296.684      190.528      153.894        0.391        0.032       83.680        7.452        0.008      334.359        4.280      864.591
11/26/2013  21:05:00      -97.028      -24.681      -21.041       12.042       11.832        8.897      144.998      140.008       79.150        0.542        0.018      100.118        3.327        0.001      334.361        4.283      864.594
11/26/2013  21:06:00      -77.941      -37.953      -22.257       17.114       12.969       11.938      292.880      168.185      142.511        0.431        0.030       86.690        4.230        0.002      334.320        4.215      864.588
11/26/2013  21:07:00      -84.550      -16.956      -18.455       13.136       12.508       12.650      172.542      156.452      160.032        0.413        0.024       86.233        5.667        0.004      334.354        4.272      864.584
11/26/2013  21:08:00      -81.954      -16.393      -16.717       20.255       11.340       12.064      410.271      128.590      145.534        0.397        0.034       83.577        8.361        0.010      334.398        4.344      864.578
11/26/2013  21:09:00     -109.839       -6.083      -17.090       11.308       11.334        8.744      127.873      128.453       76.449        0.636        0.017      110.007        3.696        0.001      334.433        4.404      864.572
11/26/2013  21:10:00      -91.513      -20.946      -13.003       16.525       16.879       13.964      273.081      284.913      194.989        0.487        0.038       93.880       11.066        0.014      334.406        4.357      864.568
11/26/2013  21:11:00      -61.710      -23.802       -6.348       14.764       16.083       12.082      217.980      258.650      145.978        0.252        0.031       66.141        7.940        0.014      334.383        4.319      864.574
11/26/2013  21:12:00      -98.854      -12.746      -18.438       12.706       16.484        9.594      161.443      271.715       92.044        0.540        0.026       99.672        6.281        0.004      334.426        4.392      864.581
11/26/2013  21:13:00      -95.060       -7.259      -12.956       16.504       12.963        9.894      272.376      168.044       97.901        0.490        0.027       95.337        7.718        0.007      334.424        4.388      864.577
11/26/2013  21:14:00      -85.743      -19.012      -14.644       11.411       11.420        8.324      130.209      130.416       69.281        0.413        0.016       87.826        5.905        0.005      334.442        4.419      864.581
11/26/2013  21:15:00      -91.275      -10.457      -13.402       10.430        7.867        5.872      108.783       61.882       34.485        0.441        0.010       91.872        1.645        0.000      334.436        4.407      864.589
11/26/2013  21:16:00      -92.391      -17.734      -14.860       12.748       14.042        9.352      162.524      197.173       87.451        0.476        0.022       94.077        6.613        0.005      334.408        4.362      864.601
11/26/2013  21:17:00      -79.455      -16.691      -14.800       17.045       13.434       10.817      290.546      180.479      117.006        0.370        0.029       81.189        9.196        0.013      334.399        4.346      864.587
11/26/2013  21:18:00      -65.465      -15.763       -5.459       15.850       15.691       10.958      251.218      246.205      120.076        0.259        0.031       67.336        8.345        0.015      334.401        4.350      864.576
11/26/2013  21:19:00     -104.962      -17.840      -16.617        9.195       11.619        7.763       84.556      135.000       60.263        0.595        0.014      106.467        3.289        0.001      334.378        4.311      864.563
11/26/2013  21:20:00     -116.423      -22.995      -18.318       10.863       10.745        9.437      117.995      115.464       89.054        0.737        0.016      118.673        6.530        0.003      334.422        4.384      864.568
11/26/2013  21:21:00     -115.400      -23.442      -19.894        9.380        7.215        6.767       87.982       52.055       45.791        0.722        0.009      117.757        4.042        0.001      334.398        4.344      864.573
11/26/2013  21:22:00     -100.357      -22.988      -16.786       23.546       12.612       12.134      554.419      159.064      147.240        0.587        0.043      102.956       13.347        0.017      334.397        4.343      864.560
11/26/2013  21:23:00     -110.354      -20.109      -19.088       18.951       12.271       10.939      359.133      150.570      119.668        0.679        0.031      112.171        7.046        0.004      334.395        4.341      864.554
11/26/2013  21:24:00     -101.843      -20.335       -9.428       20.616       15.190       14.040      425.007      230.737      197.134        0.586        0.043      103.853       12.177        0.014      334.375        4.306      864.560
11/26/2013  21:25:00     -115.391      -40.035      -12.772       30.841       21.018       11.433      951.194      441.736      130.721        0.830        0.076      122.139        9.577        0.006      334.332        4.236      864.561
11/26/2013  21:26:00     -133.216      -32.600      -13.009       25.141       15.532       13.452      632.055      241.228      180.961        1.002        0.053      137.147       13.019        0.009      334.316        4.208      864.549
11/26/2013  21:27:00      -95.519      -37.648      -10.076       19.451       18.094       17.065      378.323      327.395      291.217        0.582        0.050      102.671       12.974        0.016      334.298        4.180      864.553
11/26/2013  21:28:00      -94.522      -25.338      -12.349       21.167       20.999       14.619      448.051      440.941      213.725        0.542        0.055       97.859       10.876        0.012      334.286        4.159      864.556
11/26/2013  21:29:00      -85.837      -28.806      -10.351       16.122       16.579       11.394      259.920      274.865      129.832        0.448        0.033       90.542        7.991        0.008      334.320        4.217      864.544
11/26/2013  21:30:00      -89.713      -25.833       -8.136       22.624       16.171       18.325      511.868      261.495      335.791        0.495        0.055       93.358       14.011        0.023      334.282        4.152      864.537
11/26/2013  21:31:00     -108.600      -34.815      -21.391       18.926       22.082       14.261      358.185      487.605      203.366        0.726        0.052      114.044        8.385        0.005      334.253        4.104      864.535
11/26/2013  21:32:00     -101.113      -47.753      -19.843       23.397       20.242       13.811      547.440      409.725      190.756        0.702        0.057      111.822       11.474        0.011      334.284        4.155      864.533
11/26/2013  21:33:00     -113.156      -29.887      -17.472       25.098       19.759       14.745      629.905      390.436      217.416        0.762        0.062      117.037       11.232        0.009      334.270        4.133      864.542
11/26/2013  21:34:00      -92.749      -23.124      -17.417       32.021       25.941       15.595     1025.335      672.945      243.190        0.569        0.097       95.588       12.567        0.017      334.200        4.017      864.529
11/26/2013  21:35:00     -117.224      -12.617      -15.910       26.255       25.160       19.860      689.340      633.027      394.413        0.793        0.086      117.901       13.330        0.013      334.199        4.015      864.528
11/26/2013  21:36:00     -101.948      -20.398       -9.382       23.552       21.793       13.734      554.695      474.923      188.627        0.606        0.061      103.969        8.262        0.006      334.207        4.028      864.540
11/26/2013  21:37:00     -106.045      -17.521      -14.605       31.244       26.307       19.232      976.192      692.077      369.885        0.690        0.102      107.483       16.538        0.024      334.205        4.023      864.552
11/26/2013  21:38:00     -116.757      -13.135      -15.381       26.320       26.092       18.351      692.767      680.798      336.742        0.788        0.086      117.494       13.747        0.014      334.204        4.023      864.554
11/26/2013  21:39:00      -91.839      -33.724       -5.237       13.732       14.760       13.242      188.563      217.865      175.347        0.509        0.029       97.835        6.006        0.004      334.289        4.165      864.554
11/26/2013  21:40:00      -77.101      -29.433      -12.930       15.069       18.443       14.743      227.071      340.140      217.353        0.388        0.039       82.528        9.406        0.013      334.321        4.218      864.563
11/26/2013  21:41:00     -134.769       -2.407      -17.300       18.440       12.040       12.800      340.043      144.968      163.837        0.956        0.032      134.791        9.173        0.005      334.301        4.183      864.561
11/26/2013  21:42:00     -130.276        0.786      -20.144       16.362       11.320       11.085      267.707      128.138      122.877        0.895        0.026      130.278        4.604        0.001      334.340        4.249      864.548
11/26/2013  21:43:00     -121.753       -1.578      -20.081       15.112       13.675       11.988      228.367      187.000      143.706        0.789        0.028      121.763        7.218        0.004      334.340        4.248      864.539
11/26/2013  21:44:00     -101.362       -4.550      -19.649       12.937       10.752        9.924      167.359      115.598       98.479        0.553        0.019      101.464        5.078        0.003      334.388        4.327      864.539
11/26/2013  21:45:00     -101.034      -14.068      -16.963       22.773       16.111       13.113      518.617      259.578      171.943        0.582        0.048      102.009       12.905        0.016      334.293        4.171      864.534
11/26/2013  21:46:00      -89.955      -15.538      -13.889       19.243       18.293       12.647      370.293      334.620      159.948        0.470        0.043       91.287       11.783        0.017      334.291        4.167      864.526
11/26/2013  21:47:00      -97.042      -20.995      -15.706       23.994       17.125       16.432      575.724      293.262      270.018        0.562        0.057       99.287       16.004        0.026      334.273        4.138      864.517
11/26/2013  21:48:00     -100.647      -17.403      -17.535       22.354       22.598       20.035      499.721      510.678      401.382        0.608        0.071      102.140       14.874        0.021      334.276        4.142      864.531
11/26/2013  21:49:00     -109.419        8.967      -17.279       20.760       12.308       13.493      430.974      151.491      182.052        0.656        0.038      109.786        3.248        0.001      334.285        4.158      864.528
11/26/2013  21:50:00     -102.411       -7.315      -15.819       15.641       21.849       12.095      244.639      477.383      146.293        0.583        0.043      102.672        7.668        0.006      334.288        4.162      864.526
11/26/2013  21:51:00      -96.236       -9.841      -21.327       15.836       19.100       11.415      250.793      364.825      130.313        0.528        0.037       96.738        9.427        0.009      334.248        4.095      864.527
11/26/2013  21:52:00     -104.745      -12.270      -16.391       19.201       15.118       15.268      368.683      228.543      233.104        0.611        0.042      105.462       13.456        0.016      334.252        4.103      864.533
11/26/2013  21:53:00      -96.190      -33.008      -17.059       17.668       25.645       14.239      312.141      657.667      202.762        0.590        0.059      101.696       11.990        0.014      334.240        4.081      864.543
11/26/2013  21:54:00     -144.060       -8.021      -13.235       36.283       25.586       22.186     1316.451      654.638      492.232        1.173        0.123      144.283       20.149        0.020      334.207        4.028      864.547
11/26/2013  21:55:00     -142.899      -11.986      -16.656       35.636       35.732       23.527     1269.933     1276.757      553.528        1.197        0.155      143.401       16.735        0.014      334.180        3.981      864.548
11/26/2013  21:56:00      -94.706      -41.039       -4.401       22.950       28.439       18.178      526.711      808.765      330.450        0.617        0.083      103.215       12.640        0.015      334.190        3.999      864.556
11/26/2013  21:57:00     -137.013      -12.173       -7.560       30.902       34.287       21.677      954.910     1175.620      469.878        1.079        0.130      137.553       16.853        0.015      334.171        3.967      864.556
11/26/2013  21:58:00      -98.280      -16.252       -9.718       40.736       30.801       21.483     1659.381      948.704      461.518        0.654        0.153       99.614        4.066        0.002      334.165        3.957      864.554
11/26/2013  21:59:00      -82.380      -51.003       -3.728       61.344       30.248       22.281     3763.078      914.935      496.464        0.729        0.259       96.890       25.682        0.070      334.177        3.977      864.556
11/26/2013  22:00:00     -123.553      -47.763       -6.179       27.813       22.932       16.955      773.565      525.888      287.469        0.959        0.079      132.464       16.829        0.016      334.201        4.017      864.569
11/26/2013  22:01:00     -152.807      -41.077      -12.706       25.826       23.363       17.310      666.985      545.816      299.627        1.336        0.076      158.232        9.244        0.003      334.202        4.019      864.570
11/26/2013  22:02:00      -97.894      -19.849        0.950       53.432       29.528       21.348     2854.950      871.900      455.732        0.708        0.209       99.886       24.161        0.059      334.179        3.981      864.571
11/26/2013  22:03:00     -110.019      -42.452       -2.444       30.977       31.887       21.822      959.567     1016.783      476.221        0.818        0.123      117.925       22.236        0.036      334.238        4.080      864.569
11/26/2013  22:04:00     -114.909      -32.313       -1.472       28.619       27.054       19.907      819.038      731.925      396.299        0.810        0.097      119.366       17.423        0.021      334.212        4.035      864.567
11/26/2013  22:05:00     -110.499      -52.194        2.275       26.128       25.555       18.211      682.677      653.065      331.636        0.830        0.083      122.206       13.714        0.013      334.174        3.973      864.575
11/26/2013  22:06:00     -126.687      -56.206       -2.504       27.898       33.040       20.501      778.321     1091.646      420.293        1.075        0.115      138.596       19.737        0.020      334.178        3.980      864.576
11/26/2013  22:07:00     -121.786      -36.418       -7.545       26.964       28.790       16.735      727.056      828.892      280.061        0.903        0.092      127.115        9.141        0.005      334.174        3.972      864.575
11/26/2013  22:08:00      -94.978      -30.738       -0.950       34.423       24.399       17.256     1184.944      595.318      297.762        0.602        0.104       99.828       17.941        0.032      334.187        3.995      864.567
11/26/2013  22:09:00      -97.584      -29.445       -3.231       30.652       24.237       17.323      939.556      587.444      300.099        0.611        0.091      101.930       14.177        0.019      334.160        3.950      864.569
11/26/2013  22:10:00     -118.960       -1.760       -9.732       50.866       32.469       23.401     2587.314     1054.262      547.597        0.922        0.209      118.974       26.891        0.051      334.196        4.009      864.571
11/26/2013  22:11:00      -61.656      -14.636       -5.237       29.056       31.786       12.667      844.275     1010.345      160.440        0.303        0.101       63.369       10.721        0.029      334.161        3.951      864.561
11/26/2013  22:12:00      -44.508      -31.824       -2.896       18.685       16.018       12.246      349.129      256.574      149.962        0.188        0.038       54.715        8.987        0.027      334.146        3.925      864.544
11/26/2013  22:13:00      -51.183      -12.277       -4.314       22.012       13.074       15.088      484.549      170.928      227.644        0.184        0.044       52.635       16.499        0.098      334.508        4.525      864.535
11/26/2013  22:14:00       30.982       33.359       -3.104       14.298       19.203       10.137      204.427      368.770      102.756        0.138        0.034       45.527        9.739        0.046      334.962        5.280      864.527
11/26/2013  22:15:00       36.085       36.915       -0.431        9.785       10.341       10.419       95.752      106.926      108.562        0.149        0.016       51.622        7.456        0.021      334.748        4.925      864.517
11/26/2013  22:16:00       38.481       53.057       -1.517        7.573       12.221        5.149       57.354      149.342       26.510        0.227        0.012       65.542        5.181        0.006      334.720        4.879      864.510
11/26/2013  22:17:00       29.706       36.268       -5.316       11.167       18.533        6.946      124.708      343.486       48.252        0.137        0.026       46.881        4.960        0.011      334.538        4.577      864.503
11/26/2013  22:18:00       -4.376       19.407       -5.210       10.637       16.214        6.515      113.146      262.888       42.445        0.042        0.021       19.894        9.080        0.208      334.681        4.814      864.504
11/26/2013  22:19:00      -85.224      -21.310       -3.900       32.778       22.858       15.981     1074.428      522.472      255.402        0.479        0.093       87.848       12.850        0.021      334.143        3.921      864.501
11/26/2013  22:20:00     -100.482      -34.170       -9.030       22.208       25.904       18.390      493.192      671.009      338.204        0.642        0.075      106.133       13.017        0.015      333.959        3.616      864.502
11/26/2013  22:21:00      -93.879      -18.068       -9.638       26.848       18.306       14.309      720.831      335.108      204.748        0.525        0.063       95.602       14.957        0.024      334.012        3.703      864.513
11/26/2013  22:22:00      -73.792      -12.158       -6.260       15.558       18.156       12.740      242.045      329.641      162.304        0.318        0.037       74.787       11.173        0.022      334.086        3.826      864.508
11/26/2013  22:23:00      -78.176      -13.664      -11.923       16.042       11.042        9.991      257.357      121.929       99.814        0.346        0.024       79.361        9.462        0.014      334.149        3.932      864.499
11/26/2013  22:24:00      -76.728       -6.608      -18.463       11.128       10.307        7.825      123.840      106.229       61.232        0.328        0.015       77.012        7.679        0.010      334.280        4.149      864.490
11/26/2013  22:25:00      -64.054      -21.916       -9.829       14.607       18.551       12.649      213.354      344.135      159.990        0.270        0.036       67.699       12.695        0.035      334.242        4.086      864.480
11/26/2013  22:26:00      -42.128      -23.328       -8.201       12.917        9.646        8.946      166.848       93.053       80.036        0.136        0.017       48.156        2.381        0.002      334.208        4.029      864.477
11/26/2013  22:27:00      -52.073      -18.470      -15.354       12.514       11.928       13.987      156.610      142.275      195.647        0.189        0.025       55.251        7.527        0.019      334.183        3.988      864.484
11/26/2013  22:28:00      -62.580      -21.832       -3.481       18.506       13.781       11.957      342.489      189.918      142.967        0.254        0.034       66.279       11.835        0.032      334.072        3.804      864.490
11/26/2013  22:29:00      -74.997      -30.804      -10.581        8.969       11.380        9.353       80.439      129.504       87.478        0.349        0.015       81.077        4.027        0.002      334.074        3.807      864.495
11/26/2013  22:30:00      -67.639      -51.327       -5.156       15.300       16.878       10.720      234.075      284.853      114.926        0.393        0.032       84.909        7.124        0.007      334.081        3.818      864.485
11/26/2013  22:31:00      -74.999      -24.796      -10.132       20.430       14.354       12.222      417.371      206.050      149.370        0.356        0.039       78.992       11.602        0.022      334.105        3.858      864.468
11/26/2013  22:32:00      -68.047      -21.075       -9.119        9.507       10.840        6.768       90.387      117.506       45.812        0.271        0.013       71.236        4.008        0.003      334.108        3.862      864.459
11/26/2013  22:33:00      -62.432       -9.629       -9.445        7.109        8.301        7.203       50.542       68.908       51.884        0.213        0.009       63.170        3.678        0.003      334.102        3.855      864.453
11/26/2013  22:34:00      -60.069       -7.923       -8.845        9.919        7.727        7.848       98.392       59.714       61.597        0.198        0.011       60.590        3.594        0.004      334.143        3.920      864.452
11/26/2013  22:35:00      -66.394      -23.644       -8.303       14.322       10.014        8.527      205.120      100.280       72.708        0.271        0.019       70.478        4.920        0.005      334.155        3.940      864.450
11/26/2013  22:36:00      -60.858      -22.494        0.493       33.345       15.771       14.592     1111.874      248.735      212.938        0.289        0.079       64.881       19.471        0.090      334.117        3.877      864.439
11/26/2013  22:37:00      -36.558       -5.694        0.201       17.484        7.779       13.385      305.678       60.514      179.151        0.096        0.027       36.999       12.695        0.118      334.086        3.827      864.441
11/26/2013  22:38:00      -83.641      -20.700      -14.142       12.342        7.508        5.603      152.319       56.374       31.394        0.393        0.012       86.165        3.212        0.001      334.116        3.878      864.439
11/26/2013  22:39:00      -90.452      -27.230       -9.752        9.948       12.291        8.616       98.964      151.071       74.231        0.467        0.016       94.462        3.755        0.002      334.103        3.852      864.444
11/26/2013  22:40:00      -76.965       -9.655       -6.024       11.705        9.051        7.208      137.004       81.919       51.957        0.316        0.014       77.568        4.086        0.003      334.099        3.848      864.443
11/26/2013  22:41:00      -61.340        0.668        2.477       16.289       11.543       10.941      265.342      133.247      119.714        0.214        0.026       61.343        7.768        0.016      334.130        3.898      864.449
11/26/2013  22:42:00      -48.653      -19.147       -3.592       14.332        9.352        8.684      205.404       87.466       75.418        0.156        0.018       52.285        8.958        0.029      334.147        3.927      864.454
11/26/2013  22:43:00      -51.650      -17.560       -4.903        6.963        8.507        7.366       48.485       72.374       54.257        0.159        0.009       54.554        5.576        0.010      334.133        3.907      864.462
11/26/2013  22:44:00      -62.126      -15.064      -12.295        9.501       10.513        6.651       90.270      110.530       44.233        0.224        0.012       63.926        3.334        0.003      334.131        3.901      864.467
11/26/2013  22:45:00      -65.399        0.351       -8.876        5.404        9.290        5.641       29.205       86.310       31.816        0.225        0.007       65.400        3.398        0.003      334.158        3.946      864.471
11/26/2013  22:46:00      -66.248       -4.441       -8.347        9.773       10.899        7.876       95.511      118.793       62.036        0.238        0.014       66.397        4.200        0.004      334.148        3.929      864.480
11/26/2013  22:47:00      -78.993      -10.827      -12.797        5.462       10.494        5.508       29.829      110.132       30.333        0.335        0.009       79.731        3.175        0.002      334.034        3.740      864.485
11/26/2013  22:48:00      -64.427       -4.194       -8.831       15.660       15.526       10.036      245.249      241.069      100.721        0.242        0.029       64.563        8.286        0.016      333.958        3.615      864.499
11/26/2013  22:49:00      -52.144       -1.672       -9.789       14.102       11.096        8.687      198.880      123.131       75.468        0.161        0.020       52.171        7.897        0.023      333.915        3.546      864.514
11/26/2013  22:50:00      -60.221       -0.774       -8.787       14.503        8.786       10.520      210.342       77.194      110.679        0.205        0.020       60.226        7.714        0.016      333.871        3.470      864.517
11/26/2013  22:51:00      -54.424      -19.116      -10.498       12.422       15.504        9.049      154.315      240.365       81.888        0.196        0.024       57.683        7.510        0.017      333.911        3.537      864.520
11/26/2013  22:52:00      -57.621      -21.546      -10.120       10.404       10.783       11.782      108.250      116.282      138.806        0.213        0.018       61.518        3.927        0.004      333.924        3.560      864.520
11/26/2013  22:53:00      -54.933      -15.963      -11.107        9.838        8.331        6.482       96.784       69.402       42.021        0.180        0.010       57.205        4.558        0.006      333.994        3.674      864.507
11/26/2013  22:54:00      -41.694      -21.078      -11.112        9.979       10.525        8.201       99.577      110.776       67.252        0.129        0.014       46.719        5.249        0.013      333.966        3.628      864.489
11/26/2013  22:55:00      -37.960      -18.244       -9.928       10.245       11.202        8.105      104.952      125.479       65.691        0.108        0.015       42.116        5.064        0.014      334.016        3.711      864.482
11/26/2013  22:56:00      -45.111      -10.314       -8.816       11.890       10.491        6.264      141.364      110.070       39.240        0.125        0.015       46.275        4.142        0.008      334.008        3.699      864.482
11/26/2013  22:57:00      -27.606        3.309       10.302       10.370        8.781       10.795      107.537       77.099      116.529        0.059        0.015       27.804        5.287        0.036      334.191        4.002      864.483
11/26/2013  22:58:00      -17.086       -8.716        6.770        8.272        8.981       10.418       68.421       80.657      108.535        0.034        0.013       19.181        5.773        0.091      334.123        3.888      864.484
11/26/2013  22:59:00       -5.076       -5.041        3.564        5.714        4.590        3.138       32.652       21.065        9.848        0.006        0.003        7.154        2.264        0.100      334.112        3.870      864.481
11/26/2013  23:00:00       25.313      -24.704       -2.099       12.830       10.946        7.884      164.602      119.824       62.157        0.080        0.017       35.370        3.304        0.009      334.508        4.527      864.470
11/26/2013  23:01:00       34.657       -8.800       -0.703        8.956       11.345        6.252       80.210      128.709       39.087        0.076        0.012       35.757        5.549        0.024      334.618        4.707      864.454
11/26/2013  23:02:00       28.711       -0.412        6.332       13.312       10.164        7.058      177.200      103.300       49.815        0.060        0.017       28.714        5.183        0.033      334.577        4.641      864.448
11/26/2013  23:03:00       17.497       -2.380        3.310       11.001        7.835        7.063      121.029       61.388       49.892        0.028        0.012       17.658        6.947        0.155      334.606        4.689      864.444
11/26/2013  23:04:00       13.516       -2.027        2.540       11.207       11.165        7.579      125.601      124.660       57.441        0.025        0.015       13.667        2.559        0.035      334.522        4.550      864.439
11/26/2013  23:05:00       -6.988      -10.557        3.459        6.538        8.278        8.109       42.742       68.521       65.755        0.017        0.009       12.660        4.471        0.125      334.311        4.202      864.447
11/26/2013  23:06:00       14.093        2.959       -3.504       10.173       13.318        5.909      103.490      177.375       34.918        0.027        0.016       14.400        4.390        0.093      334.565        4.619      864.450
11/26/2013  23:07:00       -0.278       10.369        3.487       11.220       13.138        5.777      125.895      172.602       33.372        0.023        0.017       10.373        3.213        0.096      334.389        4.329      864.445
11/26/2013  23:08:00      -25.991       -4.673        2.415        6.967        6.836        6.199       48.539       46.725       38.423        0.042        0.007       26.408        3.723        0.020      334.118        3.881      864.440
11/26/2013  23:09:00      -15.490      -11.984       -0.291        8.584        6.813        5.386       73.678       46.417       29.005        0.027        0.007       19.584        4.124        0.044      334.163        3.955      864.439
11/26/2013  23:10:00      -27.279      -19.419       -7.499       15.789        6.768        7.415      249.305       45.809       54.981        0.076        0.018       33.485        6.916        0.043      334.139        3.914      864.440
11/26/2013  23:11:00      -51.715      -21.363      -12.753       10.935        8.147        5.762      119.564       66.373       33.197        0.176        0.011       55.954        1.298        0.001      334.015        3.710      864.442
11/26/2013  23:12:00      -60.584       -9.900      -13.603        6.698        7.903        7.680       44.869       62.454       58.976        0.206        0.008       61.388        4.588        0.006      333.944        3.594      864.435
11/26/2013  23:13:00      -72.152      -12.872       -8.225       12.429       10.222        6.119      154.473      104.484       37.437        0.287        0.015       73.291        5.283        0.005      333.845        3.427      864.422
11/26/2013  23:14:00      -63.554       -0.073       -7.562       10.058       10.125        8.091      101.160      102.525       65.467        0.218        0.013       63.554        7.770        0.015      333.863        3.457      864.406
11/26/2013  23:15:00      -56.219      -17.556       -6.360       14.462       13.234        8.611      209.157      175.144       74.152        0.198        0.023       58.897        7.882        0.018      333.879        3.484      864.403
11/26/2013  23:16:00      -82.110      -15.066      -12.351        8.623        8.857        5.961       74.362       78.439       35.539        0.365        0.009       83.481        5.579        0.004      333.875        3.478      864.411
11/26/2013  23:17:00      -74.615      -16.006      -10.187        7.112        9.248        6.087       50.583       85.530       37.051        0.305        0.009       76.313        1.955        0.001      333.902        3.524      864.414
11/26/2013  23:18:00      -53.497      -13.410      -10.407        9.587        7.975        7.269       91.904       63.594       52.832        0.168        0.010       55.152        5.202        0.009      333.880        3.486      864.411
11/26/2013  23:19:00      -68.459       -4.107       -9.758        5.836        7.325        5.273       34.058       53.651       27.804        0.246        0.006       68.582        3.389        0.002      333.900        3.520      864.403
11/26/2013  23:20:00      -70.630      -18.656       -9.791       11.485       12.324        8.277      131.909      151.876       68.505        0.289        0.018       73.052        4.538        0.004      333.916        3.546      864.404
11/26/2013  23:21:00      -98.044      -16.966      -13.183        7.215        8.536        5.944       52.061       72.869       35.334        0.512        0.008       99.502        2.735        0.001      333.877        3.480      864.411
11/26/2013  23:22:00      -83.552      -18.201      -13.494       10.369        9.993        9.698      107.520       99.862       94.048        0.390        0.015       85.512        5.901        0.005      333.827        3.398      864.417
11/26/2013  23:23:00      -76.478      -16.222       -9.612       16.733       14.747       12.222      279.995      217.468      149.375        0.343        0.032       78.179       10.292        0.017      333.799        3.349      864.410
11/26/2013  23:24:00      -79.431      -23.051       -7.212       15.654        9.267       10.719      245.033       85.869      114.890        0.367        0.022       82.708        9.031        0.012      333.851        3.437      864.397
11/26/2013  23:25:00      -78.495      -21.093       -4.867       15.839       14.122        9.087      250.860      199.436       82.568        0.358        0.027       81.279        7.475        0.008      333.836        3.412      864.390
11/26/2013  23:26:00      -85.000      -12.977       -4.496       14.934       15.252       11.532      223.030      232.622      132.981        0.400        0.029       85.984        9.706        0.013      333.812        3.372      864.377
11/26/2013  23:27:00      -84.955      -24.666       -6.642       13.693       10.992        8.228      187.502      120.815       67.698        0.412        0.019       88.463        7.283        0.007      333.861        3.454      864.359
11/26/2013  23:28:00      -71.528      -27.786       -4.251       16.600       11.448        6.524      275.571      131.049       42.562        0.318        0.022       76.736        4.309        0.003      333.877        3.479      864.344
11/26/2013  23:29:00      -50.145      -26.691        0.243       17.458       11.198       10.612      304.786      125.390      112.625        0.188        0.027       56.806       10.592        0.035      333.882        3.488      864.323
11/26/2013  23:30:00      -46.058       -6.661       -3.034       12.240       10.398        7.035      149.819      108.110       49.486        0.124        0.015       46.537        2.504        0.003      333.848        3.434      864.316
11/26/2013  23:31:00      -66.515      -11.068       -4.977       23.985       10.402        9.919      575.276      108.202       98.388        0.268        0.039       67.430       12.285        0.033      333.834        3.410      864.315
11/26/2013  23:32:00      -65.659      -18.797       -2.600       22.068       14.449       13.289      487.012      208.784      176.591        0.277        0.044       68.297       12.218        0.032      333.799        3.349      864.303
11/26/2013  23:33:00      -92.067      -19.620      -11.588       15.560       18.102       10.915      242.125      327.667      119.135        0.484        0.034       94.135        7.040        0.006      333.781        3.322      864.293
11/26/2013  23:34:00     -102.086       -5.328       -9.310       35.343       28.772       21.823     1249.121      827.824      476.231        0.654        0.128      102.225       20.913        0.042      333.655        3.111      864.283
11/26/2013  23:35:00      -63.570      -13.740        1.479       40.388       22.378       20.198     1631.181      500.780      407.960        0.339        0.127       65.038       20.472        0.099      333.568        2.968      864.272
11/26/2013  23:36:00      -95.750       -1.693       -8.074       39.151       31.088       21.854     1532.821      966.456      477.588        0.611        0.149       95.765       23.412        0.060      333.550        2.937      864.263
11/26/2013  23:37:00      -71.622      -25.947       -5.119       25.418       21.811       12.178      646.081      475.718      148.303        0.355        0.064       76.177        9.048        0.014      333.538        2.917      864.258
11/26/2013  23:38:00      -72.948      -13.401       -2.265       25.693       16.461       14.432      660.151      270.981      208.280        0.332        0.057       74.169       11.040        0.022      333.499        2.853      864.259
11/26/2013  23:39:00      -67.044      -31.909       -3.719       24.524       20.864       11.690      601.429      435.326      136.647        0.335        0.059       74.250        8.600        0.013      333.494        2.844      864.250
11/26/2013  23:40:00      -98.002      -28.260      -11.543       26.403       28.443       18.963      697.138      808.999      359.597        0.620        0.093      101.995       15.333        0.023      333.489        2.837      864.234
11/26/2013  23:41:00     -107.256      -16.519      -10.751       29.523       29.543       18.420      871.603      872.813      339.313        0.699        0.104      108.521       13.531        0.016      333.458        2.785      864.220
11/26/2013  23:42:00     -105.438        0.362      -10.813       37.685       21.724       19.722     1420.178      471.931      388.967        0.676        0.114      105.438       15.889        0.023      333.425        2.730      864.210
11/26/2013  23:43:00     -123.268      -14.789      -17.612       24.499       25.845       16.545      600.185      667.967      273.743        0.863        0.077      124.152        6.999        0.003      333.416        2.716      864.225
11/26/2013  23:44:00     -118.071      -14.004       -6.116       38.637       35.429       20.063     1492.781     1255.218      402.520        0.866        0.158      118.899       16.783        0.020      333.384        2.663      864.235
11/26/2013  23:45:00      -97.901      -15.891       -0.916       36.536       32.589       23.069     1334.859     1062.031      532.165        0.638        0.146       99.182       14.244        0.021      333.369        2.639      864.234
11/26/2013  23:46:00      -83.500      -21.637       -5.465       37.196       25.569       18.908     1383.520      653.794      357.525        0.493        0.120       86.258       17.465        0.041      333.397        2.684      864.223
11/26/2013  23:47:00      -99.172      -34.078       -1.939       21.254       29.844       15.064      451.713      890.660      226.911        0.628        0.078      104.864       12.641        0.015      333.421        2.723      864.208
11/26/2013  23:48:00      -99.391      -49.467      -11.008       16.824       21.934       16.872      283.051      481.117      284.662        0.675        0.052      111.020       10.727        0.009      333.514        2.876      864.203
11/26/2013  23:49:00     -124.802      -29.335      -11.204       18.104       19.412       11.718      327.740      376.830      137.320        0.870        0.042      128.203        6.990        0.003      333.498        2.849      864.197
11/26/2013  23:50:00     -108.242      -44.118       -5.345       21.420       18.702       13.998      458.795      349.752      195.940        0.735        0.050      116.887        8.596        0.005      333.468        2.801      864.198
11/26/2013  23:51:00     -111.992      -23.065      -16.720       21.863       27.444       15.928      477.989      753.153      253.717        0.742        0.074      114.343       10.337        0.008      333.417        2.718      864.192
11/26/2013  23:52:00     -100.134      -44.969       -9.888       26.399       20.914       15.315      696.909      437.414      234.538        0.676        0.068      109.768        5.611        0.003      333.438        2.752      864.198
11/26/2013  23:53:00      -76.312      -40.938       -6.141       38.163       19.653       13.990     1456.419      386.258      195.707        0.479        0.102       86.599       16.728        0.037      333.450        2.771      864.191
11/26/2013  23:54:00      -68.761      -26.962      -12.531       19.550       15.826       15.574      382.197      250.461      242.552        0.324        0.044       73.858       11.957        0.026      333.438        2.751      864.181
11/26/2013  23:55:00      -84.204      -19.849      -10.412       19.953       14.844       12.447      398.113      220.330      154.938        0.418        0.039       86.512        8.394        0.009      333.525        2.895      864.179
11/26/2013  23:56:00      -82.320      -16.545      -15.162       10.554       14.445       10.341      111.377      208.658      106.943        0.385        0.021       83.966        5.658        0.005      333.502        2.857      864.181
11/26/2013  23:57:00      -82.511      -32.105       -4.962       17.334       18.971       16.844      300.461      359.886      283.707        0.440        0.047       88.536       13.523        0.023      333.550        2.938      864.172
11/26/2013  23:58:00     -121.863      -37.799      -22.256       18.814       26.824       14.405      353.950      719.516      207.512        0.903        0.064      127.591       13.498        0.011      333.442        2.759      864.167
11/26/2013  23:59:00      -96.579      -39.084       -1.528       26.726       36.015       19.593      714.302     1297.047      383.898        0.663        0.120      104.187       15.635        0.023      333.365        2.633      864.148
